[[{"header":{"parameterUnit":"m.s-1","parameterCategory":1,"la1":31.0,"la2":29.5877,"lo1":-88.7671,"lo2":-86.6584,"dy":0.0162,"dx":0.0185,"nx":115,"ny":88,"refTime":"2023-09-17T06:00:00:Z","depth":0,"parameterNumber":2,"parameterNumberName":"U-component_of_WINDS"},"data":[0.0,0.0,0.0,0.0,0.0,0.0,0.0,0.0,0.0,0.0,0.0,0.0,0.0,0.0,0.0,0.0,0.0,0.0,0.0,0.0,0.0,0.0,0.0,0.0,0.0,0.0,0.0,0.0,0.0,0.0,0.0,0.0,0.0,0.0,0.0,0.0,0.0,0.0,0.0,0.0,0.0,0.0,0.0,0.0,0.0,0.0,0.0,0.0,0.0,0.0,0.0,0.0,0.0,0.0,0.0,0.0,0.0,0.0,0.0,0.0,0.0,0.0,0.0,0.0,0.0,0.0,0.0,0.0,0.0,0.0,0.0,0.0,0.0,0.0,0.0,0.0,0.0,0.0,0.0,0.0,0.0,0.0,0.0,0.0,0.0,0.0,0.0,0.0,0.0,0.0,0.0,0.0,0.0,0.0,0.0,0.0,0.0,0.0,0.0,0.0,0.0,0.0,0.0,0.0,0.0,0.0,0.0,0.0,0.0,0.0,0.0,0.0,0.0,0.0,0.0,0.0,0.0,0.0,0.0,0.0,0.0,0.0,0.0,0.0,0.0,0.0,0.0,0.0,0.0,0.0,0.0,0.0,0.0,0.0,0.0,0.0,0.0,0.0,0.0,0.0,0.0,0.0,0.0,0.0,0.0,0.0,0.0,0.0,0.0,0.0,0.0,0.0,0.0,0.0,0.0,0.0,0.0,0.0,0.0,0.0,0.0,0.0,0.0,0.0,0.0,0.0,0.0,0.0,0.0,0.0,0.0,0.0,0.0,0.0,0.0,0.0,0.0,0.0,0.0,0.0,0.0,0.0,0.0,0.0,0.0,0.0,0.0,0.0,0.0,0.0,0.0,0.0,0.0,0.0,0.0,0.0,0.0,0.0,0.0,0.0,0.0,0.0,0.0,0.0,0.0,0.0,0.0,0.0,0.0,0.0,0.0,0.0,0.0,0.0,0.0,0.0,0.0,0.0,0.0,0.0,0.0,0.0,0.0,0.0,0.0,0.0,0.0,0.0,0.0,0.0,0.0,0.0,0.0,0.0,0.0,0.0,0.0,0.0,0.0,0.0,0.0,0.0,0.0,0.0,0.0,0.0,0.0,0.0,0.0,0.0,0.0,0.0,0.0,0.0,0.0,0.0,0.0,0.0,0.0,0.0,0.0,0.0,0.0,0.0,0.0,0.0,0.0,0.0,0.0,0.0,0.0,0.0,0.0,0.0,0.0,0.0,0.0,0.0,0.0,0.0,0.0,0.0,0.0,0.0,0.0,0.0,0.0,0.0,0.0,0.0,0.0,0.0,0.0,0.0,0.0,0.0,0.0,0.0,0.0,0.0,0.0,0.0,0.0,0.0,0.0,0.0,0.0,0.0,0.0,0.0,0.0,0.0,0.0,0.0,0.0,0.0,0.0,0.0,0.0,0.0,0.0,0.0,0.0,0.0,0.0,0.0,0.0,0.0,0.0,0.0,0.0,0.0,0.0,0.0,0.0,0.0,0.0,0.0,0.0,0.0,0.0,0.0,0.0,0.0,0.0,0.0,0.0,0.0,0.0,0.0,0.0,0.0,0.0,0.0,0.0,0.0,0.0,0.0,0.0,0.0,0.0,0.0,0.0,0.0,0.0,0.0,0.0,0.0,0.0,0.0,0.0,0.0,0.0,0.0,0.0,0.0,0.0,0.0,0.0,0.0,0.0,0.0,0.0,0.0,0.0,0.0,0.0,0.0,0.0,0.0,0.0,0.0,0.0,0.0,0.0,0.0,0.0,0.0,0.0,0.0,0.0,0.0,0.0,0.0,0.0,0.0,0.0,0.0,0.0,0.0,0.0,0.0,0.0,0.0,0.0,0.0,0.0,0.0,0.0,0.0,0.0,0.0,0.0,0.0,0.0,0.0,0.0,0.0,0.0,0.0,0.0,0.0,0.0,0.0,0.0,0.0,0.0,0.0,0.0,0.0,0.0,0.0,0.0,0.0,0.0,0.0,0.0,0.0,0.0,0.0,0.0,0.0,0.0,0.0,0.0,0.0,0.0,0.0,0.0,0.0,0.0,0.0,0.0,0.0,0.0,0.0,0.0,0.0,0.0,0.0,0.0,0.0,0.0,0.0,0.0,0.0,0.0,0.0,0.0,0.0,0.0,0.0,0.0,0.0,0.0,0.0,0.0,0.0,0.0,0.0,0.0,0.0,0.0,0.0,0.0,0.0,0.0,0.0,0.0,0.0,0.0,0.0,0.0,0.0,0.0,0.0,0.0,0.0,0.0,0.0,0.0,0.0,0.0,0.0,0.0,0.0,0.0,0.0,0.0,0.0,0.0,0.0,0.0,0.0,0.0,0.0,0.0,0.0,0.0,0.0,0.0,0.0,0.0,0.0,0.0,0.0,0.0,0.0,0.0,0.0,0.0,0.0,0.0,0.0,0.0,0.0,0.0,0.0,0.0,0.0,0.0,0.0,0.0,0.0,0.0,0.0,0.0,0.0,0.0,0.0,0.0,0.0,0.0,0.0,0.0,0.0,0.0,0.0,0.0,0.0,0.0,0.0,0.0,0.0,0.0,0.0,0.0,0.0,0.0,0.0,0.0,0.0,0.0,0.0,0.0,0.0,0.0,0.0,0.0,0.0,0.0,0.0,0.0,0.0,0.0,0.0,0.0,0.0,0.0,0.0,0.0,0.0,0.0,0.0,0.0,0.0,0.0,0.0,0.0,0.0,0.0,0.0,0.0,0.0,0.0,0.0,0.0,0.0,0.0,0.0,0.0,0.0,0.0,0.0,0.0,0.0,0.0,0.0,0.0,0.0,0.0,0.0,0.0,0.0,0.0,0.0,0.0,0.0,0.0,0.0,0.0,0.0,0.0,0.0,0.0,0.0,0.0,0.0,0.0,0.0,0.0,0.0,0.0,0.0,0.0,0.0,0.0,0.0,0.0,0.0,0.0,0.0,0.0,0.0,0.0,0.0,0.0,0.0,0.0,0.0,0.0,0.0,0.0,0.0,0.0,0.0,0.0,0.0,0.0,0.0,0.0,0.0,0.0,0.0,0.0,0.0,0.0,0.0,0.0,0.0,0.0,0.0,0.0,0.0,0.0,0.0,0.0,0.0,0.0,0.0,0.0,0.0,0.0,0.0,0.0,0.0,0.0,0.0,0.0,0.0,0.0,0.0,0.0,0.0,0.0,0.0,0.0,0.0,0.0,0.0,0.0,0.0,0.0,0.0,0.0,0.0,0.0,0.0,0.0,0.0,0.0,0.0,0.0,0.0,0.0,0.0,0.0,0.0,0.0,0.0,0.0,0.0,0.0,0.0,0.0,0.0,0.0,0.0,0.0,0.0,0.0,0.0,0.0,0.0,0.0,0.0,0.0,0.0,0.0,0.0,0.0,0.0,0.0,0.0,0.0,0.0,0.0,0.0,0.0,0.0,0.0,0.0,0.0,0.0,0.0,0.0,0.0,0.0,0.0,0.0,0.0,0.0,0.0,0.0,0.0,0.0,0.0,0.0,0.0,0.0,0.0,0.0,0.0,0.0,0.0,0.0,0.0,0.0,0.0,0.0,0.0,0.0,0.0,0.0,0.0,0.0,0.0,0.0,0.0,0.0,0.0,0.0,0.0,0.0,0.0,0.0,0.0,0.0,0.0,0.0,0.0,0.0,0.0,0.0,0.0,0.0,0.0,0.0,0.0,0.0,0.0,0.0,0.0,0.0,0.0,0.0,0.0,0.0,0.0,0.0,0.0,0.0,0.0,0.0,0.0,0.0,0.0,0.0,0.0,0.0,0.0,0.0,0.0,0.0,0.0,0.0,0.0,0.0,0.0,0.0,0.0,0.0,0.0,0.0,0.0,0.0,0.0,0.0,0.0,0.0,0.0,0.0,0.0,0.0,0.0,0.0,0.0,0.0,0.0,0.0,0.0,0.0,0.0,0.0,0.0,0.0,0.0,0.0,0.0,0.0,0.0,0.0,0.0,0.0,0.0,0.0,0.0,0.0,0.0,0.0,0.0,0.0,0.0,0.0,0.0,0.0,0.0,0.0,0.0,0.0,0.0,0.0,0.0,0.0,0.0,0.0,0.0,0.0,0.0,0.0,0.0,0.0,0.0,0.0,0.0,0.0,0.0,0.0,0.0,0.0,0.0,0.0,0.0,0.0,0.0,0.0,0.0,0.0,0.0,0.0,0.0,0.0,0.0,0.0,0.0,0.0,0.0,0.0,0.0,0.0,0.0,0.0,0.0,0.0,0.0,0.0,0.0,0.0,0.0,0.0,0.0,0.0,0.0,0.0,0.0,0.0,4.5104,0.0,0.0,0.0,0.0,0.0,0.0,0.0,0.0,0.0,0.0,0.0,0.0,0.0,0.0,0.0,0.0,0.0,0.0,0.0,0.0,0.0,0.0,0.0,0.0,0.0,0.0,0.0,0.0,0.0,0.0,0.0,0.0,0.0,0.0,0.0,0.0,0.0,0.0,0.0,0.0,0.0,0.0,0.0,0.0,0.0,0.0,0.0,0.0,0.0,0.0,0.0,0.0,0.0,0.0,0.0,0.0,0.0,0.0,0.0,0.0,0.0,0.0,0.0,0.0,0.0,0.0,0.0,0.0,0.0,0.0,0.0,0.0,0.0,0.0,0.0,0.0,0.0,0.0,0.0,0.0,0.0,0.0,0.0,0.0,0.0,0.0,0.0,0.0,0.0,0.0,0.0,0.0,0.0,0.0,0.0,0.0,0.0,0.0,0.0,0.0,0.0,0.0,0.0,0.0,0.0,0.0,0.0,0.0,0.0,0.0,4.4919,4.4991,4.5103,4.4897,4.4311,0.0,0.0,0.0,0.0,0.0,0.0,0.0,0.0,0.0,0.0,0.0,0.0,0.0,0.0,0.0,0.0,0.0,0.0,0.0,0.0,0.0,0.0,0.0,0.0,0.0,0.0,0.0,0.0,0.0,0.0,0.0,0.0,0.0,0.0,0.0,0.0,0.0,0.0,0.0,0.0,0.0,0.0,0.0,0.0,0.0,0.0,0.0,0.0,0.0,0.0,0.0,0.0,0.0,0.0,0.0,0.0,0.0,0.0,0.0,0.0,0.0,0.0,0.0,0.0,0.0,0.0,0.0,0.0,0.0,0.0,0.0,0.0,0.0,0.0,0.0,0.0,0.0,0.0,0.0,0.0,0.0,0.0,0.0,0.0,0.0,0.0,0.0,0.0,0.0,0.0,0.0,0.0,0.0,0.0,0.0,0.0,0.0,0.0,0.0,0.0,0.0,0.0,0.0,0.0,0.0,0.0,0.0,0.0,0.0,0.0,0.0,0.0,4.501,4.4664,4.3788,0.0,0.0,0.0,0.0,0.0,0.0,0.0,0.0,0.0,0.0,0.0,0.0,0.0,0.0,0.0,0.0,0.0,0.0,0.0,0.0,0.0,0.0,0.0,0.0,0.0,0.0,0.0,0.0,0.0,0.0,0.0,0.0,0.0,0.0,0.0,0.0,0.0,0.0,0.0,0.0,0.0,0.0,0.0,0.0,0.0,0.0,0.0,0.0,0.0,0.0,0.0,0.0,0.0,0.0,0.0,0.0,0.0,0.0,0.0,0.0,0.0,0.0,0.0,0.0,0.0,0.0,0.0,0.0,0.0,0.0,0.0,0.0,0.0,0.0,0.0,0.0,0.0,0.0,0.0,0.0,0.0,0.0,0.0,0.0,0.0,0.0,0.0,0.0,0.0,0.0,0.0,0.0,0.0,0.0,0.0,0.0,0.0,0.0,0.0,0.0,0.0,0.0,0.0,0.0,0.0,0.0,0.0,0.0,0.0,0.0,4.4796,4.4796,4.487,0.0,4.4542,0.0,0.0,0.0,0.0,0.0,0.0,0.0,0.0,0.0,0.0,0.0,0.0,0.0,0.0,0.0,0.0,0.0,0.0,0.0,0.0,0.0,0.0,0.0,0.0,0.0,0.0,0.0,0.0,0.0,0.0,0.0,0.0,0.0,0.0,0.0,0.0,0.0,0.0,0.0,0.0,0.0,0.0,0.0,0.0,0.0,0.0,0.0,0.0,0.0,0.0,0.0,0.0,0.0,0.0,0.0,0.0,0.0,0.0,0.0,0.0,0.0,0.0,0.0,0.0,0.0,0.0,0.0,0.0,0.0,0.0,0.0,0.0,0.0,0.0,0.0,0.0,0.0,0.0,0.0,0.0,0.0,0.0,0.0,0.0,0.0,0.0,0.0,0.0,0.0,0.0,0.0,0.0,0.0,0.0,0.0,0.0,0.0,0.0,0.0,0.0,0.0,0.0,0.0,0.0,0.0,0.0,0.0,0.0,0.0,0.0,4.477,4.4719,4.4632,4.4578,0.0,0.0,0.0,0.0,0.0,0.0,0.0,0.0,0.0,0.0,0.0,0.0,0.0,0.0,0.0,0.0,0.0,0.0,0.0,0.0,0.0,0.0,0.0,0.0,0.0,0.0,0.0,0.0,0.0,0.0,0.0,0.0,0.0,0.0,0.0,0.0,0.0,0.0,0.0,0.0,0.0,0.0,0.0,0.0,0.0,0.0,0.0,0.0,0.0,0.0,0.0,0.0,0.0,0.0,0.0,0.0,0.0,0.0,0.0,0.0,0.0,0.0,0.0,0.0,0.0,0.0,0.0,0.0,0.0,0.0,0.0,0.0,0.0,0.0,0.0,0.0,0.0,0.0,0.0,0.0,0.0,0.0,0.0,0.0,0.0,0.0,0.0,0.0,0.0,0.0,0.0,0.0,0.0,0.0,0.0,0.0,0.0,0.0,0.0,0.0,0.0,0.0,0.0,0.0,0.0,0.0,0.0,0.0,0.0,0.0,4.4745,4.4789,4.4712,4.4524,4.4458,4.4532,0.0,0.0,0.0,0.0,0.0,0.0,0.0,0.0,0.0,0.0,0.0,0.0,0.0,0.0,0.0,0.0,0.0,0.0,0.0,0.0,0.0,0.0,0.0,0.0,0.0,0.0,0.0,0.0,0.0,0.0,0.0,0.0,0.0,0.0,0.0,0.0,0.0,0.0,0.0,0.0,0.0,0.0,0.0,0.0,0.0,0.0,0.0,0.0,0.0,0.0,0.0,0.0,0.0,0.0,0.0,0.0,0.0,0.0,0.0,0.0,0.0,0.0,0.0,0.0,0.0,0.0,0.0,0.0,0.0,0.0,0.0,0.0,0.0,0.0,0.0,0.0,0.0,0.0,0.0,0.0,0.0,0.0,0.0,0.0,0.0,0.0,0.0,0.0,0.0,0.0,0.0,0.0,0.0,0.0,0.0,0.0,0.0,0.0,0.0,0.0,0.0,0.0,0.0,0.0,0.0,0.0,0.0,0.0,4.4524,4.4745,4.4821,4.4712,4.4667,4.4587,0.0,0.0,0.0,0.0,0.0,0.0,0.0,0.0,0.0,0.0,0.0,0.0,0.0,0.0,0.0,0.0,0.0,0.0,0.0,0.0,0.0,0.0,0.0,0.0,0.0,0.0,0.0,0.0,0.0,0.0,0.0,0.0,0.0,0.0,0.0,0.0,0.0,0.0,0.0,0.0,0.0,0.0,0.0,0.0,0.0,0.0,0.0,0.0,0.0,0.0,0.0,0.0,0.0,0.0,0.0,0.0,0.0,0.0,0.0,0.0,0.0,0.0,0.0,0.0,0.0,0.0,0.0,0.0,0.0,0.0,0.0,0.0,0.0,0.0,0.0,0.0,0.0,0.0,0.0,0.0,0.0,0.0,0.0,0.0,0.0,0.0,0.0,0.0,0.0,0.0,0.0,0.0,0.0,0.0,0.0,0.0,0.0,0.0,0.0,0.0,0.0,0.0,0.0,0.0,0.0,0.0,0.0,0.0,0.0,4.4659,4.4719,4.4719,4.4632,4.4551,4.4196,0.0,0.0,0.0,0.0,0.0,0.0,0.0,0.0,0.0,0.0,0.0,0.0,0.0,0.0,0.0,0.0,0.0,0.0,0.0,0.0,0.0,0.0,0.0,0.0,0.0,0.0,0.0,0.0,0.0,0.0,0.0,0.0,0.0,0.0,0.0,0.0,0.0,0.0,0.0,0.0,0.0,0.0,0.0,0.0,0.0,0.0,0.0,0.0,0.0,0.0,0.0,0.0,0.0,0.0,0.0,0.0,0.0,0.0,0.0,0.0,0.0,0.0,0.0,0.0,0.0,0.0,0.0,0.0,0.0,0.0,0.0,0.0,0.0,0.0,0.0,0.0,0.0,0.0,0.0,0.0,0.0,0.0,0.0,0.0,0.0,0.0,0.0,0.0,0.0,0.0,0.0,0.0,0.0,0.0,0.0,0.0,0.0,0.0,0.0,0.0,0.0,0.0,0.0,0.0,0.0,0.0,0.0,0.0,0.0,4.4745,0.0,4.4685,4.4613,4.4524,4.4018,0.0,0.0,0.0,0.0,0.0,0.0,0.0,0.0,0.0,0.0,0.0,0.0,0.0,0.0,0.0,0.0,0.0,0.0,0.0,0.0,0.0,0.0,0.0,0.0,0.0,0.0,0.0,0.0,0.0,0.0,0.0,0.0,0.0,0.0,0.0,0.0,0.0,0.0,0.0,0.0,0.0,0.0,0.0,0.0,0.0,0.0,0.0,0.0,0.0,0.0,0.0,0.0,0.0,0.0,0.0,0.0,0.0,0.0,0.0,0.0,0.0,0.0,0.0,0.0,0.0,0.0,0.0,0.0,0.0,0.0,0.0,0.0,0.0,0.0,0.0,0.0,0.0,0.0,0.0,0.0,0.0,0.0,0.0,0.0,0.0,0.0,0.0,0.0,0.0,0.0,0.0,0.0,0.0,0.0,0.0,0.0,0.0,0.0,0.0,0.0,0.0,0.0,0.0,0.0,0.0,0.0,0.0,0.0,4.4858,4.4908,4.4764,4.4704,4.4731,4.4651,4.4148,0.0,0.0,0.0,0.0,0.0,0.0,0.0,0.0,0.0,0.0,0.0,0.0,0.0,0.0,0.0,0.0,0.0,0.0,0.0,0.0,0.0,0.0,0.0,0.0,0.0,0.0,0.0,0.0,0.0,0.0,0.0,0.0,0.0,0.0,0.0,0.0,0.0,0.0,0.0,0.0,0.0,0.0,0.0,0.0,0.0,0.0,0.0,0.0,0.0,0.0,0.0,0.0,0.0,0.0,0.0,0.0,0.0,0.0,0.0,0.0,0.0,0.0,0.0,0.0,0.0,0.0,0.0,0.0,0.0,0.0,0.0,0.0,0.0,0.0,0.0,0.0,0.0,0.0,0.0,0.0,0.0,0.0,0.0,0.0,0.0,0.0,0.0,0.0,0.0,0.0,0.0,0.0,0.0,0.0,0.0,0.0,0.0,0.0,0.0,0.0,0.0,0.0,0.0,0.0,0.0,0.0,0.0,0.0,0.0,4.5691,4.4787,4.4665,4.5423,4.4749,4.3961,0.0,0.0,0.0,0.0,0.0,0.0,0.0,0.0,0.0,0.0,0.0,0.0,0.0,0.0,0.0,0.0,0.0,0.0,0.0,0.0,0.0,0.0,0.0,0.0,0.0,0.0,0.0,0.0,0.0,0.0,0.0,0.0,0.0,0.0,0.0,0.0,0.0,0.0,0.0,0.0,0.0,0.0,0.0,0.0,0.0,0.0,0.0,0.0,0.0,0.0,0.0,0.0,0.0,0.0,0.0,0.0,0.0,0.0,0.0,0.0,0.0,0.0,0.0,0.0,0.0,0.0,0.0,0.0,0.0,0.0,0.0,0.0,0.0,0.0,0.0,0.0,0.0,0.0,0.0,0.0,0.0,0.0,0.0,0.0,0.0,0.0,0.0,0.0,0.0,0.0,0.0,0.0,0.0,0.0,0.0,0.0,0.0,0.0,0.0,0.0,0.0,0.0,0.0,0.0,0.0,0.0,0.0,0.0,0.0,4.6262,4.5436,4.5189,4.5621,4.4957,4.4132,4.2994,0.0,0.0,0.0,0.0,0.0,0.0,0.0,0.0,0.0,0.0,0.0,0.0,0.0,0.0,0.0,0.0,0.0,0.0,0.0,0.0,0.0,0.0,0.0,0.0,0.0,0.0,0.0,0.0,0.0,0.0,0.0,0.0,0.0,0.0,0.0,0.0,0.0,0.0,0.0,0.0,0.0,0.0,0.0,0.0,0.0,0.0,0.0,0.0,0.0,0.0,0.0,0.0,0.0,0.0,0.0,0.0,0.0,0.0,0.0,0.0,0.0,0.0,0.0,0.0,0.0,0.0,0.0,0.0,0.0,0.0,0.0,0.0,0.0,0.0,0.0,0.0,0.0,0.0,0.0,0.0,0.0,0.0,0.0,0.0,0.0,0.0,0.0,0.0,0.0,0.0,0.0,0.0,0.0,0.0,0.0,0.0,0.0,0.0,0.0,0.0,0.0,0.0,0.0,0.0,0.0,0.0,0.0,0.0,4.6663,4.661,4.6225,4.5475,4.5249,4.4488,0.0,0.0,0.0,0.0,0.0,0.0,0.0,0.0,0.0,0.0,0.0,0.0,0.0,0.0,0.0,0.0,0.0,0.0,0.0,0.0,0.0,0.0,0.0,0.0,0.0,0.0,0.0,0.0,0.0,0.0,0.0,0.0,0.0,0.0,0.0,0.0,0.0,0.0,0.0,0.0,0.0,0.0,0.0,0.0,0.0,0.0,0.0,0.0,0.0,0.0,0.0,0.0,0.0,0.0,0.0,0.0,0.0,0.0,0.0,0.0,0.0,0.0,0.0,0.0,0.0,0.0,0.0,0.0,0.0,0.0,0.0,0.0,0.0,0.0,0.0,0.0,0.0,0.0,0.0,0.0,0.0,0.0,0.0,0.0,0.0,0.0,0.0,0.0,0.0,0.0,0.0,0.0,0.0,0.0,0.0,0.0,0.0,0.0,0.0,0.0,0.0,0.0,0.0,0.0,0.0,0.0,0.0,0.0,0.0,4.6305,4.7114,4.7353,4.6773,4.5312,4.4469,0.0,0.0,0.0,0.0,0.0,0.0,0.0,0.0,0.0,0.0,0.0,0.0,0.0,0.0,0.0,0.0,0.0,0.0,0.0,0.0,0.0,0.0,0.0,0.0,0.0,0.0,0.0,0.0,0.0,0.0,0.0,0.0,0.0,0.0,0.0,0.0,0.0,0.0,0.0,0.0,0.0,0.0,0.0,0.0,0.0,0.0,0.0,0.0,0.0,0.0,0.0,0.0,0.0,0.0,0.0,0.0,0.0,0.0,0.0,0.0,0.0,0.0,0.0,0.0,0.0,0.0,0.0,0.0,0.0,0.0,0.0,0.0,0.0,0.0,0.0,0.0,0.0,0.0,0.0,0.0,0.0,0.0,0.0,0.0,0.0,0.0,0.0,0.0,0.0,0.0,0.0,0.0,0.0,0.0,0.0,0.0,0.0,0.0,0.0,0.0,0.0,0.0,0.0,0.0,0.0,0.0,0.0,0.0,4.5616,4.5477,4.6353,4.6801,4.6834,4.536,4.4504,0.0,0.0,0.0,0.0,0.0,0.0,0.0,0.0,0.0,0.0,0.0,0.0,0.0,0.0,0.0,0.0,0.0,0.0,0.0,0.0,0.0,0.0,0.0,0.0,0.0,0.0,0.0,0.0,0.0,0.0,0.0,0.0,0.0,0.0,0.0,0.0,0.0,0.0,0.0,0.0,0.0,0.0,0.0,0.0,0.0,0.0,0.0,0.0,0.0,0.0,0.0,0.0,0.0,0.0,0.0,0.0,0.0,0.0,0.0,0.0,0.0,0.0,0.0,0.0,0.0,0.0,0.0,0.0,0.0,0.0,0.0,0.0,0.0,0.0,0.0,0.0,0.0,0.0,0.0,0.0,0.0,0.0,0.0,0.0,0.0,0.0,0.0,0.0,0.0,0.0,0.0,0.0,0.0,0.0,0.0,0.0,0.0,0.0,0.0,0.0,0.0,0.0,0.0,0.0,0.0,0.0,0.0,0.0,4.4761,4.462,4.4974,4.5459,4.6008,4.518,4.4561,0.0,0.0,0.0,0.0,0.0,0.0,0.0,0.0,0.0,0.0,0.0,0.0,0.0,0.0,0.0,0.0,0.0,0.0,0.0,0.0,0.0,0.0,0.0,0.0,0.0,0.0,0.0,0.0,0.0,0.0,0.0,0.0,0.0,0.0,0.0,0.0,0.0,0.0,0.0,0.0,0.0,0.0,0.0,0.0,0.0,0.0,0.0,0.0,0.0,0.0,0.0,0.0,0.0,0.0,0.0,0.0,0.0,0.0,0.0,0.0,0.0,0.0,0.0,0.0,0.0,0.0,0.0,0.0,0.0,0.0,0.0,0.0,0.0,0.0,0.0,0.0,0.0,0.0,0.0,0.0,0.0,0.0,0.0,0.0,0.0,0.0,0.0,0.0,0.0,0.0,0.0,0.0,0.0,0.0,0.0,0.0,0.0,0.0,0.0,0.0,0.0,0.0,0.0,0.0,0.0,0.0,0.0,0.0,4.4761,4.4691,4.5259,4.5503,4.5346,4.4114,4.3789,0.0,0.0,0.0,0.0,0.0,0.0,0.0,0.0,0.0,0.0,0.0,0.0,0.0,0.0,0.0,0.0,0.0,0.0,0.0,0.0,0.0,0.0,0.0,0.0,0.0,0.0,0.0,0.0,0.0,0.0,0.0,0.0,0.0,0.0,0.0,0.0,0.0,0.0,0.0,0.0,0.0,0.0,0.0,0.0,0.0,0.0,0.0,0.0,3.8851,0.0,0.0,0.0,0.0,0.0,0.0,0.0,0.0,0.0,0.0,0.0,0.0,0.0,0.0,0.0,0.0,0.0,0.0,0.0,0.0,0.0,0.0,0.0,0.0,0.0,0.0,0.0,0.0,0.0,0.0,0.0,0.0,0.0,0.0,0.0,0.0,0.0,0.0,0.0,0.0,0.0,0.0,0.0,0.0,0.0,0.0,0.0,0.0,0.0,0.0,0.0,0.0,0.0,0.0,0.0,0.0,0.0,0.0,0.0,4.4328,4.4241,4.456,4.473,4.466,4.3352,4.2995,0.0,0.0,0.0,0.0,0.0,0.0,0.0,0.0,0.0,0.0,0.0,0.0,0.0,0.0,0.0,0.0,0.0,0.0,0.0,0.0,0.0,0.0,0.0,0.0,0.0,0.0,0.0,0.0,0.0,0.0,0.0,0.0,0.0,0.0,0.0,0.0,0.0,0.0,0.0,0.0,0.0,0.0,0.0,0.0,0.0,0.0,0.0,0.0,0.0,0.0,0.0,0.0,0.0,0.0,0.0,0.0,0.0,0.0,0.0,0.0,0.0,0.0,0.0,0.0,0.0,0.0,0.0,0.0,0.0,0.0,0.0,0.0,0.0,0.0,0.0,0.0,0.0,0.0,0.0,0.0,0.0,0.0,0.0,0.0,0.0,0.0,0.0,0.0,0.0,0.0,0.0,0.0,0.0,0.0,0.0,0.0,0.0,0.0,0.0,0.0,0.0,0.0,0.0,0.0,0.0,0.0,0.0,4.386,4.3828,4.3758,4.3679,4.3807,4.4071,4.2817,4.2268,4.2502,0.0,0.0,0.0,0.0,0.0,0.0,0.0,0.0,0.0,0.0,0.0,0.0,0.0,0.0,0.0,0.0,0.0,0.0,0.0,0.0,0.0,0.0,0.0,0.0,0.0,0.0,0.0,0.0,0.0,0.0,0.0,0.0,0.0,0.0,0.0,0.0,0.0,0.0,3.5593,3.6689,0.0,0.0,0.0,0.0,0.0,0.0,0.0,0.0,3.519,0.0,0.0,0.0,0.0,0.0,0.0,0.0,0.0,0.0,0.0,0.0,0.0,0.0,0.0,0.0,0.0,0.0,0.0,0.0,0.0,0.0,0.0,0.0,0.0,0.0,0.0,0.0,0.0,0.0,0.0,0.0,0.0,0.0,0.0,0.0,0.0,0.0,0.0,0.0,0.0,0.0,0.0,0.0,0.0,0.0,0.0,0.0,0.0,0.0,0.0,0.0,0.0,0.0,0.0,0.0,0.0,4.3974,4.3828,4.3795,4.3955,4.3897,4.3723,4.3379,4.2706,4.1902,4.0994,0.0,0.0,0.0,0.0,0.0,0.0,0.0,0.0,0.0,0.0,0.0,0.0,0.0,0.0,0.0,0.0,0.0,0.0,0.0,0.0,0.0,0.0,0.0,0.0,0.0,0.0,0.0,0.0,0.0,0.0,0.0,0.0,0.0,0.0,0.0,0.0,0.0,0.0,0.0,3.7042,3.6955,0.0,0.0,0.0,0.0,0.0,0.0,0.0,0.0,3.3743,0.0,0.0,0.0,0.0,0.0,0.0,0.0,0.0,0.0,0.0,0.0,0.0,0.0,0.0,0.0,0.0,0.0,0.0,0.0,0.0,0.0,0.0,0.0,0.0,0.0,0.0,0.0,0.0,0.0,0.0,0.0,0.0,0.0,0.0,0.0,0.0,0.0,0.0,0.0,0.0,0.0,0.0,0.0,0.0,0.0,0.0,0.0,0.0,0.0,0.0,0.0,0.0,0.0,0.0,0.0,4.403,4.4048,4.4109,4.4248,4.4097,4.3828,4.3461,4.2846,4.2042,0.0,0.0,0.0,0.0,0.0,0.0,0.0,0.0,0.0,0.0,0.0,0.0,0.0,0.0,0.0,0.0,0.0,0.0,0.0,0.0,0.0,0.0,0.0,0.0,0.0,0.0,0.0,0.0,0.0,0.0,0.0,0.0,0.0,0.0,0.0,0.0,0.0,0.0,0.0,0.0,3.8473,3.8454,3.8611,0.0,0.0,0.0,0.0,0.0,0.0,3.3199,3.2167,0.0,0.0,0.0,0.0,0.0,0.0,0.0,0.0,0.0,0.0,0.0,0.0,0.0,0.0,0.0,0.0,0.0,0.0,0.0,0.0,0.0,0.0,0.0,0.0,0.0,0.0,0.0,0.0,0.0,0.0,0.0,0.0,0.0,0.0,0.0,0.0,0.0,0.0,0.0,0.0,0.0,0.0,0.0,0.0,0.0,0.0,0.0,0.0,0.0,0.0,0.0,0.0,0.0,0.0,0.0,4.4023,4.4229,4.4364,4.4487,4.4199,4.3955,4.3697,4.294,4.2106,0.0,0.0,0.0,0.0,0.0,0.0,0.0,0.0,0.0,0.0,0.0,0.0,0.0,0.0,0.0,0.0,0.0,0.0,0.0,0.0,0.0,0.0,0.0,0.0,0.0,0.0,0.0,0.0,0.0,0.0,0.0,0.0,0.0,0.0,0.0,0.0,0.0,0.0,0.0,0.0,0.0,4.0071,3.9772,3.888,0.0,0.0,0.0,0.0,3.288,3.1809,0.0,0.0,0.0,0.0,0.0,0.0,0.0,0.0,0.0,0.0,0.0,0.0,0.0,0.0,0.0,0.0,0.0,0.0,0.0,0.0,0.0,0.0,0.0,0.0,0.0,0.0,0.0,0.0,0.0,0.0,0.0,0.0,0.0,0.0,0.0,0.0,0.0,0.0,0.0,0.0,0.0,0.0,0.0,0.0,0.0,0.0,0.0,0.0,0.0,0.0,0.0,0.0,0.0,0.0,0.0,0.0,4.3799,4.403,4.4229,4.4383,4.4158,4.3892,4.3612,4.2621,4.1484,0.0,0.0,0.0,0.0,0.0,0.0,0.0,0.0,0.0,0.0,0.0,0.0,0.0,0.0,0.0,0.0,0.0,0.0,0.0,0.0,0.0,0.0,0.0,0.0,0.0,0.0,0.0,0.0,0.0,0.0,0.0,0.0,0.0,0.0,0.0,0.0,0.0,0.0,0.0,0.0,0.0,4.0041,4.0568,3.875,3.7111,0.0,0.0,3.4632,3.4488,3.2711,0.0,0.0,0.0,0.0,0.0,0.0,0.0,0.0,0.0,0.0,0.0,0.0,0.0,0.0,0.0,0.0,0.0,0.0,0.0,0.0,0.0,0.0,0.0,0.0,0.0,0.0,0.0,0.0,0.0,0.0,0.0,0.0,0.0,0.0,0.0,0.0,0.0,0.0,0.0,0.0,0.0,0.0,0.0,0.0,0.0,0.0,0.0,0.0,0.0,0.0,0.0,0.0,0.0,0.0,0.0,4.2259,4.2551,4.3285,4.3418,4.3016,4.313,4.3124,4.2916,4.199,4.1002,0.0,0.0,0.0,0.0,0.0,0.0,0.0,0.0,0.0,0.0,0.0,0.0,0.0,0.0,0.0,0.0,0.0,0.0,0.0,0.0,0.0,0.0,0.0,0.0,0.0,0.0,0.0,0.0,0.0,0.0,0.0,0.0,0.0,0.0,0.0,0.0,0.0,0.0,0.0,0.0,0.0,0.0,4.1122,3.9339,0.0,0.0,0.0,3.3772,3.2176,0.0,0.0,0.0,0.0,0.0,0.0,0.0,0.0,0.0,0.0,0.0,0.0,0.0,0.0,0.0,0.0,0.0,0.0,0.0,0.0,0.0,0.0,0.0,0.0,0.0,0.0,0.0,0.0,0.0,0.0,0.0,0.0,0.0,0.0,0.0,0.0,0.0,0.0,0.0,0.0,0.0,0.0,0.0,0.0,0.0,0.0,0.0,0.0,0.0,0.0,0.0,0.0,0.0,0.0,0.0,0.0,0.0,4.1571,4.252,4.2629,4.193,4.214,4.2321,4.2331,4.1522,0.0,0.0,0.0,0.0,0.0,0.0,0.0,0.0,0.0,0.0,0.0,0.0,0.0,0.0,0.0,0.0,0.0,0.0,0.0,0.0,0.0,0.0,0.0,0.0,0.0,0.0,0.0,2.6909,0.0,0.0,0.0,0.0,0.0,0.0,0.0,0.0,0.0,0.0,0.0,0.0,0.0,0.0,4.2422,4.1275,3.9465,3.7836,0.0,0.0,3.2743,3.0766,3.0703,2.934,0.0,0.0,0.0,0.0,0.0,0.0,0.0,0.0,0.0,0.0,0.0,0.0,0.0,0.0,0.0,0.0,0.0,0.0,0.0,0.0,0.0,0.0,0.0,0.0,0.0,0.0,0.0,0.0,0.0,0.0,0.0,0.0,0.0,0.0,0.0,0.0,0.0,0.0,0.0,0.0,0.0,0.0,0.0,0.0,0.0,0.0,0.0,0.0,0.0,0.0,0.0,0.0,0.0,0.0,0.0,4.1479,4.1875,4.2021,4.1892,4.163,4.1699,4.2176,4.1429,4.0468,0.0,0.0,0.0,0.0,0.0,0.0,0.0,0.0,0.0,0.0,0.0,0.0,0.0,0.0,0.0,0.0,0.0,0.0,0.0,0.0,0.0,0.0,0.0,0.0,0.0,0.0,0.0,0.0,0.0,0.0,0.0,0.0,0.0,0.0,0.0,0.0,0.0,0.0,0.0,0.0,0.0,4.1916,4.0825,3.8674,3.7249,0.0,0.0,3.2149,3.2195,3.1588,2.9365,2.406,0.0,0.0,0.0,0.0,0.0,0.0,0.0,0.0,0.0,0.0,0.0,0.0,0.0,0.0,0.0,0.0,0.0,0.0,0.0,0.0,0.0,0.0,0.0,0.0,0.0,0.0,0.0,0.0,0.0,0.0,0.0,0.0,0.0,0.0,0.0,0.0,0.0,0.0,0.0,0.0,0.0,0.0,0.0,0.0,0.0,0.0,0.0,0.0,0.0,0.0,0.0,0.0,0.0,4.0328,4.003,4.0746,4.0846,4.028,4.0348,4.0717,4.1379,4.0071,3.9229,0.0,0.0,0.0,0.0,0.0,0.0,0.0,0.0,0.0,0.0,0.0,0.0,0.0,0.0,0.0,0.0,0.0,0.0,0.0,0.0,0.0,0.0,0.0,0.0,0.0,0.0,0.0,0.0,2.6779,2.6927,2.5539,0.0,0.0,0.0,0.0,0.0,0.0,0.0,0.0,0.0,0.0,4.0694,4.0648,3.9182,0.0,0.0,3.5125,3.2951,3.0447,2.9511,2.7268,2.183,1.9669,0.0,0.0,0.0,0.0,0.0,0.0,0.0,0.0,0.0,0.0,0.0,0.0,0.0,0.0,0.0,0.0,0.0,0.0,0.0,0.0,0.0,0.0,0.0,0.0,0.0,0.0,0.0,0.0,0.0,0.0,0.0,0.0,0.0,0.0,0.0,0.0,0.0,0.0,0.0,0.0,0.0,0.0,0.0,0.0,0.0,0.0,0.0,0.0,0.0,0.0,0.0,0.0,3.9854,3.9528,4.0234,4.028,3.9629,3.9748,4.0097,4.0716,3.9494,3.886,0.0,0.0,0.0,0.0,0.0,0.0,0.0,0.0,0.0,0.0,0.0,0.0,0.0,0.0,0.0,0.0,0.0,0.0,0.0,0.0,0.0,0.0,0.0,0.0,0.0,0.0,0.0,0.0,2.5421,2.5413,2.3696,0.0,0.0,0.0,0.0,0.0,0.0,0.0,0.0,0.0,0.0,3.945,3.9191,3.813,3.67,3.4692,3.3348,3.1293,2.7876,2.6995,2.5081,2.0482,0.0,0.0,0.0,0.0,0.0,0.0,0.0,0.0,0.0,0.0,0.0,0.0,0.0,0.0,0.0,0.0,0.0,0.0,0.0,0.0,0.0,0.0,0.0,0.0,0.0,0.0,0.0,0.0,0.0,0.0,3.8156,0.0,0.0,0.0,0.0,0.0,0.0,0.0,0.0,0.0,0.0,0.0,0.0,0.0,0.0,0.0,0.0,0.0,0.0,0.0,0.0,0.0,0.0,3.9556,4.0449,4.0504,4.0568,4.0531,4.0037,4.001,4.0453,4.0071,3.9858,3.9822,0.0,0.0,0.0,0.0,0.0,0.0,0.0,0.0,0.0,0.0,0.0,0.0,0.0,0.0,0.0,0.0,0.0,0.0,0.0,0.0,0.0,0.0,0.0,0.0,0.0,0.0,2.041,2.1132,2.1726,0.0,0.0,0.0,0.0,0.0,0.0,0.0,0.0,0.0,0.0,3.6484,3.8351,3.6225,3.4987,3.3341,3.0738,2.8375,2.6286,2.483,2.4133,2.2935,0.0,0.0,0.0,0.0,0.0,0.0,0.0,0.0,0.0,0.0,0.0,0.0,0.0,0.0,0.0,0.0,0.0,0.0,0.0,0.0,0.0,0.0,0.0,0.0,0.0,0.0,0.0,3.8993,3.9113,0.0,0.0,0.0,0.0,0.0,0.0,0.0,0.0,0.0,0.0,0.0,3.7689,3.776,0.0,0.0,0.0,0.0,0.0,0.0,0.0,0.0,0.0,0.0,0.0,0.0,3.9108,3.9415,3.9556,3.9611,3.9584,3.913,3.913,3.9745,3.9149,3.8664,3.8221,0.0,0.0,0.0,0.0,0.0,0.0,0.0,0.0,0.0,0.0,0.0,0.0,0.0,0.0,0.0,0.0,0.0,0.0,0.0,0.0,0.0,0.0,0.0,0.0,0.0,2.3124,0.0,0.0,0.0,0.0,0.0,0.0,0.0,0.0,0.0,0.0,0.0,3.0519,3.2816,3.2548,3.2265,3.2794,3.1883,3.1039,0.0,0.0,0.0,0.0,0.0,0.0,0.0,0.0,0.0,0.0,0.0,0.0,0.0,0.0,0.7788,0.6641,0.7689,0.8429,0.7282,0.0,0.0,0.0,0.0,0.0,0.0,0.0,0.0,0.0,0.0,0.0,0.0,0.0,0.0,3.9292,0.0,3.9412,0.0,0.0,0.0,0.0,0.0,0.0,0.0,0.0,3.7918,3.7802,3.751,3.7842,3.8128,0.0,3.8093,3.7592,0.0,0.0,0.0,0.0,0.0,0.0,0.0,0.0,3.8958,3.9393,3.9489,3.9621,3.9723,3.9373,3.9358,3.9677,3.9274,3.8819,3.8303,3.6698,3.4841,0.0,0.0,0.0,0.0,0.0,0.0,0.0,0.0,0.0,0.0,0.0,0.0,0.0,0.0,0.0,0.0,0.0,0.0,0.0,0.0,0.0,0.0,0.0,2.1777,0.0,0.0,0.0,0.0,0.0,0.0,0.0,0.0,0.0,2.401,2.5813,2.7677,2.9975,2.9263,2.8357,2.7659,0.0,0.0,0.0,0.0,0.0,0.0,0.0,1.5741,1.3909,1.3351,1.3341,1.3602,1.1906,1.0099,0.8704,0.0,0.0,0.6469,0.7311,0.7849,0.6679,0.6909,0.6671,0.4983,0.4343,0.401,0.0,0.0,0.0,0.0,0.0,0.0,0.0,0.0,3.9425,3.9696,0.0,3.9835,0.0,0.0,0.0,0.0,0.0,3.9115,0.0,0.0,3.8456,3.8516,3.777,3.7763,3.8121,3.8685,3.7634,3.722,3.7317,3.7478,0.0,0.0,0.0,0.0,0.0,0.0,3.8985,4.0148,4.0263,4.0484,4.0759,4.0683,4.0474,4.02,4.0252,4.0167,3.9885,3.7347,3.5687,3.5324,3.2445,0.0,0.0,0.0,0.0,0.0,0.0,0.0,0.0,0.0,0.0,0.0,0.0,0.0,0.0,0.0,0.0,0.0,0.0,0.0,0.0,1.9903,0.0,0.0,0.0,0.0,0.0,0.0,0.0,0.0,0.0,0.0,2.0199,2.2256,2.358,2.4107,0.0,0.0,0.0,0.0,2.5668,1.7771,1.665,1.5722,1.2632,1.4243,1.5959,1.6151,0.0,0.0,1.8512,1.3888,0.9578,0.7127,0.8579,0.929,0.706,0.7255,0.6942,0.4896,0.6305,0.6587,0.3545,0.4264,0.5171,3.1771,0.0,0.0,0.0,0.0,3.5482,3.6748,3.8193,3.908,3.9434,3.9381,3.9338,0.0,0.0,0.0,0.0,0.0,0.0,3.8043,3.7372,3.755,3.7443,3.7032,3.7386,3.7664,3.7888,3.769,3.7594,3.7662,3.7338,3.6724,3.59,0.0,0.0,0.0,0.0,3.8303,3.9098,3.9357,3.9396,3.9289,3.9553,3.9857,4.0176,3.9418,3.9194,3.956,3.8017,3.6285,3.4457,3.353,0.0,0.0,0.0,0.0,0.0,0.0,0.0,0.0,0.0,0.0,0.0,0.0,0.0,0.0,0.0,0.0,0.0,0.0,0.0,2.0697,2.0616,1.9584,0.0,0.0,0.0,0.0,0.0,0.0,0.0,0.0,0.0,1.7606,2.1301,2.2386,0.0,0.0,1.6388,1.6413,1.9235,2.1172,2.0488,2.0054,0.0,2.0202,1.8245,1.6428,1.5719,1.5927,1.5725,1.4374,1.3181,1.1755,0.9779,0.9137,0.8559,0.7615,0.7813,0.7923,0.7371,0.7166,0.6808,0.5609,0.5539,0.5461,3.0607,3.081,3.1433,3.209,3.2795,3.4332,3.5894,3.7324,3.8539,3.914,3.9242,3.9015,3.818,3.6928,3.6713,0.0,0.0,0.0,3.7846,3.7577,3.7374,3.7147,3.6881,3.7299,3.7473,3.743,3.7422,3.7508,3.7619,3.6509,3.5752,3.5397,0.0,0.0,3.6486,3.7292,3.8074,3.8647,3.887,3.8892,3.8645,3.9224,3.9836,4.0515,3.9457,3.8918,3.9209,3.8012,3.651,3.4963,3.403,3.2771,0.0,0.0,0.0,0.0,0.0,0.0,0.0,0.0,0.0,0.0,0.0,2.7385,2.5838,0.0,0.0,0.0,2.285,2.1549,2.0035,1.9533,0.0,0.0,0.0,0.0,0.0,0.0,0.0,0.9005,1.0627,1.2417,1.3472,1.8088,2.0759,1.9385,1.8135,1.7239,1.6817,0.0,2.182,2.1371,2.0515,2.0194,2.0655,1.9038,1.7519,1.7147,1.6237,1.5039,1.3459,1.2876,1.1941,1.0369,0.8759,0.7479,0.6927,0.6811,0.6919,0.7482,0.7046,0.6455,0.6023,0.5737,0.5346,2.9665,2.8937,3.0164,3.041,3.0224,3.3078,3.4619,3.5331,3.7845,3.8695,3.8405,3.8688,3.7976,3.6413,3.6474,0.0,3.7339,3.7809,3.8,3.7949,3.7632,3.7374,3.7154,3.729,3.7317,3.7237,3.6911,3.6956,3.7239,3.5365,3.4781,3.5464,3.6207,3.658,3.6556,3.7256,3.7923,3.8395,3.8651,3.883,3.8921,3.9479,4.0276,4.1139,4.0003,3.9295,3.8957,3.7472,3.6495,3.6056,3.4106,3.2819,3.2376,0.0,0.0,0.0,0.0,0.0,0.0,0.0,0.0,0.0,0.0,0.0,0.0,0.0,0.0,0.0,2.2546,0.0,2.0734,1.8325,0.0,0.0,0.0,1.7592,1.9874,1.9054,1.731,1.4768,0.0,0.0,0.9522,1.4134,1.9175,2.4185,2.5271,2.4179,2.0136,2.3657,2.5471,2.0809,1.9717,1.8815,1.8164,1.8157,1.8714,1.894,1.8053,1.6156,1.4312,1.2383,1.0586,0.9075,0.7402,0.604,0.571,0.4814,0.4365,0.5815,0.6044,0.591,0.5389,0.5138,0.4882,2.932,2.9225,2.9188,2.9164,2.9379,3.1352,3.2845,3.4158,3.6245,3.7248,3.7352,3.7519,3.6848,3.5505,3.58,3.6215,3.6821,3.7395,3.7613,3.7522,3.7299,3.7347,3.7585,3.6638,3.6378,3.6688,3.6009,3.5963,3.6578,3.5727,3.5282,3.5315,3.5018,3.4839,3.4918,3.5852,3.6566,3.6996,3.799,3.9193,4.0542,4.027,4.0412,4.1088,3.9919,3.9082,3.8794,3.7751,3.6676,3.5552,3.445,3.3366,3.2288,3.0444,0.0,0.0,0.0,0.0,0.0,0.0,0.0,0.0,0.0,2.6771,2.4564,0.0,2.2919,0.0,2.366,2.5261,2.5859,2.5413,0.0,0.0,2.2017,2.0456,1.9678,1.9799,1.8354,1.4269,1.3942,1.4483,1.5599,1.7553,2.0814,2.5656,2.153,1.7802,1.7577,2.0891,2.2919,2.1682,2.3203,2.426,2.2005,2.0084,1.8577,1.7818,1.6509,1.4872,1.2964,1.1185,0.9449,0.7665,0.6019,0.4925,0.4482,0.381,0.3473,0.3808,0.4369,0.4923,0.4679,0.4629,0.4454,2.8498,2.8335,2.7746,2.7592,2.7936,2.9941,3.1574,3.3136,3.5118,3.6269,3.6845,3.6896,3.6472,3.5728,3.5746,3.6271,3.7206,3.718,3.7403,3.7813,3.7619,3.7474,3.7317,3.6637,3.618,3.5971,3.5318,3.5224,3.5685,3.5442,3.5358,3.5579,3.534,3.5105,3.4827,3.4662,3.4827,3.5386,3.7171,3.9079,4.0962,4.0581,4.0381,4.0414,3.9351,3.8414,3.779,3.7115,3.6183,3.494,3.4381,3.348,3.2166,3.0519,2.9563,0.0,0.0,0.0,0.0,0.0,0.0,0.0,0.0,0.0,0.0,0.0,2.3745,2.2685,2.4506,2.5572,2.5177,2.5675,2.5953,2.5828,2.5096,2.4618,2.4634,2.4136,2.2287,1.8535,1.8563,1.9038,1.9428,2.0649,2.2502,2.5336,2.207,1.9887,2.117,2.2868,2.3659,2.3281,2.4572,2.4729,2.2312,2.024,1.8289,1.6922,1.5584,1.4087,1.2383,1.0833,0.9226,0.7312,0.5678,0.4369,0.4033,0.3138,0.2578,0.2578,0.3139,0.3699,0.3808,0.389,0.3632,2.7592,2.7128,2.6418,2.6194,2.6479,2.8595,3.0431,3.1983,3.3781,3.5208,3.6158,3.6249,3.6166,3.5995,3.5758,3.6387,3.7653,3.6963,3.7171,3.8192,3.8011,3.7574,3.6928,3.6852,3.6299,3.5395,3.4932,3.4789,3.4984,3.4885,3.5118,3.5684,3.5968,3.5761,3.5026,3.3756,3.3501,3.4374,3.6741,3.8901,4.0819,4.0429,3.9967,3.9495,3.8586,3.7642,3.6661,3.615,3.5385,3.4447,3.4027,3.3325,3.2249,3.0882,2.9883,0.0,2.8399,0.0,0.0,0.0,0.0,0.0,0.0,0.0,0.0,2.5855,2.5233,2.4461,2.517,2.4872,2.2957,2.39,2.5511,2.7824,2.8022,2.8811,3.0707,2.9098,2.6652,2.3916,2.3185,2.2426,2.142,2.2828,2.3827,2.3872,2.3746,2.3863,2.565,2.5324,2.4923,2.4794,2.3817,2.2029,2.0046,1.8775,1.7661,1.6238,1.4901,1.3623,1.2186,1.0679,0.9208,0.7695,0.5877,0.4477,0.4142,0.2913,0.2019,0.1907,0.2356,0.2805,0.2914,0.3135,0.2912,2.7531,2.7333,2.6706,2.6486,2.6638,2.6751,2.8131,3.031,3.0991,3.2346,3.3991,3.4345,3.4423,3.4298,3.4681,3.5326,3.6137,3.6127,3.6568,3.7259,3.7123,3.7283,3.7537,3.662,3.6079,3.5856,3.5035,3.4857,3.5282,3.4824,3.4627,3.4681,3.4366,3.368,3.2783,0.0,0.0,0.0,3.8345,3.9852,4.0739,3.9713,3.8927,3.8663,3.7914,0.0,3.6615,3.5993,3.5449,3.5008,3.3837,0.0,0.0,0.0,0.0,0.0,0.0,0.0,0.0,0.0,0.0,0.0,2.6048,2.543,2.6211,2.4964,2.4494,2.5399,2.6041,2.6976,2.8294,2.9668,3.0712,3.1184,3.1192,3.0932,3.0078,2.8129,2.6048,2.3916,2.2994,2.2123,2.1208,2.2232,2.3011,2.2976,2.2802,2.2498,2.2283,2.2689,2.2553,2.2014,2.0726,1.9246,1.8245,1.6807,1.5682,1.4637,1.3836,1.2651,1.1354,1.0202,0.914,0.7784,0.6024,0.481,0.4697,0.3585,0.2468,0.2132,0.2244,0.2244,0.2131,0.2802,0.3126,2.7302,0.0,2.6569,2.6429,0.0,2.6286,2.7356,2.9269,2.9806,3.1325,3.3452,3.386,3.3933,3.3875,3.3917,3.4698,3.5995,3.5283,3.5756,3.7151,3.6904,3.675,3.6818,3.6556,3.6026,3.5364,3.4758,3.4513,3.4535,3.4279,3.428,3.459,3.4577,3.4535,3.4468,3.618,3.7496,3.824,3.9198,4.019,4.1188,4.0443,3.9631,3.8842,0.0,0.0,0.0,0.0,0.0,0.0,0.0,0.0,0.0,0.0,0.0,3.0532,2.9744,2.9294,2.9213,2.8751,2.8315,2.7894,2.6888,2.624,2.6029,2.586,2.5956,2.622,2.6768,2.7325,2.7709,2.8993,2.9538,2.9109,2.9164,2.8836,2.7731,2.5839,2.3966,2.224,2.1054,2.0296,1.9709,2.0348,2.0957,2.1147,2.0901,2.0327,1.9789,2.0421,2.0817,2.0332,1.9262,1.8121,1.6942,1.5816,1.4647,1.3803,1.2956,1.2093,1.1101,1.0139,0.9258,0.8152,0.6482,0.5144,0.4808,0.3698,0.2693,0.2468,0.2356,0.2132,0.1906,0.2116,0.2099,2.7021,2.6885,2.6302,2.6143,2.6211,2.6217,2.7179,2.8711,0.0,0.0,0.0,3.3532,3.3713,3.3638,3.3211,3.4098,3.5691,3.4377,3.4837,3.6737,3.6522,3.6163,3.5701,3.6219,3.5796,3.4611,3.4284,3.3949,3.3591,3.3607,3.3984,3.4593,3.5111,3.5933,3.7141,3.877,3.9628,3.9748,3.978,4.0381,4.1534,4.1019,4.0251,3.9143,3.8253,3.7365,3.643,3.577,3.5311,3.4984,3.4497,3.3726,3.2671,3.1843,3.1047,3.0294,2.9419,2.8905,2.8905,2.8811,2.8527,2.8099,2.7649,2.7039,2.6001,2.7107,2.748,2.6494,2.6849,2.651,2.505,2.5774,2.6038,2.5011,2.5169,2.5142,2.451,2.2779,2.0923,1.9775,1.8628,1.7943,1.7803,1.8267,1.8633,1.8927,1.8903,1.8483,1.786,1.8599,1.9242,1.8658,1.7901,1.6977,1.5805,1.4897,1.406,1.2876,1.2295,1.1778,1.1126,1.0363,0.9482,0.8595,0.6816,0.559,0.5033,0.3921,0.2918,0.2693,0.2693,0.2356,0.1792,0.1214,0.0872,2.6397,2.6004,2.5856,2.5644,2.5228,2.5781,2.7124,2.8983,3.0659,3.1417,3.1481,3.2263,3.2553,3.2367,3.2525,3.2927,3.3525,3.3439,3.3748,3.443,3.5108,3.5321,3.5144,3.5074,3.4757,3.4201,3.3713,3.3403,3.3187,3.3293,3.3555,3.3933,3.456,3.5926,3.779,3.8262,3.8916,3.9828,4.0323,4.0607,4.0822,3.9597,3.8788,3.8381,3.7674,3.6995,3.6446,3.577,3.5264,3.4919,3.3662,3.3042,3.3113,3.1924,3.1237,3.1461,3.0545,2.9964,2.9834,2.8689,2.7379,2.6368,2.6218,2.6501,2.7211,2.7175,2.6683,2.5521,2.5176,2.4246,2.2712,2.2649,2.2447,2.1728,2.1587,2.1173,2.0311,1.904,1.781,1.6797,1.6531,1.6201,1.5863,1.6599,1.7209,1.7237,1.7379,1.7207,1.681,1.684,1.7023,1.6613,1.5651,1.4686,1.4082,1.3323,1.271,1.1995,1.1751,1.1437,1.0911,1.0143,0.9482,0.8706,0.7152,0.6038,0.5483,0.448,0.3589,0.2918,0.3029,0.2803,0.1457,0.0986,0.0754,2.6591,2.6225,2.6062,2.6172,2.6417,2.743,2.8648,3.0116,3.1036,3.1346,3.111,3.1078,3.1247,3.1495,3.1264,3.1722,3.2673,3.2405,3.2874,3.3831,3.3947,3.4202,3.4496,3.435,3.4184,3.3848,3.3539,3.3224,3.3005,3.3043,3.3203,3.3555,3.4415,3.5779,3.7306,3.7778,3.8368,3.9174,4.0239,4.0691,4.0558,4.0061,3.9647,3.9315,3.8502,3.7706,3.704,3.6477,3.6046,3.5917,3.4824,3.4129,3.3747,3.2823,3.1991,3.15,3.057,2.9797,2.938,2.7554,2.6345,2.6063,2.5622,2.5624,2.6253,2.5905,2.5073,2.3711,2.3143,2.2427,2.0965,2.0205,1.9592,1.8997,1.8583,1.8022,1.7295,1.648,1.5642,1.4926,1.4322,1.3987,1.399,1.4383,1.4801,1.5208,1.5651,1.598,1.5859,1.5816,1.5843,1.5816,1.5065,1.4194,1.3325,1.2496,1.1912,1.1354,1.0919,1.0795,1.055,1.0033,0.9258,0.893,0.7376,0.6151,0.5817,0.4702,0.3811,0.3365,0.2917,0.2355,0.1229,0.0656,0.0107,2.6727,2.6479,2.6313,2.6798,2.7753,2.8791,2.982,3.0716,3.0913,3.0985,3.0787,3.0331,3.0318,3.0665,3.023,3.0693,3.1677,3.1485,3.208,3.3156,3.3076,3.3282,3.3848,3.3848,3.3745,3.3591,3.3293,3.3058,3.2827,3.2788,3.2989,3.3398,3.4333,3.5386,3.6533,3.7123,3.7772,3.8479,3.9729,4.0422,4.0471,4.0637,4.0597,4.0221,3.9329,3.8439,3.7663,3.715,3.6769,3.6567,3.5828,3.5059,3.4129,3.3394,3.2434,3.1177,3.0303,2.9331,2.8245,2.649,2.5527,2.5852,2.52,2.4861,2.4796,2.4384,2.3565,2.2321,2.1708,2.0841,1.9704,1.8427,1.7483,1.6936,1.6286,1.5784,1.5208,1.4546,1.3925,1.3464,1.2602,1.2265,1.2449,1.2394,1.2849,1.3794,1.4352,1.483,1.4988,1.493,1.5018,1.4866,1.4562,1.3827,1.288,1.1973,1.1196,1.0721,1.0339,1.0321,1.0233,0.9636,0.901,0.8913,0.749,0.6154,0.5817,0.4815,0.3811,0.3253,0.2805,0.2353,0.167,0.0871,0.0212,2.6456,2.6324,2.6434,2.7208,2.8051,2.8621,2.9274,2.9921,3.0129,3.0209,3.02,3.0433,3.0213,2.989,2.9855,3.0003,3.0395,3.0821,3.1292,3.1799,3.2492,3.3018,3.3398,3.3503,3.3555,3.345,3.2973,3.2703,3.2648,3.2523,3.2796,3.3435,3.4002,3.4752,3.5677,3.62,3.6936,3.7857,3.8786,3.9684,4.0514,4.0498,4.0368,4.022,3.9312,3.8472,3.7743,3.7471,3.6956,3.6182,3.5533,3.4708,3.3733,3.2756,3.1783,3.0788,2.9907,2.8693,2.6914,2.5801,2.52,2.5031,2.47,2.4368,2.4003,2.3144,2.2539,2.2148,2.1006,1.9754,1.8619,1.7505,1.6662,1.5994,1.5089,1.4322,1.4045,1.2931,1.2223,1.2324,1.187,1.1193,1.1339,1.1614,1.2309,1.3374,1.381,1.4129,1.4171,1.4445,1.4369,1.3767,1.3177,1.2734,1.2058,1.1373,1.0578,0.9871,0.9979,1.0039,0.9972,0.95,0.8981,0.8682,0.7473,0.6137,0.526,0.4369,0.3921,0.3139,0.2801,0.2794,0.253,0.1945,0.1164,2.5516,2.5355,2.5378,2.5995,2.7132,2.8118,2.8712,2.9181,2.9385,2.9416,2.9386,2.9564,2.9766,2.9824,2.9539,2.9651,3.0111,3.0568,3.1014,3.148,3.1879,3.2398,3.2989,3.2973,3.3081,3.3203,3.2812,3.2578,3.2578,3.2523,3.285,3.3435,3.3781,3.4399,3.5299,3.5705,3.6448,3.7568,3.8391,3.9303,4.0184,4.0504,4.0402,4.007,3.9401,3.8678,3.7918,3.7534,3.7018,3.628,3.5406,3.4617,3.3888,3.2943,3.1909,3.0761,2.925,2.7891,2.6599,2.5611,2.4946,2.47,2.4196,2.3841,2.356,2.258,2.2041,2.205,2.0808,1.9729,1.9255,1.8056,1.7037,1.6459,1.5324,1.443,1.414,1.3535,1.2908,1.2354,1.187,1.1401,1.1165,1.1335,1.1957,1.2771,1.3304,1.3583,1.3968,1.4062,1.3874,1.3448,1.2841,1.2282,1.1831,1.0923,1.0222,0.9868,0.9741,0.9764,0.9796,0.8927,0.8317,0.8656,0.7318,0.622,0.5817,0.4814,0.4145,0.3361,0.2802,0.2792,0.2855,0.2589,0.2226,2.5072,2.4904,2.4848,2.5461,2.6557,2.7612,2.8238,2.8426,2.866,2.8673,2.8557,2.8705,2.9026,2.9484,2.9279,2.9463,2.9988,3.0401,3.0851,3.1364,3.1495,3.1951,3.2718,3.2773,3.2881,3.3043,3.2827,3.2648,3.2648,3.2648,3.3067,3.3704,3.3998,3.4477,3.5355,3.5786,3.6542,3.759,3.8345,3.9193,4.0135,4.0453,4.037,3.9969,3.9401,3.8701,3.7927,3.761,3.7033,3.6146,3.5294,3.4516,3.3972,3.317,3.2055,3.0672,2.8937,2.7719,2.7039,2.576,2.5009,2.4781,2.4018,2.3493,2.3299,2.2403,2.1872,2.2069,2.0997,2.0184,1.9911,1.8796,1.787,1.749,1.6177,1.535,1.5185,1.4664,1.3881,1.3141,1.2526,1.1966,1.161,1.1703,1.2039,1.272,1.3067,1.3293,1.3635,1.3534,1.3265,1.3005,1.2316,1.1822,1.1704,1.0848,1.0104,0.9807,0.9673,0.9631,0.973,0.8516,0.7837,0.8288,0.6928,0.6065,0.5802,0.515,0.4458,0.3898,0.3449,0.2988,0.3043,0.2996,0.2953,2.5394,2.5372,2.5515,2.6007,2.6875,2.7347,2.7603,2.7697,2.8022,2.7906,2.7708,2.8014,2.8237,2.8498,2.9022,2.9387,2.9713,3.0266,3.0747,3.1087,3.1452,3.1951,3.2453,3.2866,3.315,3.3203,3.2989,3.2804,3.2695,3.2788,3.3442,3.451,3.4675,3.5194,3.5795,3.6571,3.7431,3.8061,3.8721,3.9518,4.0329,4.0353,4.0171,3.9782,3.9152,3.8567,3.7976,3.7607,3.6831,3.5533,3.5085,3.4549,3.3913,3.3142,3.2009,3.052,2.9221,2.8486,2.8151,2.6523,2.5456,2.5277,2.4236,2.3493,2.3309,2.2325,2.1882,2.2344,2.1445,2.0727,2.0283,1.9446,1.8711,1.8172,1.7512,1.7072,1.7049,1.5836,1.5084,1.466,1.343,1.2562,1.2427,1.2385,1.268,1.3042,1.3193,1.3041,1.2909,1.2837,1.2496,1.2127,1.162,1.1207,1.1335,1.0747,1.0054,0.9734,0.9574,0.9465,0.9057,0.8615,0.834,0.8022,0.7247,0.6506,0.6017,0.5349,0.4755,0.4292,0.3834,0.3584,0.3422,0.3367,0.3326,2.474,2.4814,2.5211,2.5675,2.6142,2.6663,2.703,2.7207,2.7331,2.753,2.7762,2.8013,2.8197,2.8352,2.8881,2.9352,2.9665,3.0144,3.0613,3.097,3.1146,3.161,3.2247,3.2508,3.2866,3.3096,3.3058,3.317,3.3372,3.3246,3.364,3.433,3.439,3.4751,3.5529,3.6125,3.7053,3.8285,3.8787,3.9457,4.0368,4.0138,3.9816,3.9575,3.9206,3.8805,3.8278,3.7654,3.7064,3.6368,3.5394,3.454,3.39,3.2987,3.1854,3.0509,2.9845,2.9145,2.8244,2.6869,2.5732,2.5263,2.4082,2.3154,2.2706,2.1891,2.1356,2.1553,2.1365,2.0916,2.0934,2.0382,1.9911,1.9463,1.8542,1.7845,1.761,1.6903,1.5992,1.4905,1.3701,1.2766,1.2786,1.2916,1.3254,1.3301,1.3386,1.3467,1.3273,1.2951,1.248,1.2084,1.1471,1.0972,1.0888,1.0541,1.0021,0.9705,0.949,0.9257,0.89,0.8367,0.7953,0.7837,0.7248,0.6711,0.6084,0.5881,0.52,0.4962,0.4616,0.4161,0.3887,0.3945,0.3705,2.4683,2.5004,2.5252,2.5565,2.5865,2.6337,2.6709,2.6956,2.7092,2.7335,2.7669,2.7868,2.8066,2.8314,2.8716,2.9226,2.9602,3.0036,3.0563,3.113,3.1132,3.1661,3.2597,3.2598,3.2905,3.3417,3.3244,3.3347,3.3568,3.3477,3.3831,3.4548,3.4358,3.4762,3.5703,3.6202,3.7167,3.8405,3.8925,3.953,4.0237,3.9918,3.9556,3.9329,3.9152,3.8843,3.8335,3.7725,3.7233,3.6816,3.5694,3.4578,3.3718,3.3033,3.2018,3.0801,3.0335,2.976,2.8667,2.744,2.6469,2.5777,2.4381,2.3301,2.2735,2.1802,2.1374,2.1293,2.1114,2.1015,2.0934,2.0744,2.0473,2.011,1.9196,1.855,1.8288,1.7618,1.6661,1.5447,1.466,1.4032,1.368,1.4113,1.4243,1.4046,1.4011,1.3926,1.357,1.3017,1.239,1.2054,1.1405,1.0896,1.0668,1.0375,1.0067,0.9862,0.988,0.9546,0.8877,0.8216,0.7753,0.7528,0.718,0.6749,0.6338,0.6255,0.6035,0.58,0.5472,0.5032,0.4769,0.4623,0.4389,2.5511,2.5861,2.5836,2.6013,2.6358,2.6477,2.6671,2.7011,2.7214,2.7335,2.7403,2.7656,2.7921,2.8145,2.8522,2.8972,2.9602,2.9974,3.0553,3.1311,3.1294,3.2108,3.3469,3.2931,3.3208,3.4191,3.3678,3.3319,3.3323,3.3441,3.3905,3.4638,3.4796,3.5315,3.6643,3.6943,3.7646,3.8569,3.9206,3.9679,4.0037,3.9833,3.9504,3.9206,3.8952,3.8639,3.8221,3.7669,3.7259,3.6909,3.5952,3.4758,3.3705,3.3175,3.2447,3.13,3.0789,3.0338,2.9582,2.8533,2.7561,2.679,2.5409,2.4067,2.331,2.2353,2.1553,2.1392,2.1024,2.0654,2.0473,2.0382,2.0201,1.9936,1.9662,1.9296,1.8827,1.8164,1.7318,1.6421,1.6016,1.6176,1.6147,1.5741,1.5485,1.5159,1.4717,1.4134,1.3583,1.3057,1.234,1.181,1.1382,1.1019,1.0631,1.0354,1.0125,1.0062,1.015,1.0021,0.9063,0.8338,0.7955,0.7692,0.7294,0.6769,0.6869,0.6782,0.6771,0.654,0.621,0.5877,0.5625,0.5381,0.5168,2.607,2.644,2.6414,2.6564,2.6794,2.6794,2.7011,2.7214,2.7281,2.7323,2.7469,2.7723,2.7973,2.8314,2.8624,2.9085,2.9602,2.9927,3.047,3.095,3.0909,3.1515,3.2455,3.2517,3.2851,3.3587,3.3878,3.3988,3.3947,3.3689,3.3905,3.4558,3.4426,3.5053,3.6365,3.6763,3.7571,3.8963,3.9368,3.959,3.9781,3.9625,3.9415,3.9061,3.8914,3.8528,3.7976,3.7401,3.7201,3.7499,3.6431,3.535,3.4623,3.4004,3.3185,3.2293,3.1821,3.1279,3.0386,2.915,2.8122,2.7184,2.5706,2.4469,2.3573,2.2441,2.1741,2.1562,2.1186,2.0817,2.0736,2.0464,2.0218,2.0201,1.9928,1.9754,1.9379,1.8635,1.7885,1.7261,1.6833,1.6474,1.6262,1.6182,1.611,1.5774,1.5209,1.47,1.4416,1.3754,1.3163,1.2565,1.198,1.1301,1.0861,1.0671,1.0597,1.0408,1.0519,1.0337,0.9465,0.8743,0.8271,0.7785,0.7292,0.7196,0.7295,0.7286,0.7274,0.725,0.692,0.6584,0.635,0.6139,0.5839,2.6756,2.7227,2.742,2.7449,2.7468,2.7569,2.7598,2.7642,2.7616,2.7683,2.7775,2.8093,2.8491,2.8874,2.9313,2.9739,3.0142,3.0378,3.0618,3.0865,3.0821,3.156,3.2892,3.3203,3.3161,3.3297,3.3719,3.3925,3.3994,3.3689,3.3762,3.4101,3.4262,3.4985,3.6296,3.6918,3.7903,3.9176,3.9432,3.9537,3.9625,3.959,3.9458,3.9353,3.9007,3.882,3.8681,3.7834,3.7219,3.7047,3.6109,3.5296,3.4753,3.4297,3.3747,3.2777,3.2538,3.2098,3.0992,2.9927,2.887,2.7754,2.6395,2.5073,2.3991,2.2872,2.2176,2.182,2.1509,2.1066,2.0779,2.0429,2.0163,2.0036,1.9853,1.9745,1.9563,1.9004,1.8357,1.8024,1.7501,1.7184,1.7023,1.6846,1.6714,1.6337,1.5871,1.5303,1.5093,1.4439,1.3848,1.3141,1.2462,1.179,1.1124,1.0975,1.0959,1.0945,1.0891,1.0528,0.9807,0.9207,0.8685,0.7892,0.7302,0.7415,0.7513,0.7594,0.7578,0.7543,0.754,0.7341,0.7042,0.6839,0.6639,2.7629,2.8199,2.8758,2.8651,2.8279,2.853,2.8491,2.8212,2.8238,2.8198,2.8265,2.8919,2.9402,2.991,3.0342,3.0788,3.1048,3.1037,3.1101,3.1204,3.1338,3.2333,3.4013,3.4534,3.4227,3.3414,3.3435,3.3414,3.3502,3.3604,3.3566,3.381,3.4663,3.5489,3.6413,3.731,3.8298,3.9428,3.9498,3.9554,3.9742,3.9637,3.9707,3.9939,3.9352,3.9243,3.973,3.8668,3.7341,3.6298,3.5495,3.4791,3.4339,3.4461,3.3779,3.2834,3.2999,3.2345,3.143,3.0565,2.9628,2.8339,2.7108,2.6101,2.4578,2.3474,2.2618,2.2115,2.1789,2.1239,2.0672,2.0231,1.9986,1.9645,1.9671,1.9579,1.932,1.9244,1.9015,1.8636,1.8342,1.8115,1.7956,1.7876,1.7568,1.7103,1.6579,1.606,1.5545,1.4937,1.4268,1.3613,1.3136,1.2428,1.1781,1.1611,1.1601,1.1268,1.1182,1.0884,1.0247,0.9606,0.8825,0.8031,0.7733,0.7839,0.7743,0.7839,0.7839,0.7839,0.7839,0.7842,0.765,0.7456,0.7488,2.8557,2.8866,2.9482,2.9642,2.9373,2.9105,2.9,2.9119,2.9118,2.8978,2.9131,3.0124,3.046,3.0415,3.0928,3.1461,3.1752,3.1762,3.176,3.1795,3.1915,3.227,3.3345,3.4607,3.4597,3.3546,3.3767,3.4105,3.4121,3.4089,3.4197,3.4404,3.531,3.5921,3.6458,3.7392,3.852,3.9638,3.9363,3.9553,4.0109,4.0034,3.9913,3.9877,3.9682,3.968,3.9978,3.8967,3.7892,3.6896,3.5795,3.5505,3.5741,3.464,3.3998,3.4245,3.3143,3.2237,3.1658,3.0786,2.9543,2.8207,2.7256,2.599,2.4581,2.3484,2.2794,2.234,2.1907,2.1573,2.1208,2.0509,1.9926,1.9453,1.9604,1.9787,1.9775,1.9678,1.9405,1.9138,1.8737,1.8399,1.8157,1.7964,1.7728,1.7415,1.7014,1.6552,1.6124,1.5719,1.5127,1.4598,1.4027,1.316,1.261,1.2359,1.2151,1.1682,1.1526,1.1502,1.0773,1.0029,0.9061,0.8134,0.8329,0.8528,0.8137,0.7939,0.8038,0.8137,0.8038,0.7942,0.7985,0.7908,0.8073,2.8679,2.8905,2.947,2.9578,2.9376,2.9174,2.9214,2.9326,2.9467,2.9481,2.9666,3.0586,3.1019,3.0962,3.1536,3.1869,3.2159,3.2132,3.1914,3.1812,3.2465,3.2676,3.2915,3.4076,3.4345,3.377,3.4045,3.4407,3.4731,3.4762,3.4911,3.531,3.6072,3.6659,3.7041,3.7908,3.8974,3.9853,3.9544,3.9566,4.0315,4.031,4.0301,4.032,4.0279,4.0221,3.9976,3.9501,3.8569,3.7228,3.6153,3.5691,3.5884,3.484,3.441,3.5089,3.375,3.2759,3.1959,3.1052,2.9881,2.8547,2.7522,2.6321,2.5093,2.4135,2.3545,2.2498,2.2483,2.2231,2.156,2.0662,2.0,1.975,1.9701,1.9791,1.9808,1.9517,1.9257,1.8979,1.8678,1.8373,1.8054,1.7918,1.7949,1.7819,1.7527,1.7197,1.6959,1.647,1.5965,1.5332,1.475,1.3975,1.3386,1.3036,1.263,1.2169,1.2087,1.1968,1.1244,1.0454,0.9673,0.9031,0.9122,0.892,0.8528,0.8237,0.8333,0.8333,0.8233,0.8251,0.8289,0.8397,0.8463,2.8525,2.8736,2.9134,2.9133,2.9059,2.9318,2.9539,2.9483,2.9813,2.9902,3.0131,3.0888,3.1421,3.1569,3.2057,3.2328,3.2193,3.2272,3.202,3.2135,3.2616,3.2977,3.2607,3.363,3.4077,3.4046,3.4125,3.4628,3.5172,3.5449,3.5641,3.6117,3.6938,3.7438,3.7838,3.8764,3.9736,4.0244,3.9996,4.0095,4.0729,4.0823,4.0885,4.1049,4.1016,4.0505,4.0065,3.9831,3.9173,3.7068,3.6335,3.5744,3.5168,3.5119,3.501,3.4855,3.4349,3.3405,3.2399,3.1551,3.0519,2.907,2.8107,2.7059,2.5808,2.5169,2.4313,2.3012,2.3374,2.2921,2.1772,2.0746,2.032,2.0066,1.9784,1.9541,1.9447,1.9161,1.8874,1.8401,1.8609,1.8293,1.8055,1.7998,1.8245,1.7971,1.7785,1.7473,1.7251,1.68,1.6389,1.5979,1.5326,1.4698,1.4155,1.3716,1.319,1.2625,1.2539,1.2316,1.1749,1.0993,1.0384,0.9924,0.9916,0.9414,0.8726,0.8531,0.873,0.8531,0.8432,0.8546,0.8681,0.8754,0.8866,2.9279,2.9333,2.9957,3.0323,3.0466,3.0201,3.0403,3.0907,3.1017,3.0899,3.1083,3.2115,3.2338,3.1894,3.2285,3.2629,3.2763,3.2677,3.2569,3.2713,3.2746,3.2858,3.2796,3.3701,3.4179,3.4281,3.4265,3.4944,3.5843,3.62,3.6413,3.6901,3.7591,3.8056,3.8089,3.9237,4.0298,4.0859,4.0793,4.117,4.1716,4.1824,4.1749,4.1776,4.1544,4.061,3.962,3.9741,3.9184,3.7827,3.6899,3.6225,3.5612,3.4834,3.4843,3.5217,3.427,3.3225,3.2503,3.1744,3.0761,2.9641,2.8556,2.7731,2.7238,2.5746,2.4844,2.403,2.3758,2.3222,2.1873,2.1397,2.0906,2.0359,1.9819,1.971,1.9921,1.9826,1.9475,1.9285,1.8996,1.8857,1.8419,1.8356,1.8338,1.8142,1.7968,1.7669,1.7392,1.7215,1.6791,1.6484,1.5906,1.5218,1.4648,1.4173,1.3514,1.3107,1.3017,1.2835,1.2156,1.1898,1.1297,1.0996,1.0703,1.001,0.932,0.9122,0.932,0.9023,0.8733,0.8866,0.9037,0.9116,0.9354,2.9697,2.9596,3.0058,3.0378,3.0566,3.0383,3.0568,3.1076,3.1243,3.1263,3.1353,3.208,3.2184,3.1901,3.2078,3.2332,3.2631,3.2794,3.2728,3.2703,3.2854,3.2982,3.2975,3.381,3.4446,3.4778,3.5189,3.5932,3.6717,3.6996,3.7301,3.7753,3.8253,3.8498,3.8607,3.9655,4.0535,4.113,4.1312,4.1716,4.2344,4.2376,4.243,4.2171,4.1741,4.0736,4.0115,3.9695,3.9088,3.8124,3.7455,3.6677,3.5941,3.5286,3.5453,3.5754,3.4995,3.3714,3.2995,3.2093,3.1222,3.0085,2.9127,2.8397,2.781,2.6764,2.5802,2.4993,2.4525,2.4141,2.2715,2.1881,2.1445,2.108,2.0506,2.0369,2.0448,1.9861,1.943,1.943,1.9117,1.8931,1.8743,1.8691,1.8582,1.8399,1.8175,1.7978,1.7816,1.7522,1.7201,1.6812,1.6263,1.5684,1.5143,1.4556,1.3863,1.3518,1.3422,1.3132,1.2739,1.2581,1.2365,1.1885,1.1292,1.0801,1.0207,1.0109,1.001,0.9719,0.9537,0.9387,0.9357,0.9474,0.9721,2.9946,2.9727,3.0007,3.0129,3.0251,3.0326,3.0536,3.0776,3.0984,3.1205,3.1336,3.1482,3.1762,3.1829,3.1845,3.1913,3.2179,3.2555,3.254,3.2318,3.289,3.3153,3.331,3.4132,3.5047,3.5609,3.6109,3.688,3.743,3.7743,3.7831,3.8439,3.8567,3.8701,3.9297,4.0133,4.0862,4.1302,4.1765,4.2129,4.2626,4.2607,4.2676,4.2226,4.1658,4.0919,4.038,3.9823,3.917,3.8403,3.8159,3.7201,3.6296,3.5981,3.6318,3.6336,3.5507,3.4574,3.3545,3.2726,3.1854,3.0507,2.9879,2.9242,2.8508,2.7942,2.695,2.5971,2.5385,2.4996,2.3805,2.2912,2.2327,2.2034,2.1658,2.1237,2.0841,1.9783,1.9514,1.9629,1.9564,1.9421,1.9185,1.9059,1.8808,1.865,1.8411,1.8251,1.8067,1.7853,1.7596,1.7237,1.6697,1.5911,1.5264,1.4545,1.3892,1.363,1.3583,1.3376,1.3111,1.3073,1.2804,1.2418,1.1878,1.1487,1.1194,1.0998,1.0801,1.0511,1.0237,0.9975,0.9946,0.9823,1.0199,3.0068,3.0007,3.0068,3.0297,3.0673,3.0718,3.097,3.1292,3.1409,3.1409,3.1482,3.1685,3.189,3.1917,3.197,3.2068,3.2348,3.2527,3.2476,3.2388,3.2857,3.3185,3.3928,3.4715,3.5713,3.643,3.6869,3.7269,3.7716,3.7876,3.8091,3.8391,3.8544,3.875,3.9468,4.037,4.1243,4.169,4.2469,4.3148,4.3205,4.3211,4.2791,4.2113,4.1531,4.0841,4.0038,3.9747,3.9493,3.9188,3.8868,3.8194,3.7325,3.6735,3.6431,3.6225,3.5817,3.4966,3.4105,3.3449,3.2696,3.1858,3.0999,3.0553,2.9889,2.8948,2.7812,2.6806,2.5661,2.4761,2.4066,2.3505,2.3089,2.2691,2.2201,2.1734,2.1362,2.0751,2.0119,2.0142,2.0135,2.0095,1.9941,1.9636,1.9217,1.8957,1.8699,1.8511,1.8308,1.8127,1.7901,1.753,1.7029,1.6114,1.5269,1.4516,1.3887,1.3599,1.349,1.3421,1.3257,1.3413,1.3106,1.284,1.2667,1.2467,1.2175,1.1883,1.1487,1.1194,1.0829,1.056,1.0337,1.0226,1.0548,3.1116,3.1291,3.1176,3.1412,3.1796,3.1571,3.1524,3.1769,3.1769,3.1754,3.198,3.2549,3.2758,3.2771,3.3434,3.3414,3.2972,3.3089,3.2903,3.2662,3.2934,3.3505,3.4274,3.5158,3.6118,3.691,3.7456,3.7737,3.8017,3.8049,3.8221,3.8448,3.8616,3.8946,3.9803,4.0823,4.1647,4.2161,4.3149,4.3704,4.3568,4.3492,4.2867,4.2326,4.1596,4.0955,4.0359,3.9777,3.961,3.9394,3.9104,3.8605,3.8028,3.7476,3.6872,3.648,3.5978,3.5413,3.466,3.3979,3.3189,3.2575,3.1646,3.0956,3.0539,2.9648,2.8495,2.7337,2.6177,2.5042,2.456,2.424,2.3859,2.3332,2.2823,2.2316,2.1846,2.1408,2.0982,2.0671,2.0476,2.0547,2.0992,2.0533,1.9903,1.9394,1.8947,1.8798,1.8589,1.8326,1.8092,1.764,1.7145,1.6282,1.5407,1.4879,1.414,1.3829,1.3587,1.3512,1.3496,1.365,1.3641,1.3494,1.3357,1.3152,1.2958,1.2662,1.2273,1.1883,1.1409,1.1044,1.0721,1.0654,1.0955,3.2071,3.2404,3.2137,3.23,3.2707,3.2239,3.1996,3.1996,3.2053,3.2088,3.2346,3.3239,3.3645,3.3689,3.4232,3.4411,3.3681,3.3944,3.3435,3.3068,3.345,3.4046,3.4722,3.5427,3.643,3.7623,3.8254,3.8464,3.8237,3.8237,3.8351,3.8504,3.856,3.9011,3.999,4.0684,4.1714,4.2558,4.3448,4.3713,4.3552,4.3251,4.2929,4.2696,4.1851,4.1225,4.069,4.0115,3.9696,3.9481,3.9177,3.8797,3.8352,3.7962,3.7443,3.6615,3.6312,3.5831,3.5086,3.4327,3.3556,3.2932,3.2001,3.1294,3.0566,2.9909,2.891,2.7515,2.6476,2.5703,2.5266,2.4913,2.4356,2.3852,2.3278,2.2708,2.1993,2.1582,2.1404,2.1062,2.0784,2.0687,2.0923,2.1012,2.0279,1.9477,1.9105,1.8939,1.8729,1.8388,1.814,1.7638,1.7134,1.6326,1.567,1.5316,1.469,1.4312,1.3981,1.3874,1.3865,1.3883,1.3957,1.3943,1.3835,1.363,1.3539,1.3346,1.2953,1.2467,1.1883,1.1614,1.1466,1.1278,1.1355,3.2083,3.2216,3.2083,3.2083,3.2287,3.2155,3.2012,3.2083,3.2211,3.2444,3.3008,3.341,3.3956,3.4306,3.4307,3.4534,3.4419,3.4356,3.4032,3.3794,3.4387,3.5218,3.5975,3.6603,3.7367,3.8334,3.9064,3.891,3.8529,3.8383,3.8456,3.8529,3.8609,3.8874,3.9682,4.0479,4.0948,4.1976,4.3074,4.3571,4.3416,4.319,4.2726,4.2142,4.172,4.1256,4.0646,4.0176,3.9839,3.9625,3.9177,3.8723,3.8427,3.7915,3.7366,3.6836,3.6457,3.5992,3.5249,3.441,3.3725,3.3116,3.2276,3.1673,3.0781,2.976,2.8735,2.7998,2.6955,2.6294,2.581,2.5421,2.4859,2.4189,2.3644,2.269,2.1961,2.1922,2.1718,2.145,2.1065,2.0663,2.0622,2.0729,2.0655,1.983,1.9272,1.9105,1.8862,1.8536,1.8187,1.7774,1.7479,1.6676,1.6249,1.5882,1.5501,1.4965,1.4688,1.4336,1.4427,1.4521,1.4304,1.431,1.4208,1.4202,1.4112,1.3919,1.3539,1.3072,1.2612,1.2396,1.2278,1.2028,1.1841,3.3326,3.3645,3.2736,3.2604,3.2977,3.2669,3.2659,3.2952,3.3222,3.3593,3.428,3.5388,3.6103,3.6307,3.6222,3.5639,3.5352,3.5589,3.5428,3.5038,3.5652,3.6612,3.7496,3.7802,3.8222,3.8967,3.9567,3.9372,3.8934,3.8869,3.9007,3.8877,3.8796,3.9153,3.9736,4.0661,4.1699,4.2626,4.3322,4.3486,4.3355,4.3129,4.2821,4.2429,4.1785,4.1256,4.0851,4.0277,3.991,3.9696,3.9322,3.8885,3.8427,3.7991,3.761,3.6615,3.647,3.6072,3.5467,3.4564,3.3894,3.33,3.2537,3.1673,3.0769,2.9852,2.8828,2.829,2.7431,2.6764,2.6187,2.5713,2.5149,2.4459,2.3956,2.3151,2.2337,2.2177,2.2064,2.1702,2.1437,2.0956,2.0668,2.0735,2.0702,2.0125,1.9518,1.932,1.9036,1.8598,1.8248,1.7908,1.7567,1.7244,1.6981,1.6619,1.6434,1.6037,1.5678,1.5503,1.5375,1.5255,1.4936,1.479,1.4885,1.479,1.4694,1.4328,1.387,1.3516,1.3258,1.3008,1.2771,1.2556,1.2317,3.4556,3.4704,3.3481,3.3208,3.3614,3.338,3.3537,3.3975,3.4439,3.4896,3.5676,3.6933,3.7891,3.8248,3.781,3.7096,3.6204,3.7389,3.7026,3.6718,3.7093,3.8012,3.8391,3.8456,3.8796,3.9365,3.982,3.9715,3.9373,3.9259,3.9275,3.9048,3.891,3.9088,4.0057,4.113,4.2178,4.3414,4.3588,4.3492,4.3295,4.3084,4.2837,4.2445,4.1916,4.1323,4.1055,4.0539,4.0051,3.9768,3.9481,3.9031,3.8501,3.8127,3.761,3.685,3.6563,3.6152,3.548,3.4729,3.4063,3.33,3.2525,3.1484,3.0871,3.0045,2.9393,2.8746,2.8008,2.7241,2.6582,2.61,2.5402,2.4811,2.4212,2.3532,2.2929,2.2582,2.2141,2.171,2.1395,2.1212,2.0921,2.0917,2.0696,2.0245,1.9905,1.959,1.9107,1.8691,1.8272,1.8016,1.7881,1.7587,1.7209,1.7058,1.7014,1.6984,1.661,1.633,1.6072,1.5774,1.5478,1.5458,1.551,1.53,1.5177,1.4637,1.4116,1.3929,1.3639,1.3341,1.3047,1.2915,1.2864,3.5156,3.4654,3.407,3.374,3.3636,3.4105,3.4467,3.4978,3.568,3.6258,3.6814,3.7591,3.8237,3.8513,3.8632,3.8346,3.7953,3.8821,3.822,3.8064,3.8776,3.9024,3.9061,3.9161,3.9333,3.925,3.9928,4.0091,3.9822,3.9886,3.9072,3.7948,3.8983,3.8721,3.9483,4.1123,4.2477,4.3514,4.3654,4.3432,4.319,4.2961,4.265,4.2141,4.1736,4.1323,4.0867,4.0593,4.0261,3.994,3.964,3.9104,3.8649,3.8202,3.7596,3.6929,3.6549,3.6152,3.548,3.4729,3.381,3.2957,3.2176,3.1395,3.096,3.0499,2.9943,2.9382,2.8653,2.7904,2.7241,2.6648,2.5866,2.5208,2.4619,2.3957,2.332,2.2876,2.2408,2.1727,2.1403,2.1374,2.1121,2.0977,2.0694,2.0249,2.0305,1.9997,1.932,1.8863,1.8497,1.8186,1.8225,1.7912,1.7296,1.7284,1.7556,1.7323,1.694,1.6622,1.632,1.615,1.6211,1.5985,1.5976,1.5771,1.5484,1.5134,1.4769,1.4366,1.4142,1.401,1.381,1.3626,1.361,3.6232,3.5637,3.5876,3.563,3.5112,3.4936,3.5717,3.6896,3.7021,3.7454,3.8176,3.8398,3.8828,3.9306,3.9555,3.9265,3.8891,4.0045,3.94,3.9082,3.9462,3.9962,3.9884,3.9827,4.0024,4.0181,4.0713,4.0901,4.0705,4.0745,4.0165,3.9601,3.9593,4.0033,4.0655,4.1493,4.2782,4.3422,4.3595,4.3372,4.3113,4.2945,4.265,4.227,4.1736,4.1456,4.1122,4.073,4.0331,3.9996,3.9711,3.9177,3.8575,3.8202,3.7596,3.685,3.647,3.6058,3.5399,3.4647,3.381,3.2711,3.1925,3.1395,3.1229,3.0758,3.0306,2.9749,2.9106,2.8362,2.8008,2.7336,2.6607,2.5846,2.5141,2.4496,2.3906,2.3448,2.2795,2.2261,2.2008,2.1728,2.1383,2.1105,2.0727,2.0342,2.0395,2.0293,1.9709,1.9202,1.8856,1.8535,1.8453,1.8281,1.7772,1.7836,1.805,1.7666,1.7265,1.7095,1.6838,1.7141,1.711,1.678,1.6501,1.646,1.6201,1.5708,1.531,1.4933,1.4861,1.4867,1.4641,1.4367,1.4289,3.7069,3.6531,3.7343,3.7269,3.6567,3.6186,3.7008,3.8439,3.8372,3.871,3.9462,3.9386,3.9693,4.0292,4.0552,4.0155,3.9869,4.0453,4.0139,4.0073,4.0304,4.0736,4.0738,4.0762,4.0918,4.1205,4.1428,4.1453,4.1205,4.1475,4.1164,4.0664,4.0342,4.0739,4.0821,4.2206,4.3005,4.3519,4.3492,4.3372,4.3174,4.3007,4.2634,4.2318,4.1851,4.1456,4.107,4.0662,4.0331,4.0066,3.9696,3.9104,3.8575,3.8052,3.7534,3.685,3.6312,3.5992,3.5318,3.4397,3.3725,3.281,3.2113,3.1749,3.1383,3.1026,3.0589,3.0295,2.9463,2.8828,2.8571,2.7799,2.7136,2.6481,2.6011,2.5402,2.4832,2.4287,2.3526,2.2895,2.2609,2.2361,2.1845,2.1508,2.1097,2.068,2.0435,2.0412,2.0141,1.9662,1.9296,1.8989,1.8673,1.8552,1.8326,1.8275,1.8184,1.7991,1.7712,1.7551,1.7478,1.7801,1.7843,1.7435,1.7182,1.7082,1.6921,1.6523,1.6061,1.5462,1.5445,1.5434,1.5422,1.5118,1.4978,3.7557,3.7067,3.8136,3.8282,3.788,3.792,3.8557,3.9581,3.964,3.9871,4.0363,4.0304,4.0525,4.1021,4.1061,4.0641,4.0376,4.0839,4.0564,3.988,4.0552,4.0934,4.0926,4.0976,4.1305,4.1247,4.1461,4.1618,4.1584,4.1725,4.1749,4.1953,4.1651,4.1135,3.9972,4.1162,4.2561,4.3604,4.3492,4.3388,4.3399,4.3186,4.2859,4.235,4.2025,4.1728,4.1018,4.0814,4.0416,4.0066,3.9711,3.9192,3.8516,3.8214,3.7682,3.6836,3.6605,3.6193,3.5642,3.4217,3.3484,3.2982,3.2376,3.1937,3.1673,3.1229,3.0871,3.0589,2.9943,2.929,2.8724,2.8258,2.7704,2.7146,2.6764,2.628,2.5584,2.4756,2.3954,2.3363,2.3224,2.2997,2.2477,2.1879,2.1464,2.1001,2.0668,2.0377,2.0325,2.0125,1.9838,1.955,1.9256,1.8985,1.8847,1.849,1.8297,1.8126,1.8038,1.7949,1.78,1.7909,1.7851,1.7888,1.7816,1.7742,1.7661,1.7569,1.7054,1.6465,1.599,1.5925,1.5907,1.5722,1.5515,3.9004,3.8787,3.9192,3.9489,3.9718,3.9285,3.9943,4.0987,4.0788,4.0618,4.0588,4.0513,4.0558,4.0735,4.0746,4.0685,4.0569,4.0464,4.0067,3.9537,4.0293,4.0343,4.0469,4.0998,4.151,4.1906,4.2113,4.2377,4.2949,4.26,4.2706,4.2933,4.2594,4.2236,4.1914,4.2411,4.301,4.3157,4.3239,4.3387,4.3722,4.3676,4.3376,4.2783,4.2571,4.1983,4.1065,4.0898,4.0555,4.0066,3.9783,3.9337,3.8767,3.8434,3.8045,3.7231,3.6865,3.6523,3.5629,3.4564,3.381,3.324,3.2562,3.2125,3.1862,3.1496,3.1139,3.0781,3.0318,2.9658,2.929,2.8932,2.8466,2.7998,2.7474,2.6898,2.6128,2.509,2.4172,2.3758,2.3576,2.3287,2.2801,2.2421,2.1971,2.1522,2.103,2.0752,2.06,2.0603,2.0402,2.0168,1.9838,1.962,1.9307,1.897,1.8709,1.8544,1.8446,1.8152,1.8105,1.8163,1.8238,1.8318,1.8373,1.84,1.8095,1.8005,1.7921,1.7627,1.7035,1.6561,1.646,1.6125,1.5567,4.015,4.015,4.0219,4.0471,4.0841,4.0369,4.0807,4.1603,4.1249,4.0942,4.0729,4.0675,4.0838,4.0812,4.0662,4.0529,4.0496,4.0213,4.0047,3.9531,4.008,4.0596,4.0995,4.1372,4.2344,4.2825,4.2932,4.3181,4.3538,4.3519,4.3383,4.3306,4.3207,4.2896,4.2772,4.2821,4.2896,4.3007,4.3101,4.3232,4.3497,4.3548,4.3376,4.2928,4.2539,4.2082,4.1346,4.0898,4.0539,4.0121,3.9753,3.9451,3.8974,3.8743,3.8385,3.7593,3.6799,3.6401,3.5493,3.4895,3.4147,3.3569,3.281,3.2388,3.2038,3.1584,3.1318,3.096,3.0589,3.0125,2.976,2.9485,2.8943,2.8384,2.7934,2.7275,2.6795,2.5678,2.5002,2.4539,2.4146,2.3782,2.3269,2.2933,2.2619,2.2021,2.1505,2.1241,2.1094,2.1029,2.0923,2.0704,2.0451,2.0247,1.9881,1.9486,1.9238,1.9041,1.8736,1.8408,1.8396,1.8454,1.8557,1.8621,1.8565,1.8471,1.8394,1.8311,1.8297,1.8192,1.7884,1.7475,1.7218,1.6588,1.5962,4.0997,4.1047,4.1152,4.1187,4.1204,4.0998,4.1083,4.1238,4.1204,4.1064,4.0866,4.0973,4.1067,4.1371,4.0996,4.0682,4.0595,4.0043,3.9926,4.0213,4.0913,4.1481,4.2144,4.2856,4.3198,4.3539,4.3722,4.3606,4.3881,4.3704,4.3568,4.3449,4.3449,4.326,4.3062,4.3019,4.2951,4.2997,4.2978,4.3141,4.3464,4.3304,4.3279,4.3009,4.2605,4.2034,4.1377,4.0876,4.0401,4.0005,3.9677,3.9247,3.9033,3.9054,3.8361,3.7593,3.6775,3.6238,3.5751,3.5245,3.4734,3.4126,3.3194,3.2698,3.2213,3.1849,3.1496,3.1229,3.0769,3.0487,3.0125,2.9577,2.9035,2.8653,2.8279,2.7746,2.7463,2.6699,2.6034,2.551,2.5111,2.4654,2.3952,2.342,2.3229,2.2736,2.2232,2.2005,2.1787,2.1601,2.1486,2.1113,2.0907,2.0899,2.0512,2.0027,1.966,1.9489,1.8959,1.8628,1.8629,1.8731,1.8862,1.889,1.8679,1.8639,1.8639,1.8639,1.8639,1.8534,1.8429,1.8102,1.7743,1.7315,1.6834,4.1104,4.2038,4.1665,4.1478,4.1478,4.1444,4.1461,4.1461,4.1478,4.1545,4.1698,4.1336,4.1211,4.0905,4.0294,4.0146,4.018,4.0297,4.0481,4.09,4.1573,4.2122,4.2674,4.321,4.3588,4.3848,4.3981,4.3939,4.3998,4.3881,4.3704,4.3568,4.3591,4.3387,4.3399,4.3455,4.3279,4.3053,4.2986,4.3176,4.3529,4.3595,4.3634,4.3541,4.317,4.26,4.192,4.1304,4.0785,4.0097,3.991,3.9538,3.8914,3.9372,3.9391,3.8931,3.8145,3.7318,3.6633,3.635,3.587,3.4953,3.4104,3.337,3.2785,3.2225,3.1785,3.1395,3.105,3.0691,3.0318,2.9772,2.9312,2.8839,2.8466,2.7987,2.7589,2.7065,2.6408,2.5914,2.5641,2.5063,2.4365,2.4125,2.3836,2.3338,2.3038,2.2736,2.2434,2.2232,2.1996,2.1611,2.1478,2.1445,2.1115,2.0553,2.0288,1.9903,1.9351,1.8979,1.9104,1.9207,1.9177,1.9095,1.8991,1.902,1.9063,1.9042,1.8866,1.8952,1.8848,1.8615,1.8309,1.7895,1.7563,4.1784,4.2483,4.2228,4.1937,4.1764,4.2055,4.2021,4.1866,4.2021,4.2074,4.183,4.1816,4.1574,4.1325,4.1026,4.0877,4.091,4.123,4.1415,4.169,4.2173,4.2749,4.3132,4.3463,4.3826,4.4037,4.4155,4.4039,4.4073,4.3956,4.3763,4.3645,4.369,4.3695,4.3725,4.4023,4.4107,4.375,4.3411,4.3392,4.3518,4.3725,4.3877,4.4026,4.3686,4.3197,4.2564,4.1821,4.114,4.0462,4.039,3.9851,3.9121,3.9343,3.9757,3.9255,3.8741,3.7993,3.7386,3.6874,3.6436,3.5792,3.4865,3.404,3.327,3.2623,3.2186,3.1761,3.1241,3.0793,3.042,3.0057,2.9588,2.9128,2.8653,2.8186,2.7693,2.7097,2.6648,2.6219,2.5707,2.5315,2.4916,2.4786,2.4529,2.4035,2.3538,2.3238,2.2937,2.2636,2.2434,2.2047,2.2055,2.2072,2.1522,2.1019,2.0672,2.0333,1.9892,1.9663,1.9583,1.9576,1.9546,1.9494,1.9332,1.928,1.9339,1.9111,1.8949,1.9169,1.9279,1.8998,1.8844,1.8554,1.8303,4.2569,4.2775,4.2894,4.2637,4.2139,4.2738,4.2651,4.2216,4.2806,4.2501,4.1954,4.2381,4.2481,4.2286,4.2066,4.2052,4.2138,4.2325,4.2494,4.2634,4.3203,4.3677,4.3826,4.4108,4.4215,4.4219,4.433,4.4531,4.4248,4.404,4.3872,4.3711,4.4274,4.4393,4.4266,4.4965,4.5179,4.4968,4.4383,4.3977,4.3323,4.3046,4.2981,4.3276,4.3331,4.3231,4.2742,4.2225,4.1638,4.1157,4.0553,3.9946,3.9534,3.9135,3.9396,3.9547,3.9299,3.8575,3.7978,3.7465,3.703,3.6338,3.5254,3.4663,3.3994,3.2872,3.2262,3.195,3.1508,3.1074,3.0703,3.0159,2.9691,2.922,2.8839,2.8279,2.7757,2.7212,2.6917,2.6496,2.623,2.5732,2.5344,2.5118,2.4932,2.4529,2.4134,2.3737,2.3538,2.3238,2.2837,2.2535,2.2636,2.2434,2.1827,2.142,2.1121,2.0704,2.0292,2.0086,1.9887,1.9879,1.9975,1.9826,1.9575,1.9465,1.9472,1.9398,1.9398,1.9398,1.948,1.9376,1.9168,1.9056,1.893,4.1948,4.3214,4.3819,4.3939,4.3664,4.342,4.3244,4.3155,4.3815,4.3718,4.3148,4.2858,4.3012,4.3316,4.296,4.2859,4.3014,4.3406,4.3524,4.3673,4.4109,4.4376,4.4461,4.4637,4.4615,4.4716,4.4896,4.4992,4.4691,4.4315,4.4138,4.4357,4.4754,4.4772,4.5193,4.5929,4.6192,4.5979,4.5538,4.4724,4.3958,4.3513,4.335,4.3891,4.422,4.3766,4.3266,4.2689,4.1765,4.0921,4.0061,3.9802,3.9872,3.9513,3.9815,4.0364,4.0041,3.9186,3.8449,3.792,3.7691,3.6842,3.5957,3.5353,3.4512,3.3083,3.2262,3.2062,3.1697,3.1252,3.0828,3.0285,2.9828,2.9449,2.9024,2.8373,2.782,2.7441,2.7167,2.689,2.6602,2.6207,2.581,2.5509,2.5226,2.4922,2.4529,2.4233,2.4035,2.3737,2.3138,2.2937,2.3046,2.2846,2.2131,2.1725,2.142,2.1019,2.0609,2.0403,2.0189,2.0189,2.0292,2.0071,1.9945,1.9796,1.9781,1.9819,1.9834,1.9768,1.9672,1.9576,1.9576,1.9472,1.9376,4.235,4.3545,4.4707,4.4867,4.4539,4.455,4.4408,4.422,4.4846,4.4906,4.449,4.4094,4.4094,4.4454,4.4061,4.3924,4.4147,4.4509,4.4524,4.4639,4.4865,4.5128,4.5241,4.5354,4.5297,4.5365,4.5301,4.5286,4.4917,4.4732,4.462,4.4843,4.5014,4.5504,4.6139,4.6716,4.6816,4.6405,4.624,4.5652,4.474,4.4217,4.3823,4.4331,4.4269,4.3944,4.3795,4.3277,4.2782,4.1516,4.0502,4.0288,4.0377,4.0314,4.0335,4.0516,4.0252,3.9634,3.8797,3.8281,3.8174,3.738,3.6657,3.61,3.5259,3.3922,3.2709,3.2296,3.1543,3.0984,3.1093,3.0686,3.0273,2.9914,2.9435,2.8839,2.8092,2.7536,2.7167,2.689,2.6699,2.6496,2.61,2.5907,2.5616,2.5226,2.4824,2.4529,2.443,2.4242,2.3637,2.3347,2.3447,2.3046,2.2232,2.203,2.1928,2.1428,2.0925,2.0712,2.0609,2.0506,2.0506,2.0277,2.0128,2.0051,2.0051,2.0112,1.9945,1.9753,1.9761,1.9872,1.9776,1.9783,1.9783,4.2969,4.392,4.5268,4.5533,4.5099,4.5821,4.5782,4.5281,4.574,4.5903,4.5665,4.5477,4.5598,4.5546,4.558,4.5632,4.5563,4.5407,4.5373,4.5414,4.5691,4.5869,4.6129,4.6428,4.6282,4.6055,4.5981,4.5392,4.4845,4.4901,4.5059,4.5097,4.5557,4.6146,4.6763,4.7177,4.7342,4.6766,4.6469,4.637,4.5718,4.4903,4.443,4.4186,4.4106,4.3926,4.3897,4.3749,4.3603,4.2605,4.1095,4.0842,4.0742,4.077,4.0756,4.067,4.0335,3.9494,3.863,3.8242,3.8265,3.7993,3.7349,3.6558,3.5791,3.4765,3.3446,3.2421,3.1579,3.1078,3.1176,3.102,3.0709,3.0224,2.9594,2.9035,2.8279,2.762,2.7251,2.6986,2.688,2.6688,2.64,2.6197,2.5907,2.5421,2.5128,2.4833,2.4637,2.4341,2.4044,2.3746,2.3646,2.3138,2.2434,2.2333,2.2434,2.1733,2.1224,2.1121,2.1019,2.0814,2.0704,2.0585,2.042,2.0271,2.024,2.0271,1.9994,1.9952,1.9968,2.0086,2.0094,2.0094,2.0086,4.264,4.3927,4.4935,4.555,4.5923,4.6231,4.6244,4.6156,4.6244,4.6284,4.6235,4.6186,4.6087,4.5768,4.597,4.607,4.6087,4.6108,4.6118,4.6138,4.6464,4.6527,4.6714,4.7169,4.7147,4.7028,4.6851,4.6363,4.5597,4.551,4.5529,4.5438,4.5828,4.6619,4.7575,4.7816,4.7638,4.7194,4.7143,4.7176,4.6582,4.5864,4.5033,4.4838,4.4838,4.4294,4.3844,4.342,4.306,4.238,4.1629,4.1175,4.1048,4.1097,4.0972,4.0681,4.043,3.9408,3.8671,3.827,3.8239,3.785,3.7192,3.691,3.604,3.5227,3.4033,3.2934,3.2123,3.1395,3.1313,3.1182,3.0915,2.9982,2.9227,2.8801,2.8312,2.7831,2.7441,2.7357,2.7262,2.688,2.6496,2.6304,2.611,2.5723,2.5342,2.5039,2.4833,2.4538,2.4242,2.4143,2.3954,2.3546,2.3046,2.2937,2.2837,2.2131,2.153,2.1224,2.1019,2.0925,2.0806,2.0696,2.0798,2.0672,2.0641,2.0491,2.0531,2.0388,2.0395,2.0411,2.0308,2.03,2.0403]},{"header":{"parameterUnit":"m.s-1","parameterCategory":1,"la1":31.0,"la2":29.5877,"lo1":-88.7671,"lo2":-86.6584,"dy":0.0162,"dx":0.0185,"nx":115,"ny":88,"refTime":"2023-09-17T06:00:00:Z","depth":0,"parameterNumber":3,"parameterNumberName":"V-component_of_WINDS"},"data":[0.0,0.0,0.0,0.0,0.0,0.0,0.0,0.0,0.0,0.0,0.0,0.0,0.0,0.0,0.0,0.0,0.0,0.0,0.0,0.0,0.0,0.0,0.0,0.0,0.0,0.0,0.0,0.0,0.0,0.0,0.0,0.0,0.0,0.0,0.0,0.0,0.0,0.0,0.0,0.0,0.0,0.0,0.0,0.0,0.0,0.0,0.0,0.0,0.0,0.0,0.0,0.0,0.0,0.0,0.0,0.0,0.0,0.0,0.0,0.0,0.0,0.0,0.0,0.0,0.0,0.0,0.0,0.0,0.0,0.0,0.0,0.0,0.0,0.0,0.0,0.0,0.0,0.0,0.0,0.0,0.0,0.0,0.0,0.0,0.0,0.0,0.0,0.0,0.0,0.0,0.0,0.0,0.0,0.0,0.0,0.0,0.0,0.0,0.0,0.0,0.0,0.0,0.0,0.0,0.0,0.0,0.0,0.0,0.0,0.0,0.0,0.0,0.0,0.0,0.0,0.0,0.0,0.0,0.0,0.0,0.0,0.0,0.0,0.0,0.0,0.0,0.0,0.0,0.0,0.0,0.0,0.0,0.0,0.0,0.0,0.0,0.0,0.0,0.0,0.0,0.0,0.0,0.0,0.0,0.0,0.0,0.0,0.0,0.0,0.0,0.0,0.0,0.0,0.0,0.0,0.0,0.0,0.0,0.0,0.0,0.0,0.0,0.0,0.0,0.0,0.0,0.0,0.0,0.0,0.0,0.0,0.0,0.0,0.0,0.0,0.0,0.0,0.0,0.0,0.0,0.0,0.0,0.0,0.0,0.0,0.0,0.0,0.0,0.0,0.0,0.0,0.0,0.0,0.0,0.0,0.0,0.0,0.0,0.0,0.0,0.0,0.0,0.0,0.0,0.0,0.0,0.0,0.0,0.0,0.0,0.0,0.0,0.0,0.0,0.0,0.0,0.0,0.0,0.0,0.0,0.0,0.0,0.0,0.0,0.0,0.0,0.0,0.0,0.0,0.0,0.0,0.0,0.0,0.0,0.0,0.0,0.0,0.0,0.0,0.0,0.0,0.0,0.0,0.0,0.0,0.0,0.0,0.0,0.0,0.0,0.0,0.0,0.0,0.0,0.0,0.0,0.0,0.0,0.0,0.0,0.0,0.0,0.0,0.0,0.0,0.0,0.0,0.0,0.0,0.0,0.0,0.0,0.0,0.0,0.0,0.0,0.0,0.0,0.0,0.0,0.0,0.0,0.0,0.0,0.0,0.0,0.0,0.0,0.0,0.0,0.0,0.0,0.0,0.0,0.0,0.0,0.0,0.0,0.0,0.0,0.0,0.0,0.0,0.0,0.0,0.0,0.0,0.0,0.0,0.0,0.0,0.0,0.0,0.0,0.0,0.0,0.0,0.0,0.0,0.0,0.0,0.0,0.0,0.0,0.0,0.0,0.0,0.0,0.0,0.0,0.0,0.0,0.0,0.0,0.0,0.0,0.0,0.0,0.0,0.0,0.0,0.0,0.0,0.0,0.0,0.0,0.0,0.0,0.0,0.0,0.0,0.0,0.0,0.0,0.0,0.0,0.0,0.0,0.0,0.0,0.0,0.0,0.0,0.0,0.0,0.0,0.0,0.0,0.0,0.0,0.0,0.0,0.0,0.0,0.0,0.0,0.0,0.0,0.0,0.0,0.0,0.0,0.0,0.0,0.0,0.0,0.0,0.0,0.0,0.0,0.0,0.0,0.0,0.0,0.0,0.0,0.0,0.0,0.0,0.0,0.0,0.0,0.0,0.0,0.0,0.0,0.0,0.0,0.0,0.0,0.0,0.0,0.0,0.0,0.0,0.0,0.0,0.0,0.0,0.0,0.0,0.0,0.0,0.0,0.0,0.0,0.0,0.0,0.0,0.0,0.0,0.0,0.0,0.0,0.0,0.0,0.0,0.0,0.0,0.0,0.0,0.0,0.0,0.0,0.0,0.0,0.0,0.0,0.0,0.0,0.0,0.0,0.0,0.0,0.0,0.0,0.0,0.0,0.0,0.0,0.0,0.0,0.0,0.0,0.0,0.0,0.0,0.0,0.0,0.0,0.0,0.0,0.0,0.0,0.0,0.0,0.0,0.0,0.0,0.0,0.0,0.0,0.0,0.0,0.0,0.0,0.0,0.0,0.0,0.0,0.0,0.0,0.0,0.0,0.0,0.0,0.0,0.0,0.0,0.0,0.0,0.0,0.0,0.0,0.0,0.0,0.0,0.0,0.0,0.0,0.0,0.0,0.0,0.0,0.0,0.0,0.0,0.0,0.0,0.0,0.0,0.0,0.0,0.0,0.0,0.0,0.0,0.0,0.0,0.0,0.0,0.0,0.0,0.0,0.0,0.0,0.0,0.0,0.0,0.0,0.0,0.0,0.0,0.0,0.0,0.0,0.0,0.0,0.0,0.0,0.0,0.0,0.0,0.0,0.0,0.0,0.0,0.0,0.0,0.0,0.0,0.0,0.0,0.0,0.0,0.0,0.0,0.0,0.0,0.0,0.0,0.0,0.0,0.0,0.0,0.0,0.0,0.0,0.0,0.0,0.0,0.0,0.0,0.0,0.0,0.0,0.0,0.0,0.0,0.0,0.0,0.0,0.0,0.0,0.0,0.0,0.0,0.0,0.0,0.0,0.0,0.0,0.0,0.0,0.0,0.0,0.0,0.0,0.0,0.0,0.0,0.0,0.0,0.0,0.0,0.0,0.0,0.0,0.0,0.0,0.0,0.0,0.0,0.0,0.0,0.0,0.0,0.0,0.0,0.0,0.0,0.0,0.0,0.0,0.0,0.0,0.0,0.0,0.0,0.0,0.0,0.0,0.0,0.0,0.0,0.0,0.0,0.0,0.0,0.0,0.0,0.0,0.0,0.0,0.0,0.0,0.0,0.0,0.0,0.0,0.0,0.0,0.0,0.0,0.0,0.0,0.0,0.0,0.0,0.0,0.0,0.0,0.0,0.0,0.0,0.0,0.0,0.0,0.0,0.0,0.0,0.0,0.0,0.0,0.0,0.0,0.0,0.0,0.0,0.0,0.0,0.0,0.0,0.0,0.0,0.0,0.0,0.0,0.0,0.0,0.0,0.0,0.0,0.0,0.0,0.0,0.0,0.0,0.0,0.0,0.0,0.0,0.0,0.0,0.0,0.0,0.0,0.0,0.0,0.0,0.0,0.0,0.0,0.0,0.0,0.0,0.0,0.0,0.0,0.0,0.0,0.0,0.0,0.0,0.0,0.0,0.0,0.0,0.0,0.0,0.0,0.0,0.0,0.0,0.0,0.0,0.0,0.0,0.0,0.0,0.0,0.0,0.0,0.0,0.0,0.0,0.0,0.0,0.0,0.0,0.0,0.0,0.0,0.0,0.0,0.0,0.0,0.0,0.0,0.0,0.0,0.0,0.0,0.0,0.0,0.0,0.0,0.0,0.0,0.0,0.0,0.0,0.0,0.0,0.0,0.0,0.0,0.0,0.0,0.0,0.0,0.0,0.0,0.0,0.0,0.0,0.0,0.0,0.0,0.0,0.0,0.0,0.0,0.0,0.0,0.0,0.0,0.0,0.0,0.0,0.0,0.0,0.0,0.0,0.0,0.0,0.0,0.0,0.0,0.0,0.0,0.0,0.0,0.0,0.0,0.0,0.0,0.0,0.0,0.0,0.0,0.0,0.0,0.0,0.0,0.0,0.0,0.0,0.0,0.0,0.0,0.0,0.0,0.0,0.0,0.0,0.0,0.0,0.0,0.0,0.0,0.0,0.0,0.0,0.0,0.0,0.0,0.0,0.0,0.0,0.0,0.0,0.0,0.0,0.0,0.0,0.0,0.0,0.0,0.0,0.0,0.0,0.0,0.0,0.0,0.0,0.0,0.0,0.0,0.0,0.0,0.0,0.0,0.0,0.0,0.0,0.0,0.0,0.0,0.0,0.0,0.0,0.0,0.0,0.0,0.0,0.0,0.0,0.0,0.0,0.0,0.0,0.0,0.0,0.0,0.0,0.0,0.0,0.0,0.0,0.0,0.0,0.0,0.0,0.0,0.0,0.0,0.0,0.0,0.0,0.0,0.0,0.0,0.0,0.0,0.0,0.0,0.0,0.0,0.0,0.0,0.0,0.0,0.0,0.0,0.0,0.0,0.0,0.0,0.0,0.0,0.0,0.0,0.0,0.0,0.0,0.0,0.0,0.0,0.0,0.0,0.0,0.0,0.0,0.0,0.0,0.0,0.0,0.0,0.0,0.0,0.0,0.0,0.0,0.0,0.0,-0.969,0.0,0.0,0.0,0.0,0.0,0.0,0.0,0.0,0.0,0.0,0.0,0.0,0.0,0.0,0.0,0.0,0.0,0.0,0.0,0.0,0.0,0.0,0.0,0.0,0.0,0.0,0.0,0.0,0.0,0.0,0.0,0.0,0.0,0.0,0.0,0.0,0.0,0.0,0.0,0.0,0.0,0.0,0.0,0.0,0.0,0.0,0.0,0.0,0.0,0.0,0.0,0.0,0.0,0.0,0.0,0.0,0.0,0.0,0.0,0.0,0.0,0.0,0.0,0.0,0.0,0.0,0.0,0.0,0.0,0.0,0.0,0.0,0.0,0.0,0.0,0.0,0.0,0.0,0.0,0.0,0.0,0.0,0.0,0.0,0.0,0.0,0.0,0.0,0.0,0.0,0.0,0.0,0.0,0.0,0.0,0.0,0.0,0.0,0.0,0.0,0.0,0.0,0.0,0.0,0.0,0.0,0.0,0.0,0.0,0.0,-1.1096,-1.0801,-1.0413,-1.0262,-1.0536,0.0,0.0,0.0,0.0,0.0,0.0,0.0,0.0,0.0,0.0,0.0,0.0,0.0,0.0,0.0,0.0,0.0,0.0,0.0,0.0,0.0,0.0,0.0,0.0,0.0,0.0,0.0,0.0,0.0,0.0,0.0,0.0,0.0,0.0,0.0,0.0,0.0,0.0,0.0,0.0,0.0,0.0,0.0,0.0,0.0,0.0,0.0,0.0,0.0,0.0,0.0,0.0,0.0,0.0,0.0,0.0,0.0,0.0,0.0,0.0,0.0,0.0,0.0,0.0,0.0,0.0,0.0,0.0,0.0,0.0,0.0,0.0,0.0,0.0,0.0,0.0,0.0,0.0,0.0,0.0,0.0,0.0,0.0,0.0,0.0,0.0,0.0,0.0,0.0,0.0,0.0,0.0,0.0,0.0,0.0,0.0,0.0,0.0,0.0,0.0,0.0,0.0,0.0,0.0,0.0,0.0,0.0,0.0,0.0,0.0,0.0,0.0,-1.0806,-1.0826,-1.1426,0.0,0.0,0.0,0.0,0.0,0.0,0.0,0.0,0.0,0.0,0.0,0.0,0.0,0.0,0.0,0.0,0.0,0.0,0.0,0.0,0.0,0.0,0.0,0.0,0.0,0.0,0.0,0.0,0.0,0.0,0.0,0.0,0.0,0.0,0.0,0.0,0.0,0.0,0.0,0.0,0.0,0.0,0.0,0.0,0.0,0.0,0.0,0.0,0.0,0.0,0.0,0.0,0.0,0.0,0.0,0.0,0.0,0.0,0.0,0.0,0.0,0.0,0.0,0.0,0.0,0.0,0.0,0.0,0.0,0.0,0.0,0.0,0.0,0.0,0.0,0.0,0.0,0.0,0.0,0.0,0.0,0.0,0.0,0.0,0.0,0.0,0.0,0.0,0.0,0.0,0.0,0.0,0.0,0.0,0.0,0.0,0.0,0.0,0.0,0.0,0.0,0.0,0.0,0.0,0.0,0.0,0.0,0.0,0.0,0.0,-1.1585,-1.1585,-1.1292,0.0,-1.1935,0.0,0.0,0.0,0.0,0.0,0.0,0.0,0.0,0.0,0.0,0.0,0.0,0.0,0.0,0.0,0.0,0.0,0.0,0.0,0.0,0.0,0.0,0.0,0.0,0.0,0.0,0.0,0.0,0.0,0.0,0.0,0.0,0.0,0.0,0.0,0.0,0.0,0.0,0.0,0.0,0.0,0.0,0.0,0.0,0.0,0.0,0.0,0.0,0.0,0.0,0.0,0.0,0.0,0.0,0.0,0.0,0.0,0.0,0.0,0.0,0.0,0.0,0.0,0.0,0.0,0.0,0.0,0.0,0.0,0.0,0.0,0.0,0.0,0.0,0.0,0.0,0.0,0.0,0.0,0.0,0.0,0.0,0.0,0.0,0.0,0.0,0.0,0.0,0.0,0.0,0.0,0.0,0.0,0.0,0.0,0.0,0.0,0.0,0.0,0.0,0.0,0.0,0.0,0.0,0.0,0.0,0.0,0.0,0.0,0.0,-1.1683,-1.1878,-1.2273,-1.2467,0.0,0.0,0.0,0.0,0.0,0.0,0.0,0.0,0.0,0.0,0.0,0.0,0.0,0.0,0.0,0.0,0.0,0.0,0.0,0.0,0.0,0.0,0.0,0.0,0.0,0.0,0.0,0.0,0.0,0.0,0.0,0.0,0.0,0.0,0.0,0.0,0.0,0.0,0.0,0.0,0.0,0.0,0.0,0.0,0.0,0.0,0.0,0.0,0.0,0.0,0.0,0.0,0.0,0.0,0.0,0.0,0.0,0.0,0.0,0.0,0.0,0.0,0.0,0.0,0.0,0.0,0.0,0.0,0.0,0.0,0.0,0.0,0.0,0.0,0.0,0.0,0.0,0.0,0.0,0.0,0.0,0.0,0.0,0.0,0.0,0.0,0.0,0.0,0.0,0.0,0.0,0.0,0.0,0.0,0.0,0.0,0.0,0.0,0.0,0.0,0.0,0.0,0.0,0.0,0.0,0.0,0.0,0.0,0.0,0.0,-1.178,-1.1688,-1.198,-1.2662,-1.2958,-1.2559,0.0,0.0,0.0,0.0,0.0,0.0,0.0,0.0,0.0,0.0,0.0,0.0,0.0,0.0,0.0,0.0,0.0,0.0,0.0,0.0,0.0,0.0,0.0,0.0,0.0,0.0,0.0,0.0,0.0,0.0,0.0,0.0,0.0,0.0,0.0,0.0,0.0,0.0,0.0,0.0,0.0,0.0,0.0,0.0,0.0,0.0,0.0,0.0,0.0,0.0,0.0,0.0,0.0,0.0,0.0,0.0,0.0,0.0,0.0,0.0,0.0,0.0,0.0,0.0,0.0,0.0,0.0,0.0,0.0,0.0,0.0,0.0,0.0,0.0,0.0,0.0,0.0,0.0,0.0,0.0,0.0,0.0,0.0,0.0,0.0,0.0,0.0,0.0,0.0,0.0,0.0,0.0,0.0,0.0,0.0,0.0,0.0,0.0,0.0,0.0,0.0,0.0,0.0,0.0,0.0,0.0,0.0,0.0,-1.2662,-1.178,-1.1487,-1.198,-1.2073,-1.2365,0.0,0.0,0.0,0.0,0.0,0.0,0.0,0.0,0.0,0.0,0.0,0.0,0.0,0.0,0.0,0.0,0.0,0.0,0.0,0.0,0.0,0.0,0.0,0.0,0.0,0.0,0.0,0.0,0.0,0.0,0.0,0.0,0.0,0.0,0.0,0.0,0.0,0.0,0.0,0.0,0.0,0.0,0.0,0.0,0.0,0.0,0.0,0.0,0.0,0.0,0.0,0.0,0.0,0.0,0.0,0.0,0.0,0.0,0.0,0.0,0.0,0.0,0.0,0.0,0.0,0.0,0.0,0.0,0.0,0.0,0.0,0.0,0.0,0.0,0.0,0.0,0.0,0.0,0.0,0.0,0.0,0.0,0.0,0.0,0.0,0.0,0.0,0.0,0.0,0.0,0.0,0.0,0.0,0.0,0.0,0.0,0.0,0.0,0.0,0.0,0.0,0.0,0.0,0.0,0.0,0.0,0.0,0.0,0.0,-1.2175,-1.1878,-1.1878,-1.2273,-1.2565,-1.2882,0.0,0.0,0.0,0.0,0.0,0.0,0.0,0.0,0.0,0.0,0.0,0.0,0.0,0.0,0.0,0.0,0.0,0.0,0.0,0.0,0.0,0.0,0.0,0.0,0.0,0.0,0.0,0.0,0.0,0.0,0.0,0.0,0.0,0.0,0.0,0.0,0.0,0.0,0.0,0.0,0.0,0.0,0.0,0.0,0.0,0.0,0.0,0.0,0.0,0.0,0.0,0.0,0.0,0.0,0.0,0.0,0.0,0.0,0.0,0.0,0.0,0.0,0.0,0.0,0.0,0.0,0.0,0.0,0.0,0.0,0.0,0.0,0.0,0.0,0.0,0.0,0.0,0.0,0.0,0.0,0.0,0.0,0.0,0.0,0.0,0.0,0.0,0.0,0.0,0.0,0.0,0.0,0.0,0.0,0.0,0.0,0.0,0.0,0.0,0.0,0.0,0.0,0.0,0.0,0.0,0.0,0.0,0.0,0.0,-1.178,0.0,-1.2078,-1.2268,-1.2662,-1.2934,0.0,0.0,0.0,0.0,0.0,0.0,0.0,0.0,0.0,0.0,0.0,0.0,0.0,0.0,0.0,0.0,0.0,0.0,0.0,0.0,0.0,0.0,0.0,0.0,0.0,0.0,0.0,0.0,0.0,0.0,0.0,0.0,0.0,0.0,0.0,0.0,0.0,0.0,0.0,0.0,0.0,0.0,0.0,0.0,0.0,0.0,0.0,0.0,0.0,0.0,0.0,0.0,0.0,0.0,0.0,0.0,0.0,0.0,0.0,0.0,0.0,0.0,0.0,0.0,0.0,0.0,0.0,0.0,0.0,0.0,0.0,0.0,0.0,0.0,0.0,0.0,0.0,0.0,0.0,0.0,0.0,0.0,0.0,0.0,0.0,0.0,0.0,0.0,0.0,0.0,0.0,0.0,0.0,0.0,0.0,0.0,0.0,0.0,0.0,0.0,0.0,0.0,0.0,0.0,0.0,0.0,0.0,0.0,-1.181,-1.1301,-1.1785,-1.2083,-1.1986,-1.2278,-1.2555,0.0,0.0,0.0,0.0,0.0,0.0,0.0,0.0,0.0,0.0,0.0,0.0,0.0,0.0,0.0,0.0,0.0,0.0,0.0,0.0,0.0,0.0,0.0,0.0,0.0,0.0,0.0,0.0,0.0,0.0,0.0,0.0,0.0,0.0,0.0,0.0,0.0,0.0,0.0,0.0,0.0,0.0,0.0,0.0,0.0,0.0,0.0,0.0,0.0,0.0,0.0,0.0,0.0,0.0,0.0,0.0,0.0,0.0,0.0,0.0,0.0,0.0,0.0,0.0,0.0,0.0,0.0,0.0,0.0,0.0,0.0,0.0,0.0,0.0,0.0,0.0,0.0,0.0,0.0,0.0,0.0,0.0,0.0,0.0,0.0,0.0,0.0,0.0,0.0,0.0,0.0,0.0,0.0,0.0,0.0,0.0,0.0,0.0,0.0,0.0,0.0,0.0,0.0,0.0,0.0,0.0,0.0,0.0,0.0,-1.171,-1.2737,-1.3019,-1.249,-1.2937,-1.3126,0.0,0.0,0.0,0.0,0.0,0.0,0.0,0.0,0.0,0.0,0.0,0.0,0.0,0.0,0.0,0.0,0.0,0.0,0.0,0.0,0.0,0.0,0.0,0.0,0.0,0.0,0.0,0.0,0.0,0.0,0.0,0.0,0.0,0.0,0.0,0.0,0.0,0.0,0.0,0.0,0.0,0.0,0.0,0.0,0.0,0.0,0.0,0.0,0.0,0.0,0.0,0.0,0.0,0.0,0.0,0.0,0.0,0.0,0.0,0.0,0.0,0.0,0.0,0.0,0.0,0.0,0.0,0.0,0.0,0.0,0.0,0.0,0.0,0.0,0.0,0.0,0.0,0.0,0.0,0.0,0.0,0.0,0.0,0.0,0.0,0.0,0.0,0.0,0.0,0.0,0.0,0.0,0.0,0.0,0.0,0.0,0.0,0.0,0.0,0.0,0.0,0.0,0.0,0.0,0.0,0.0,0.0,0.0,0.0,-1.2829,-1.3783,-1.3923,-1.3297,-1.3745,-1.3703,-1.335,0.0,0.0,0.0,0.0,0.0,0.0,0.0,0.0,0.0,0.0,0.0,0.0,0.0,0.0,0.0,0.0,0.0,0.0,0.0,0.0,0.0,0.0,0.0,0.0,0.0,0.0,0.0,0.0,0.0,0.0,0.0,0.0,0.0,0.0,0.0,0.0,0.0,0.0,0.0,0.0,0.0,0.0,0.0,0.0,0.0,0.0,0.0,0.0,0.0,0.0,0.0,0.0,0.0,0.0,0.0,0.0,0.0,0.0,0.0,0.0,0.0,0.0,0.0,0.0,0.0,0.0,0.0,0.0,0.0,0.0,0.0,0.0,0.0,0.0,0.0,0.0,0.0,0.0,0.0,0.0,0.0,0.0,0.0,0.0,0.0,0.0,0.0,0.0,0.0,0.0,0.0,0.0,0.0,0.0,0.0,0.0,0.0,0.0,0.0,0.0,0.0,0.0,0.0,0.0,0.0,0.0,0.0,0.0,-1.4378,-1.4808,-1.4797,-1.4447,-1.4702,-1.4455,0.0,0.0,0.0,0.0,0.0,0.0,0.0,0.0,0.0,0.0,0.0,0.0,0.0,0.0,0.0,0.0,0.0,0.0,0.0,0.0,0.0,0.0,0.0,0.0,0.0,0.0,0.0,0.0,0.0,0.0,0.0,0.0,0.0,0.0,0.0,0.0,0.0,0.0,0.0,0.0,0.0,0.0,0.0,0.0,0.0,0.0,0.0,0.0,0.0,0.0,0.0,0.0,0.0,0.0,0.0,0.0,0.0,0.0,0.0,0.0,0.0,0.0,0.0,0.0,0.0,0.0,0.0,0.0,0.0,0.0,0.0,0.0,0.0,0.0,0.0,0.0,0.0,0.0,0.0,0.0,0.0,0.0,0.0,0.0,0.0,0.0,0.0,0.0,0.0,0.0,0.0,0.0,0.0,0.0,0.0,0.0,0.0,0.0,0.0,0.0,0.0,0.0,0.0,0.0,0.0,0.0,0.0,0.0,0.0,-1.5493,-1.68,-1.6885,-1.5877,-1.6269,-1.6075,0.0,0.0,0.0,0.0,0.0,0.0,0.0,0.0,0.0,0.0,0.0,0.0,0.0,0.0,0.0,0.0,0.0,0.0,0.0,0.0,0.0,0.0,0.0,0.0,0.0,0.0,0.0,0.0,0.0,0.0,0.0,0.0,0.0,0.0,0.0,0.0,0.0,0.0,0.0,0.0,0.0,0.0,0.0,0.0,0.0,0.0,0.0,0.0,0.0,0.0,0.0,0.0,0.0,0.0,0.0,0.0,0.0,0.0,0.0,0.0,0.0,0.0,0.0,0.0,0.0,0.0,0.0,0.0,0.0,0.0,0.0,0.0,0.0,0.0,0.0,0.0,0.0,0.0,0.0,0.0,0.0,0.0,0.0,0.0,0.0,0.0,0.0,0.0,0.0,0.0,0.0,0.0,0.0,0.0,0.0,0.0,0.0,0.0,0.0,0.0,0.0,0.0,0.0,0.0,0.0,0.0,0.0,0.0,-1.5818,-1.6216,-1.7677,-1.82,-1.751,-1.7754,-1.753,0.0,0.0,0.0,0.0,0.0,0.0,0.0,0.0,0.0,0.0,0.0,0.0,0.0,0.0,0.0,0.0,0.0,0.0,0.0,0.0,0.0,0.0,0.0,0.0,0.0,0.0,0.0,0.0,0.0,0.0,0.0,0.0,0.0,0.0,0.0,0.0,0.0,0.0,0.0,0.0,0.0,0.0,0.0,0.0,0.0,0.0,0.0,0.0,0.0,0.0,0.0,0.0,0.0,0.0,0.0,0.0,0.0,0.0,0.0,0.0,0.0,0.0,0.0,0.0,0.0,0.0,0.0,0.0,0.0,0.0,0.0,0.0,0.0,0.0,0.0,0.0,0.0,0.0,0.0,0.0,0.0,0.0,0.0,0.0,0.0,0.0,0.0,0.0,0.0,0.0,0.0,0.0,0.0,0.0,0.0,0.0,0.0,0.0,0.0,0.0,0.0,0.0,0.0,0.0,0.0,0.0,0.0,0.0,-1.6071,-1.6572,-1.7829,-1.8714,-1.9175,-1.9178,-1.8686,0.0,0.0,0.0,0.0,0.0,0.0,0.0,0.0,0.0,0.0,0.0,0.0,0.0,0.0,0.0,0.0,0.0,0.0,0.0,0.0,0.0,0.0,0.0,0.0,0.0,0.0,0.0,0.0,0.0,0.0,0.0,0.0,0.0,0.0,0.0,0.0,0.0,0.0,0.0,0.0,0.0,0.0,0.0,0.0,0.0,0.0,0.0,0.0,0.0,0.0,0.0,0.0,0.0,0.0,0.0,0.0,0.0,0.0,0.0,0.0,0.0,0.0,0.0,0.0,0.0,0.0,0.0,0.0,0.0,0.0,0.0,0.0,0.0,0.0,0.0,0.0,0.0,0.0,0.0,0.0,0.0,0.0,0.0,0.0,0.0,0.0,0.0,0.0,0.0,0.0,0.0,0.0,0.0,0.0,0.0,0.0,0.0,0.0,0.0,0.0,0.0,0.0,0.0,0.0,0.0,0.0,0.0,0.0,-1.6071,-1.6377,-1.7147,-1.7924,-1.8783,-1.9526,-1.9726,0.0,0.0,0.0,0.0,0.0,0.0,0.0,0.0,0.0,0.0,0.0,0.0,0.0,0.0,0.0,0.0,0.0,0.0,0.0,0.0,0.0,0.0,0.0,0.0,0.0,0.0,0.0,0.0,0.0,0.0,0.0,0.0,0.0,0.0,0.0,0.0,0.0,0.0,0.0,0.0,0.0,0.0,0.0,0.0,0.0,0.0,0.0,0.0,-2.4513,0.0,0.0,0.0,0.0,0.0,0.0,0.0,0.0,0.0,0.0,0.0,0.0,0.0,0.0,0.0,0.0,0.0,0.0,0.0,0.0,0.0,0.0,0.0,0.0,0.0,0.0,0.0,0.0,0.0,0.0,0.0,0.0,0.0,0.0,0.0,0.0,0.0,0.0,0.0,0.0,0.0,0.0,0.0,0.0,0.0,0.0,0.0,0.0,0.0,0.0,0.0,0.0,0.0,0.0,0.0,0.0,0.0,0.0,0.0,-1.548,-1.5667,-1.6109,-1.6835,-1.7931,-1.9075,-1.9821,0.0,0.0,0.0,0.0,0.0,0.0,0.0,0.0,0.0,0.0,0.0,0.0,0.0,0.0,0.0,0.0,0.0,0.0,0.0,0.0,0.0,0.0,0.0,0.0,0.0,0.0,0.0,0.0,0.0,0.0,0.0,0.0,0.0,0.0,0.0,0.0,0.0,0.0,0.0,0.0,0.0,0.0,0.0,0.0,0.0,0.0,0.0,0.0,0.0,0.0,0.0,0.0,0.0,0.0,0.0,0.0,0.0,0.0,0.0,0.0,0.0,0.0,0.0,0.0,0.0,0.0,0.0,0.0,0.0,0.0,0.0,0.0,0.0,0.0,0.0,0.0,0.0,0.0,0.0,0.0,0.0,0.0,0.0,0.0,0.0,0.0,0.0,0.0,0.0,0.0,0.0,0.0,0.0,0.0,0.0,0.0,0.0,0.0,0.0,0.0,0.0,0.0,0.0,0.0,0.0,0.0,0.0,-1.4675,-1.4771,-1.4854,-1.5146,-1.5836,-1.7028,-1.8396,-1.9486,-2.0273,0.0,0.0,0.0,0.0,0.0,0.0,0.0,0.0,0.0,0.0,0.0,0.0,0.0,0.0,0.0,0.0,0.0,0.0,0.0,0.0,0.0,0.0,0.0,0.0,0.0,0.0,0.0,0.0,0.0,0.0,0.0,0.0,0.0,0.0,0.0,0.0,0.0,0.0,-2.6337,-2.7773,0.0,0.0,0.0,0.0,0.0,0.0,0.0,0.0,-2.9009,0.0,0.0,0.0,0.0,0.0,0.0,0.0,0.0,0.0,0.0,0.0,0.0,0.0,0.0,0.0,0.0,0.0,0.0,0.0,0.0,0.0,0.0,0.0,0.0,0.0,0.0,0.0,0.0,0.0,0.0,0.0,0.0,0.0,0.0,0.0,0.0,0.0,0.0,0.0,0.0,0.0,0.0,0.0,0.0,0.0,0.0,0.0,0.0,0.0,0.0,0.0,0.0,0.0,0.0,0.0,0.0,-1.4394,-1.4771,-1.4867,-1.4388,-1.4688,-1.5376,-1.6651,-1.7908,-1.8875,-1.9443,0.0,0.0,0.0,0.0,0.0,0.0,0.0,0.0,0.0,0.0,0.0,0.0,0.0,0.0,0.0,0.0,0.0,0.0,0.0,0.0,0.0,0.0,0.0,0.0,0.0,0.0,0.0,0.0,0.0,0.0,0.0,0.0,0.0,0.0,0.0,0.0,0.0,0.0,0.0,-2.9201,-3.0059,0.0,0.0,0.0,0.0,0.0,0.0,0.0,0.0,-3.1056,0.0,0.0,0.0,0.0,0.0,0.0,0.0,0.0,0.0,0.0,0.0,0.0,0.0,0.0,0.0,0.0,0.0,0.0,0.0,0.0,0.0,0.0,0.0,0.0,0.0,0.0,0.0,0.0,0.0,0.0,0.0,0.0,0.0,0.0,0.0,0.0,0.0,0.0,0.0,0.0,0.0,0.0,0.0,0.0,0.0,0.0,0.0,0.0,0.0,0.0,0.0,0.0,0.0,0.0,0.0,-1.4094,-1.41,-1.3908,-1.3528,-1.401,-1.4771,-1.5818,-1.7311,-1.8171,0.0,0.0,0.0,0.0,0.0,0.0,0.0,0.0,0.0,0.0,0.0,0.0,0.0,0.0,0.0,0.0,0.0,0.0,0.0,0.0,0.0,0.0,0.0,0.0,0.0,0.0,0.0,0.0,0.0,0.0,0.0,0.0,0.0,0.0,0.0,0.0,0.0,0.0,0.0,0.0,-3.0194,-3.1001,-3.0712,0.0,0.0,0.0,0.0,0.0,0.0,-3.22,-3.2877,0.0,0.0,0.0,0.0,0.0,0.0,0.0,0.0,0.0,0.0,0.0,0.0,0.0,0.0,0.0,0.0,0.0,0.0,0.0,0.0,0.0,0.0,0.0,0.0,0.0,0.0,0.0,0.0,0.0,0.0,0.0,0.0,0.0,0.0,0.0,0.0,0.0,0.0,0.0,0.0,0.0,0.0,0.0,0.0,0.0,0.0,0.0,0.0,0.0,0.0,0.0,0.0,0.0,0.0,0.0,-1.3986,-1.3522,-1.3141,-1.2861,-1.3619,-1.4388,-1.5153,-1.7023,-1.7873,0.0,0.0,0.0,0.0,0.0,0.0,0.0,0.0,0.0,0.0,0.0,0.0,0.0,0.0,0.0,0.0,0.0,0.0,0.0,0.0,0.0,0.0,0.0,0.0,0.0,0.0,0.0,0.0,0.0,0.0,0.0,0.0,0.0,0.0,0.0,0.0,0.0,0.0,0.0,0.0,0.0,-3.1731,-3.1354,-3.306,0.0,0.0,0.0,0.0,-3.3024,-3.352,0.0,0.0,0.0,0.0,0.0,0.0,0.0,0.0,0.0,0.0,0.0,0.0,0.0,0.0,0.0,0.0,0.0,0.0,0.0,0.0,0.0,0.0,0.0,0.0,0.0,0.0,0.0,0.0,0.0,0.0,0.0,0.0,0.0,0.0,0.0,0.0,0.0,0.0,0.0,0.0,0.0,0.0,0.0,0.0,0.0,0.0,0.0,0.0,0.0,0.0,0.0,0.0,0.0,0.0,0.0,0.0,-1.4549,-1.4094,-1.3522,-1.3147,-1.3817,-1.458,-1.5337,-1.7654,-1.847,0.0,0.0,0.0,0.0,0.0,0.0,0.0,0.0,0.0,0.0,0.0,0.0,0.0,0.0,0.0,0.0,0.0,0.0,0.0,0.0,0.0,0.0,0.0,0.0,0.0,0.0,0.0,0.0,0.0,0.0,0.0,0.0,0.0,0.0,0.0,0.0,0.0,0.0,0.0,0.0,0.0,-3.2425,-3.2705,-3.5044,-3.6469,0.0,0.0,-3.4032,-3.4039,-3.3874,0.0,0.0,0.0,0.0,0.0,0.0,0.0,0.0,0.0,0.0,0.0,0.0,0.0,0.0,0.0,0.0,0.0,0.0,0.0,0.0,0.0,0.0,0.0,0.0,0.0,0.0,0.0,0.0,0.0,0.0,0.0,0.0,0.0,0.0,0.0,0.0,0.0,0.0,0.0,0.0,0.0,0.0,0.0,0.0,0.0,0.0,0.0,0.0,0.0,0.0,0.0,0.0,0.0,0.0,0.0,-1.3731,-1.4031,-1.3337,-1.2964,-1.2742,-1.3702,-1.4534,-1.5197,-1.7393,-1.8255,0.0,0.0,0.0,0.0,0.0,0.0,0.0,0.0,0.0,0.0,0.0,0.0,0.0,0.0,0.0,0.0,0.0,0.0,0.0,0.0,0.0,0.0,0.0,0.0,0.0,0.0,0.0,0.0,0.0,0.0,0.0,0.0,0.0,0.0,0.0,0.0,0.0,0.0,0.0,0.0,0.0,0.0,-3.2857,-3.5266,0.0,0.0,0.0,-3.5589,-3.5735,0.0,0.0,0.0,0.0,0.0,0.0,0.0,0.0,0.0,0.0,0.0,0.0,0.0,0.0,0.0,0.0,0.0,0.0,0.0,0.0,0.0,0.0,0.0,0.0,0.0,0.0,0.0,0.0,0.0,0.0,0.0,0.0,0.0,0.0,0.0,0.0,0.0,0.0,0.0,0.0,0.0,0.0,0.0,0.0,0.0,0.0,0.0,0.0,0.0,0.0,0.0,0.0,0.0,0.0,0.0,0.0,0.0,-1.3507,-1.2696,-1.2324,-1.242,-1.3591,-1.4469,-1.5094,-1.7093,0.0,0.0,0.0,0.0,0.0,0.0,0.0,0.0,0.0,0.0,0.0,0.0,0.0,0.0,0.0,0.0,0.0,0.0,0.0,0.0,0.0,0.0,0.0,0.0,0.0,0.0,0.0,-3.0955,0.0,0.0,0.0,0.0,0.0,0.0,0.0,0.0,0.0,0.0,0.0,0.0,0.0,0.0,-3.2847,-3.2979,-3.5534,-3.7181,0.0,0.0,-3.7009,-3.6828,-3.6268,-3.6557,0.0,0.0,0.0,0.0,0.0,0.0,0.0,0.0,0.0,0.0,0.0,0.0,0.0,0.0,0.0,0.0,0.0,0.0,0.0,0.0,0.0,0.0,0.0,0.0,0.0,0.0,0.0,0.0,0.0,0.0,0.0,0.0,0.0,0.0,0.0,0.0,0.0,0.0,0.0,0.0,0.0,0.0,0.0,0.0,0.0,0.0,0.0,0.0,0.0,0.0,0.0,0.0,0.0,0.0,0.0,-1.3477,-1.2603,-1.2248,-1.2409,-1.3326,-1.4358,-1.5351,-1.7266,-1.8442,0.0,0.0,0.0,0.0,0.0,0.0,0.0,0.0,0.0,0.0,0.0,0.0,0.0,0.0,0.0,0.0,0.0,0.0,0.0,0.0,0.0,0.0,0.0,0.0,0.0,0.0,0.0,0.0,0.0,0.0,0.0,0.0,0.0,0.0,0.0,0.0,0.0,0.0,0.0,0.0,0.0,-3.3491,-3.3504,-3.6222,-3.7905,0.0,0.0,-3.7808,-3.6711,-3.6178,-3.6587,-3.888,0.0,0.0,0.0,0.0,0.0,0.0,0.0,0.0,0.0,0.0,0.0,0.0,0.0,0.0,0.0,0.0,0.0,0.0,0.0,0.0,0.0,0.0,0.0,0.0,0.0,0.0,0.0,0.0,0.0,0.0,0.0,0.0,0.0,0.0,0.0,0.0,0.0,0.0,0.0,0.0,0.0,0.0,0.0,0.0,0.0,0.0,0.0,0.0,0.0,0.0,0.0,0.0,0.0,-1.2909,-1.3006,-1.2555,-1.2293,-1.2411,-1.3598,-1.4619,-1.5368,-1.7216,-1.8606,0.0,0.0,0.0,0.0,0.0,0.0,0.0,0.0,0.0,0.0,0.0,0.0,0.0,0.0,0.0,0.0,0.0,0.0,0.0,0.0,0.0,0.0,0.0,0.0,0.0,0.0,0.0,0.0,-3.1913,-3.2957,-3.4991,0.0,0.0,0.0,0.0,0.0,0.0,0.0,0.0,0.0,0.0,-3.4756,-3.3657,-3.5904,0.0,0.0,-3.7667,-3.8073,-3.8795,-3.8286,-3.8583,-4.084,-4.147,0.0,0.0,0.0,0.0,0.0,0.0,0.0,0.0,0.0,0.0,0.0,0.0,0.0,0.0,0.0,0.0,0.0,0.0,0.0,0.0,0.0,0.0,0.0,0.0,0.0,0.0,0.0,0.0,0.0,0.0,0.0,0.0,0.0,0.0,0.0,0.0,0.0,0.0,0.0,0.0,0.0,0.0,0.0,0.0,0.0,0.0,0.0,0.0,0.0,0.0,0.0,0.0,-1.2853,-1.2653,-1.2493,-1.2411,-1.24,-1.3783,-1.4892,-1.563,-1.7173,-1.8744,0.0,0.0,0.0,0.0,0.0,0.0,0.0,0.0,0.0,0.0,0.0,0.0,0.0,0.0,0.0,0.0,0.0,0.0,0.0,0.0,0.0,0.0,0.0,0.0,0.0,0.0,0.0,0.0,-3.3888,-3.53,-3.7195,0.0,0.0,0.0,0.0,0.0,0.0,0.0,0.0,0.0,0.0,-3.5521,-3.4521,-3.6343,-3.8004,-3.8699,-3.9045,-3.9695,-4.0942,-4.0593,-4.0729,-4.2228,0.0,0.0,0.0,0.0,0.0,0.0,0.0,0.0,0.0,0.0,0.0,0.0,0.0,0.0,0.0,0.0,0.0,0.0,0.0,0.0,0.0,0.0,0.0,0.0,0.0,0.0,0.0,0.0,0.0,0.0,-1.5416,0.0,0.0,0.0,0.0,0.0,0.0,0.0,0.0,0.0,0.0,0.0,0.0,0.0,0.0,0.0,0.0,0.0,0.0,0.0,0.0,0.0,0.0,-1.2757,-1.2657,-1.248,-1.2403,-1.2392,-1.3786,-1.4959,-1.6037,-1.7216,-1.8692,-2.062,0.0,0.0,0.0,0.0,0.0,0.0,0.0,0.0,0.0,0.0,0.0,0.0,0.0,0.0,0.0,0.0,0.0,0.0,0.0,0.0,0.0,0.0,0.0,0.0,0.0,0.0,-3.7011,-3.7928,-3.8401,0.0,0.0,0.0,0.0,0.0,0.0,0.0,0.0,0.0,0.0,-3.5853,-3.5451,-3.6225,-3.7849,-3.9384,-4.0422,-4.2067,-4.3106,-4.279,-4.2873,-4.2907,0.0,0.0,0.0,0.0,0.0,0.0,0.0,0.0,0.0,0.0,0.0,0.0,0.0,0.0,0.0,0.0,0.0,0.0,0.0,0.0,0.0,0.0,0.0,0.0,0.0,0.0,0.0,-1.6955,-1.7312,0.0,0.0,0.0,0.0,0.0,0.0,0.0,0.0,0.0,0.0,0.0,-1.7475,-1.8011,0.0,0.0,0.0,0.0,0.0,0.0,0.0,0.0,0.0,0.0,0.0,0.0,-1.318,-1.3188,-1.2757,-1.2585,-1.2671,-1.3953,-1.5021,-1.5756,-1.7328,-1.9277,-2.1845,0.0,0.0,0.0,0.0,0.0,0.0,0.0,0.0,0.0,0.0,0.0,0.0,0.0,0.0,0.0,0.0,0.0,0.0,0.0,0.0,0.0,0.0,0.0,0.0,0.0,-3.6123,0.0,0.0,0.0,0.0,0.0,0.0,0.0,0.0,0.0,0.0,0.0,-3.8714,-3.8085,-3.9309,-3.9844,-3.8567,-3.9725,-4.0634,0.0,0.0,0.0,0.0,0.0,0.0,0.0,0.0,0.0,0.0,0.0,0.0,0.0,0.0,-4.7174,-4.725,-4.721,-4.7202,-4.7314,0.0,0.0,0.0,0.0,0.0,0.0,0.0,0.0,0.0,0.0,0.0,0.0,0.0,0.0,-1.8427,0.0,-1.8169,0.0,0.0,0.0,0.0,0.0,0.0,0.0,0.0,-1.6586,-1.7228,-1.7992,-1.8559,-1.8906,0.0,-1.8889,-1.8845,0.0,0.0,0.0,0.0,0.0,0.0,0.0,0.0,-1.3796,-1.3853,-1.3213,-1.2874,-1.3003,-1.4428,-1.5405,-1.603,-1.8418,-2.064,-2.2675,-2.4175,-2.5314,0.0,0.0,0.0,0.0,0.0,0.0,0.0,0.0,0.0,0.0,0.0,0.0,0.0,0.0,0.0,0.0,0.0,0.0,0.0,0.0,0.0,0.0,0.0,-3.8102,0.0,0.0,0.0,0.0,0.0,0.0,0.0,0.0,0.0,-4.1798,-4.1309,-4.0841,-4.0141,-4.1215,-4.1843,-4.1395,0.0,0.0,0.0,0.0,0.0,0.0,0.0,-4.7046,-4.7721,-4.7738,-4.7701,-4.783,-4.82,-4.8551,-4.8741,0.0,0.0,-4.8319,-4.8199,-4.8193,-4.829,-4.8396,-4.8232,-4.7414,-4.7262,-4.7017,0.0,0.0,0.0,0.0,0.0,0.0,0.0,0.0,-1.998,-2.0008,0.0,-1.9861,0.0,0.0,0.0,0.0,0.0,-1.5113,0.0,0.0,-1.6622,-1.7451,-1.9141,-1.9241,-1.9529,-2.0138,-2.0328,-2.0314,-2.0051,-1.7876,0.0,0.0,0.0,0.0,0.0,0.0,-1.4576,-1.4811,-1.3667,-1.3252,-1.3539,-1.511,-1.6352,-1.7064,-2.0509,-2.261,-2.3144,-2.4253,-2.5105,-2.5547,-2.6627,0.0,0.0,0.0,0.0,0.0,0.0,0.0,0.0,0.0,0.0,0.0,0.0,0.0,0.0,0.0,0.0,0.0,0.0,0.0,0.0,-3.8851,0.0,0.0,0.0,0.0,0.0,0.0,0.0,0.0,0.0,0.0,-4.484,-4.368,-4.298,-4.3045,0.0,0.0,0.0,0.0,-4.2931,-4.7216,-4.8015,-4.8389,-4.9286,-4.8865,-4.8044,-4.6906,0.0,0.0,-4.8543,-4.9657,-5.0446,-5.0712,-5.0586,-5.0123,-4.869,-4.8543,-4.8628,-4.8621,-4.8715,-4.8401,-4.77,-4.7543,-4.7218,-3.2472,0.0,0.0,0.0,0.0,-2.4614,-2.3524,-2.2051,-2.1551,-2.1188,-2.0829,-2.0152,0.0,0.0,0.0,0.0,0.0,0.0,-1.6246,-1.7229,-1.7311,-1.7859,-1.8869,-1.9462,-1.9816,-1.9934,-1.9725,-1.957,-1.9397,-1.8211,-1.831,-1.9593,0.0,0.0,0.0,0.0,-1.4992,-1.4327,-1.336,-1.3182,-1.3913,-1.5282,-1.7021,-1.9163,-2.1626,-2.3202,-2.377,-2.5402,-2.6484,-2.68,-2.7152,0.0,0.0,0.0,0.0,0.0,0.0,0.0,0.0,0.0,0.0,0.0,0.0,0.0,0.0,0.0,0.0,0.0,0.0,0.0,-3.8722,-3.9604,-4.0602,0.0,0.0,0.0,0.0,0.0,0.0,0.0,0.0,0.0,-4.6777,-4.6205,-4.5646,0.0,0.0,-4.6928,-4.7332,-4.6152,-4.5404,-4.6016,-4.6398,0.0,-4.6185,-4.7223,-4.805,-4.802,-4.8301,-4.8757,-4.9315,-4.9627,-4.9924,-5.0308,-5.0528,-5.0471,-5.0207,-5.0038,-5.0021,-5.0066,-5.0194,-5.0027,-4.9232,-4.8611,-4.7932,-3.4595,-3.3039,-3.1709,-2.9794,-2.7763,-2.7432,-2.5959,-2.3893,-2.3271,-2.2598,-2.1864,-2.1183,-2.0838,-2.068,-1.9316,0.0,0.0,0.0,-1.6162,-1.673,-1.7131,-1.7619,-1.8388,-1.9417,-1.9925,-2.0007,-1.9897,-1.9734,-1.9479,-1.9617,-2.0022,-2.0643,0.0,0.0,-1.8391,-1.6409,-1.5094,-1.4642,-1.3574,-1.3392,-1.4257,-1.5848,-1.7945,-2.0421,-2.2437,-2.3849,-2.4382,-2.576,-2.6771,-2.7071,-2.7557,-2.8362,0.0,0.0,0.0,0.0,0.0,0.0,0.0,0.0,0.0,0.0,0.0,-3.3818,-3.4601,0.0,0.0,0.0,-3.5695,-3.7513,-3.9748,-4.0951,0.0,0.0,0.0,0.0,0.0,0.0,0.0,-4.8587,-4.7938,-4.7586,-4.8171,-4.7743,-4.7178,-4.6513,-4.7244,-4.8015,-4.8495,0.0,-4.6005,-4.6624,-4.6624,-4.6444,-4.6391,-4.712,-4.7809,-4.8089,-4.8527,-4.881,-4.8945,-4.9344,-4.9739,-4.9851,-5.0317,-5.08,-5.0898,-5.0874,-5.084,-5.0819,-5.0941,-5.0743,-4.9951,-4.9394,-4.881,-3.647,-3.6054,-3.4853,-3.2611,-2.9962,-3.0046,-2.8411,-2.567,-2.4812,-2.4062,-2.319,-2.2676,-2.2036,-2.1342,-1.9598,0.0,-1.7115,-1.6049,-1.5643,-1.5816,-1.646,-1.7131,-1.7921,-1.9308,-2.0051,-2.0323,-2.0671,-2.059,-2.0114,-2.146,-2.1628,-2.0682,-1.9353,-1.8638,-1.8426,-1.6393,-1.5418,-1.5708,-1.4355,-1.4037,-1.4746,-1.6962,-1.8996,-2.0962,-2.3096,-2.4317,-2.4819,-2.5754,-2.6394,-2.6925,-2.799,-2.8782,-2.928,0.0,0.0,0.0,0.0,0.0,0.0,0.0,0.0,0.0,0.0,0.0,0.0,0.0,0.0,0.0,-3.6257,0.0,-3.941,-4.2145,0.0,0.0,0.0,-4.4375,-4.3358,-4.4617,-4.5991,-4.7197,0.0,0.0,-4.8985,-4.849,-4.7759,-4.6707,-4.6062,-4.6447,-4.8612,-4.643,-4.5482,-4.8434,-4.7897,-4.7461,-4.7944,-4.7612,-4.7207,-4.7474,-4.7965,-4.8287,-4.8315,-4.9208,-4.9805,-4.9567,-5.0278,-5.103,-5.1108,-5.1161,-5.1181,-5.1037,-5.1069,-5.0888,-5.0219,-4.9932,-4.9565,-3.6046,-3.577,-3.494,-3.3549,-3.1782,-3.0542,-2.8931,-2.6928,-2.5973,-2.4654,-2.3227,-2.288,-2.2141,-2.1228,-2.0255,-1.9256,-1.8158,-1.6944,-1.655,-1.6804,-1.7294,-1.8014,-1.8945,-1.9789,-2.0582,-2.1182,-2.1105,-2.1184,-2.1332,-2.1045,-2.1409,-2.2174,-2.1354,-2.0933,-2.0877,-1.9063,-1.7834,-1.7251,-1.6518,-1.6435,-1.7209,-1.8778,-2.0149,-2.1275,-2.328,-2.4659,-2.5073,-2.6311,-2.7139,-2.7651,-2.8525,-2.952,-3.064,-3.1664,0.0,0.0,0.0,0.0,0.0,0.0,0.0,0.0,0.0,-3.6679,-3.8007,0.0,-3.777,0.0,-3.7864,-3.7806,-3.8157,-3.9132,0.0,0.0,-4.1847,-4.3129,-4.3683,-4.4997,-4.6299,-4.7411,-4.7834,-4.8122,-4.8367,-4.7901,-4.7303,-4.6764,-4.7518,-4.8579,-4.9636,-4.8335,-4.7515,-4.8413,-4.7573,-4.6603,-4.6394,-4.5917,-4.5979,-4.7031,-4.7609,-4.8268,-4.924,-4.9935,-5.0371,-5.0535,-5.0856,-5.115,-5.123,-5.1265,-5.1269,-5.1245,-5.122,-5.1131,-5.0918,-5.0374,-4.9664,-3.6476,-3.643,-3.5354,-3.4379,-3.3441,-3.1551,-2.9832,-2.8176,-2.7191,-2.5871,-2.4272,-2.3619,-2.3012,-2.2434,-2.1585,-2.0731,-1.9679,-1.8134,-1.7441,-1.7532,-1.7944,-1.8379,-1.8912,-1.9996,-2.0889,-2.14,-2.1537,-2.1691,-2.1761,-2.1296,-2.1245,-2.1484,-2.0817,-2.0678,-2.103,-2.0621,-2.0107,-1.9514,-1.8331,-1.7912,-1.8345,-1.9356,-2.0686,-2.2287,-2.4114,-2.5546,-2.6461,-2.7464,-2.8397,-2.9188,-2.9755,-3.0679,-3.2026,-3.3016,-3.4159,0.0,0.0,0.0,0.0,0.0,0.0,0.0,0.0,0.0,0.0,0.0,-3.9324,-4.0506,-3.9408,-3.8818,-3.9331,-3.9916,-4.0156,-3.9771,-4.1155,-4.2213,-4.2453,-4.3767,-4.5194,-4.6459,-4.6826,-4.712,-4.7488,-4.6927,-4.6393,-4.6182,-4.6795,-4.7425,-4.7829,-4.741,-4.7195,-4.7469,-4.6704,-4.6023,-4.5747,-4.5998,-4.643,-4.7132,-4.7961,-4.8727,-4.9208,-4.9892,-5.0393,-5.043,-5.0817,-5.122,-5.1248,-5.131,-5.1341,-5.1341,-5.133,-5.1292,-5.1245,-5.0847,-5.0357,-3.7118,-3.7168,-3.5702,-3.4919,-3.4508,-3.2463,-3.0832,-2.9565,-2.8472,-2.7138,-2.5791,-2.4566,-2.4165,-2.4279,-2.3222,-2.2298,-2.1303,-1.9344,-1.8331,-1.8012,-1.8437,-1.8529,-1.8512,-2.0009,-2.0957,-2.1373,-2.1828,-2.2056,-2.1967,-2.1904,-2.1415,-2.0498,-1.9835,-1.9925,-2.0735,-2.1713,-2.2069,-2.1688,-1.9845,-1.8973,-1.9034,-1.9937,-2.1475,-2.3614,-2.5178,-2.6603,-2.8004,-2.8755,-2.9691,-3.0745,-3.118,-3.1901,-3.2961,-3.4298,-3.5299,0.0,-3.6677,0.0,0.0,0.0,0.0,0.0,0.0,0.0,0.0,-3.8513,-4.0382,-4.1943,-4.0674,-4.0192,-4.1204,-4.1816,-4.1427,-3.9553,-4.0772,-4.1532,-4.0935,-4.2141,-4.3706,-4.5217,-4.5749,-4.6235,-4.6731,-4.6038,-4.5529,-4.5615,-4.5615,-4.5598,-4.5337,-4.5922,-4.6384,-4.6387,-4.5996,-4.5927,-4.6104,-4.6762,-4.7236,-4.7496,-4.8362,-4.9122,-4.8875,-4.9706,-5.0297,-4.9997,-5.0597,-5.1172,-5.12,-5.1304,-5.1386,-5.139,-5.1391,-5.1369,-5.1323,-5.1252,-5.1284,-3.6701,-3.5944,-3.512,-3.4207,-3.3191,-3.2165,-3.1518,-3.1114,-2.9538,-2.7748,-2.5965,-2.5298,-2.5125,-2.5263,-2.4397,-2.3382,-2.2145,-2.0232,-1.8834,-1.7972,-1.8207,-1.8589,-1.9126,-1.978,-2.083,-2.208,-2.2105,-2.2421,-2.3022,-2.2507,-2.2703,-2.3503,-2.2531,-2.2717,-2.3927,0.0,0.0,0.0,-2.082,-2.0305,-2.0758,-2.2698,-2.4206,-2.4988,-2.6179,0.0,-2.8096,-2.8888,-2.9614,-3.0165,-3.1415,0.0,0.0,0.0,0.0,0.0,0.0,0.0,0.0,0.0,0.0,0.0,-3.8618,-3.8421,-3.7607,-3.9374,-4.0766,-4.1244,-4.068,-4.0183,-4.0034,-3.937,-3.9133,-3.9557,-3.9924,-4.0494,-4.1399,-4.27,-4.4001,-4.5217,-4.5868,-4.6381,-4.6806,-4.635,-4.5903,-4.5833,-4.5985,-4.5874,-4.5435,-4.652,-4.7819,-4.8585,-4.7384,-4.6465,-4.6615,-4.6177,-4.653,-4.7503,-4.8251,-4.8918,-4.9676,-5.0144,-5.0547,-5.0576,-5.0895,-5.1122,-5.1113,-5.1261,-5.1386,-5.1401,-5.1396,-5.1396,-5.1381,-5.133,-5.1115,-3.7065,0.0,-3.5907,-3.5232,0.0,-3.3644,-3.3186,-3.2937,-3.0597,-2.8578,-2.6968,-2.6454,-2.6392,-2.6466,-2.5675,-2.4979,-2.4279,-2.2262,-2.0957,-2.0276,-1.9829,-1.9746,-1.9783,-2.0263,-2.1115,-2.2205,-2.2357,-2.2735,-2.3404,-2.3121,-2.3014,-2.3113,-2.2134,-2.158,-2.1538,-2.0889,-2.0784,-2.1415,-2.0842,-2.0588,-2.0648,-2.2073,-2.3461,-2.4745,0.0,0.0,0.0,0.0,0.0,0.0,0.0,0.0,0.0,0.0,0.0,-3.6387,-3.706,-3.7664,-3.8244,-3.8153,-3.7919,-3.7696,-3.7871,-3.818,-3.8772,-3.982,-4.0548,-4.0959,-4.1023,-4.0702,-3.9943,-3.9361,-3.9199,-3.9518,-4.0325,-4.1181,-4.2097,-4.3648,-4.4837,-4.5348,-4.5932,-4.64,-4.6715,-4.5971,-4.546,-4.5351,-4.5078,-4.5125,-4.5513,-4.6686,-4.7877,-4.8487,-4.7977,-4.7208,-4.7187,-4.7268,-4.7173,-4.8138,-4.8777,-4.9421,-5.0073,-5.0396,-5.0566,-5.0756,-5.0956,-5.1089,-5.1102,-5.1273,-5.1394,-5.1386,-5.1391,-5.1401,-5.1371,-5.103,-5.0601,-3.7535,-3.7345,-3.6874,-3.6483,-3.6242,-3.5269,-3.4632,-3.4065,0.0,0.0,0.0,-2.7888,-2.7668,-2.7729,-2.6894,-2.6402,-2.617,-2.4183,-2.3058,-2.2623,-2.162,-2.0879,-2.0508,-2.1017,-2.1615,-2.2262,-2.2692,-2.3224,-2.374,-2.3751,-2.3139,-2.2145,-2.1201,-1.9816,-1.8215,-1.7976,-1.8584,-1.9817,-2.0488,-2.0686,-2.0257,-2.1239,-2.2541,-2.4341,-2.5681,-2.7023,-2.8335,-2.9225,-3.0292,-3.1638,-3.231,-3.3143,-3.4129,-3.4903,-3.5716,-3.6586,-3.7318,-3.784,-3.8012,-3.7888,-3.7515,-3.6785,-3.7027,-3.7907,-3.9658,-3.9812,-4.0172,-4.0992,-4.1344,-4.1214,-4.0679,-4.0456,-4.0287,-4.0221,-4.1476,-4.2471,-4.2884,-4.4466,-4.5648,-4.5753,-4.6106,-4.6439,-4.6681,-4.5787,-4.4985,-4.4862,-4.4533,-4.4349,-4.5633,-4.6916,-4.7627,-4.767,-4.7563,-4.7611,-4.758,-4.7975,-4.8633,-4.8475,-4.9311,-5.0019,-5.0188,-5.0371,-5.0544,-5.0682,-5.0913,-5.1042,-5.11,-5.1256,-5.1382,-5.1394,-5.1394,-5.1391,-5.1316,-5.0591,-4.9973,-3.7524,-3.6965,-3.6926,-3.6454,-3.5863,-3.5322,-3.4252,-3.2903,-3.2027,-3.1144,-3.0268,-2.9434,-2.9054,-2.9144,-2.7779,-2.6902,-2.6311,-2.4519,-2.3412,-2.2789,-2.1619,-2.1118,-2.1221,-2.1599,-2.2143,-2.2852,-2.3497,-2.3936,-2.4334,-2.4189,-2.3824,-2.3213,-2.2124,-2.0429,-1.8533,-1.8455,-1.8354,-1.8151,-2.0325,-2.1478,-2.1364,-2.3441,-2.483,-2.5525,-2.6625,-2.7626,-2.8347,-2.9225,-2.9985,-3.0623,-3.1944,-3.2612,-3.254,-3.3788,-3.4845,-3.5561,-3.6402,-3.7334,-3.8357,-3.8419,-3.8384,-3.8187,-3.8148,-3.838,-3.8862,-3.9173,-3.9933,-4.1444,-4.1083,-4.1367,-4.2716,-4.2152,-4.1995,-4.2875,-4.3296,-4.3652,-4.4059,-4.4857,-4.5799,-4.6783,-4.636,-4.6393,-4.7067,-4.6231,-4.5423,-4.5496,-4.5275,-4.5717,-4.682,-4.7887,-4.8071,-4.7573,-4.7117,-4.6936,-4.7161,-4.7239,-4.7852,-4.856,-4.9423,-5.0038,-5.0255,-5.0416,-5.0544,-5.0664,-5.0887,-5.1011,-5.1093,-5.1211,-5.132,-5.1382,-5.1356,-5.1349,-5.1346,-5.0225,-4.935,-3.7626,-3.7454,-3.7568,-3.7205,-3.6527,-3.5747,-3.4753,-3.3594,-3.3282,-3.2178,-3.0705,-3.0011,-2.9523,-2.9114,-2.815,-2.7455,-2.6934,-2.5776,-2.4885,-2.4243,-2.3331,-2.2638,-2.2295,-2.2521,-2.2841,-2.3372,-2.3813,-2.425,-2.4646,-2.4562,-2.4345,-2.3824,-2.2349,-2.0449,-1.8499,-1.8733,-1.8506,-1.775,-1.9301,-2.0288,-2.0554,-2.232,-2.3587,-2.4211,-2.5484,-2.6648,-2.7533,-2.8371,-2.932,-3.0272,-3.1494,-3.2246,-3.2589,-3.3547,-3.4608,-3.5605,-3.6432,-3.7292,-3.8116,-3.8451,-3.8511,-3.8278,-3.8528,-3.8714,-3.8739,-3.9511,-4.032,-4.1068,-4.1324,-4.1739,-4.2514,-4.2361,-4.2498,-4.3173,-4.3778,-4.4328,-4.4763,-4.5901,-4.6749,-4.6983,-4.6844,-4.6843,-4.7229,-4.5966,-4.5217,-4.5453,-4.5777,-4.6408,-4.7398,-4.8317,-4.876,-4.8317,-4.7779,-4.7535,-4.7644,-4.7464,-4.7776,-4.8694,-4.9253,-4.972,-5.0172,-5.0438,-5.0566,-5.0644,-5.0874,-5.1017,-5.1056,-5.1171,-5.1284,-5.1335,-5.1362,-5.1372,-5.1196,-5.0074,-4.8828,-3.7817,-3.7992,-3.8107,-3.7743,-3.6997,-3.6196,-3.5225,-3.4263,-3.4033,-3.2794,-3.1057,-3.0463,-2.9923,-2.9228,-2.8438,-2.788,-2.7536,-2.6891,-2.621,-2.5672,-2.4811,-2.407,-2.3372,-2.3372,-2.3519,-2.374,-2.4189,-2.4574,-2.4849,-2.4933,-2.4634,-2.4043,-2.251,-2.074,-1.8816,-1.912,-1.8833,-1.8045,-1.8737,-1.928,-1.963,-2.1042,-2.2157,-2.2872,-2.4337,-2.5684,-2.6741,-2.7615,-2.8727,-3.001,-3.1008,-3.1845,-3.2671,-3.3394,-3.4328,-3.5551,-3.6274,-3.7039,-3.7825,-3.8364,-3.8567,-3.8327,-3.8805,-3.9023,-3.911,-3.9987,-4.0611,-4.0686,-4.1479,-4.203,-4.2015,-4.2378,-4.2734,-4.2995,-4.3851,-4.4573,-4.5123,-4.6488,-4.7391,-4.6955,-4.7032,-4.7,-4.6871,-4.5854,-4.5181,-4.5473,-4.6221,-4.7034,-4.7537,-4.8455,-4.9123,-4.9006,-4.8383,-4.7826,-4.807,-4.7579,-4.7547,-4.8357,-4.864,-4.9083,-4.9739,-5.0157,-5.0452,-5.0548,-5.0877,-5.1037,-5.1056,-5.118,-5.1284,-5.1342,-5.1369,-5.1313,-5.1008,-4.9895,-4.8496,-3.796,-3.8123,-3.7927,-3.7449,-3.6723,-3.6305,-3.5198,-3.382,-3.3609,-3.2824,-3.1547,-3.124,-3.0745,-3.0021,-2.8831,-2.8224,-2.7974,-2.7268,-2.6726,-2.6213,-2.5158,-2.4432,-2.4043,-2.3897,-2.3824,-2.397,-2.4622,-2.4981,-2.5052,-2.5182,-2.4826,-2.3959,-2.3043,-2.1821,-2.0391,-1.9655,-1.9227,-1.9185,-1.9338,-1.9462,-1.9542,-2.1307,-2.2492,-2.2755,-2.4327,-2.5706,-2.6798,-2.7475,-2.8357,-2.9431,-3.0482,-3.1389,-3.2152,-3.2899,-3.3787,-3.48,-3.5484,-3.6398,-3.7732,-3.8432,-3.8805,-3.8914,-3.9148,-3.9379,-3.9556,-4.0087,-4.0453,-4.058,-4.1226,-4.1884,-4.2315,-4.2788,-4.3124,-4.3355,-4.3822,-4.4408,-4.5233,-4.5848,-4.6426,-4.7227,-4.6739,-4.6624,-4.7232,-4.6582,-4.5938,-4.5884,-4.6997,-4.7697,-4.7461,-4.8378,-4.9296,-4.9224,-4.8333,-4.7523,-4.7477,-4.6922,-4.6748,-4.6942,-4.7458,-4.8264,-4.9015,-4.9447,-4.9663,-5.0529,-5.0761,-5.0901,-5.1117,-5.122,-5.1256,-5.133,-5.131,-5.1174,-5.0386,-4.9493,-4.8482,-3.6781,-3.6892,-3.6925,-3.6444,-3.568,-3.5508,-3.4676,-3.3275,-3.3068,-3.2384,-3.1376,-3.1154,-3.069,-3.0086,-2.9155,-2.8509,-2.8079,-2.7523,-2.696,-2.6414,-2.5931,-2.5312,-2.4634,-2.4622,-2.4478,-2.4345,-2.4838,-2.5111,-2.5111,-2.5182,-2.4754,-2.3959,-2.3434,-2.2446,-2.1001,-2.0304,-1.9893,-1.9661,-1.9985,-2.0134,-2.0254,-2.1423,-2.2511,-2.3018,-2.4145,-2.5359,-2.655,-2.7521,-2.8405,-2.9248,-3.024,-3.1169,-3.2018,-3.2657,-3.3479,-3.4616,-3.58,-3.6845,-3.7812,-3.8511,-3.8969,-3.9148,-3.9484,-3.9677,-3.9799,-4.0319,-4.0594,-4.0611,-4.1283,-4.1831,-4.2008,-4.2537,-4.2976,-4.3159,-4.3575,-4.4085,-4.4507,-4.5694,-4.6544,-4.6512,-4.6739,-4.7036,-4.7414,-4.7213,-4.708,-4.725,-4.7974,-4.816,-4.8314,-4.9039,-4.9194,-4.8907,-4.8343,-4.7924,-4.7453,-4.6388,-4.6107,-4.6424,-4.683,-4.7463,-4.8692,-4.876,-4.9046,-5.0375,-5.0468,-5.0655,-5.1056,-5.1161,-5.1239,-5.1277,-5.133,-5.1135,-5.027,-4.9405,-4.8562,-3.5806,-3.5899,-3.5985,-3.553,-3.4767,-3.4713,-3.3952,-3.2845,-3.2537,-3.1845,-3.0893,-3.0782,-3.0453,-2.9873,-2.9279,-2.8702,-2.821,-2.7736,-2.7175,-2.6552,-2.6427,-2.5873,-2.4992,-2.4921,-2.4778,-2.4562,-2.4849,-2.5052,-2.5052,-2.5052,-2.4693,-2.4152,-2.3806,-2.3037,-2.1665,-2.1291,-2.0886,-2.041,-2.082,-2.1059,-2.1116,-2.185,-2.2608,-2.3193,-2.4145,-2.5253,-2.6434,-2.7451,-2.8288,-2.901,-3.0011,-3.1078,-3.1957,-3.2454,-3.3339,-3.4668,-3.6054,-3.7121,-3.7907,-3.8553,-3.9068,-3.9466,-3.9776,-3.9884,-3.9952,-4.0417,-4.0707,-4.0645,-4.1209,-4.1613,-4.1744,-4.2216,-4.2616,-4.2752,-4.3266,-4.3649,-4.4099,-4.5467,-4.612,-4.5829,-4.6345,-4.7117,-4.7448,-4.7827,-4.8287,-4.8314,-4.8343,-4.8342,-4.8754,-4.8802,-4.8654,-4.8117,-4.8056,-4.7858,-4.7384,-4.6525,-4.6053,-4.6137,-4.6505,-4.6813,-4.8367,-4.8298,-4.8789,-5.0199,-5.0089,-5.03,-5.092,-5.1147,-5.0958,-5.0945,-5.0918,-5.0674,-4.9751,-4.899,-4.8289,-3.5602,-3.557,-3.5443,-3.4986,-3.4398,-3.4074,-3.3337,-3.2287,-3.1953,-3.1404,-3.0638,-3.0305,-3.0017,-2.9769,-2.9149,-2.8753,-2.8444,-2.7855,-2.7323,-2.6905,-2.6508,-2.5873,-2.5241,-2.4766,-2.4418,-2.4345,-2.4634,-2.4945,-2.5088,-2.4933,-2.4746,-2.4503,-2.4167,-2.3405,-2.2585,-2.2521,-2.2269,-2.1534,-2.1796,-2.2131,-2.224,-2.2599,-2.296,-2.3551,-2.4584,-2.5527,-2.6467,-2.7323,-2.8134,-2.8774,-2.9834,-3.0836,-3.1763,-3.2427,-3.3437,-3.4802,-3.5925,-3.6956,-3.7871,-3.8412,-3.9011,-3.9869,-3.994,-3.9884,-3.9969,-4.0483,-4.0724,-4.0517,-4.0977,-4.1346,-4.1587,-4.1941,-4.2274,-4.2552,-4.2806,-4.3341,-4.4126,-4.472,-4.5082,-4.5119,-4.5704,-4.6477,-4.72,-4.8764,-4.9031,-4.8673,-4.839,-4.8249,-4.7759,-4.7495,-4.7464,-4.7318,-4.7043,-4.6681,-4.7213,-4.6549,-4.6304,-4.6292,-4.6027,-4.6009,-4.7146,-4.8241,-4.9181,-4.9946,-4.9985,-5.0264,-5.0836,-5.0891,-5.0538,-5.0325,-5.0107,-4.9695,-4.8943,-4.8144,-4.756,-3.4051,-3.3997,-3.4384,-3.3917,-3.3012,-3.3221,-3.2645,-3.1575,-3.1441,-3.0981,-3.043,-3.0172,-2.9974,-2.9747,-2.9261,-2.8844,-2.8522,-2.7987,-2.7443,-2.704,-2.6837,-2.6289,-2.5535,-2.517,-2.4766,-2.449,-2.4574,-2.4882,-2.5262,-2.4714,-2.4441,-2.4487,-2.3857,-2.3329,-2.3073,-2.2793,-2.2595,-2.2552,-2.2506,-2.2437,-2.2492,-2.3057,-2.357,-2.3897,-2.4498,-2.52,-2.6063,-2.7357,-2.8184,-2.8542,-2.9831,-3.0963,-3.189,-3.3276,-3.4309,-3.4942,-3.6045,-3.7136,-3.7996,-3.8195,-3.8877,-4.004,-4.0079,-4.0104,-4.0337,-4.0741,-4.1024,-4.0965,-4.1041,-4.1272,-4.1307,-4.156,-4.1744,-4.1977,-4.2391,-4.2817,-4.3315,-4.4035,-4.454,-4.4545,-4.5522,-4.6826,-4.7306,-4.8626,-4.9466,-4.9211,-4.8681,-4.8152,-4.7861,-4.7504,-4.6984,-4.6724,-4.6879,-4.7058,-4.6697,-4.6115,-4.5671,-4.566,-4.5625,-4.6012,-4.6877,-4.6856,-4.7523,-4.8789,-4.9235,-4.9311,-4.955,-4.9692,-4.9473,-4.9282,-4.9061,-4.8788,-4.8046,-4.7473,-4.7081,-3.2904,-3.2734,-3.3208,-3.2869,-3.2083,-3.2379,-3.1972,-3.1146,-3.1028,-3.0762,-3.0462,-3.028,-3.0097,-2.9837,-2.9477,-2.8972,-2.8587,-2.8131,-2.7761,-2.742,-2.7062,-2.6684,-2.6162,-2.5468,-2.4908,-2.4615,-2.4487,-2.4676,-2.5066,-2.4434,-2.4243,-2.4416,-2.3835,-2.3558,-2.352,-2.3398,-2.3338,-2.319,-2.3043,-2.2938,-2.2765,-2.3396,-2.4003,-2.4337,-2.4584,-2.5105,-2.5979,-2.7158,-2.8057,-2.8506,-2.9686,-3.0862,-3.1998,-3.3615,-3.4636,-3.4815,-3.5992,-3.7247,-3.8216,-3.8293,-3.8875,-4.0268,-4.0378,-4.0358,-4.0389,-4.0789,-4.1059,-4.1123,-4.1215,-4.1244,-4.1307,-4.138,-4.1515,-4.1692,-4.2121,-4.2409,-4.2566,-4.3333,-4.3689,-4.3925,-4.5119,-4.6258,-4.6934,-4.8028,-4.8865,-4.9389,-4.8464,-4.7777,-4.7717,-4.6939,-4.624,-4.5783,-4.6171,-4.6273,-4.6206,-4.5852,-4.5881,-4.5906,-4.5502,-4.5893,-4.6206,-4.601,-4.6328,-4.7532,-4.8041,-4.8024,-4.8139,-4.8327,-4.8277,-4.8108,-4.8029,-4.7881,-4.7358,-4.6941,-4.6649,-3.2216,-3.1936,-3.1905,-3.1838,-3.1552,-3.1554,-3.1366,-3.1073,-3.0895,-3.0762,-3.0702,-3.0447,-3.0205,-3.005,-2.9665,-2.9226,-2.8587,-2.8197,-2.8119,-2.8069,-2.7203,-2.6942,-2.7103,-2.5613,-2.4798,-2.4614,-2.4356,-2.4319,-2.4545,-2.4185,-2.4073,-2.4254,-2.4026,-2.382,-2.3796,-2.4336,-2.4331,-2.3635,-2.3791,-2.3724,-2.3232,-2.358,-2.409,-2.4498,-2.4935,-2.5454,-2.6146,-2.6869,-2.7696,-2.845,-2.9374,-3.0482,-3.2125,-3.3612,-3.4342,-3.4762,-3.5733,-3.7131,-3.8552,-3.856,-3.8998,-4.0284,-4.0663,-4.0452,-4.0172,-4.0534,-4.0965,-4.1093,-4.1261,-4.1426,-4.1515,-4.156,-4.1648,-4.1797,-4.1927,-4.2097,-4.2287,-4.2534,-4.2864,-4.3341,-4.4303,-4.5055,-4.5915,-4.7046,-4.8014,-4.8445,-4.7764,-4.6962,-4.6982,-4.5914,-4.4877,-4.4858,-4.523,-4.5461,-4.5593,-4.5757,-4.6148,-4.6342,-4.5783,-4.5671,-4.609,-4.6108,-4.6294,-4.7229,-4.7391,-4.741,-4.7376,-4.7506,-4.7429,-4.7284,-4.7171,-4.7017,-4.6654,-4.6329,-4.6255,-3.1766,-3.1509,-3.148,-3.1379,-3.1234,-3.1234,-3.1073,-3.0895,-3.0836,-3.0747,-3.0642,-3.0387,-3.0129,-2.9837,-2.9512,-2.9085,-2.8587,-2.8276,-2.7921,-2.7624,-2.7346,-2.6917,-2.6399,-2.5634,-2.498,-2.4515,-2.4613,-2.4694,-2.4551,-2.4141,-2.4073,-2.4198,-2.3771,-2.3755,-2.4183,-2.4218,-2.4051,-2.4111,-2.4125,-2.4024,-2.3667,-2.3927,-2.4272,-2.4765,-2.5031,-2.5622,-2.6467,-2.7174,-2.7906,-2.8515,-2.9898,-3.1551,-3.3144,-3.4302,-3.5123,-3.5708,-3.6285,-3.7443,-3.8893,-3.8684,-3.8885,-4.0113,-4.0545,-4.0324,-4.0019,-4.0485,-4.0888,-4.0982,-4.1134,-4.13,-4.1363,-4.1498,-4.1684,-4.1648,-4.178,-4.1884,-4.2037,-4.2351,-4.2652,-4.2992,-4.3853,-4.4656,-4.5294,-4.6338,-4.7457,-4.7837,-4.7159,-4.6624,-4.6427,-4.5342,-4.4439,-4.4551,-4.4712,-4.4908,-4.5238,-4.5765,-4.6363,-4.6466,-4.602,-4.5681,-4.6009,-4.6052,-4.6318,-4.6521,-4.67,-4.6754,-4.6719,-4.6661,-4.6584,-4.6429,-4.6302,-4.6114,-4.591,-4.586,-4.5899,-3.119,-3.091,-3.113,-3.1026,-3.0775,-3.1024,-3.0921,-3.0565,-3.0536,-3.0476,-3.0444,-3.0524,-3.0287,-3.0031,-2.9959,-2.9481,-2.8729,-2.8452,-2.7933,-2.7307,-2.7268,-2.7074,-2.6635,-2.6058,-2.5217,-2.4415,-2.4499,-2.4648,-2.4585,-2.4141,-2.3971,-2.41,-2.3768,-2.382,-2.4252,-2.4089,-2.4147,-2.4361,-2.4282,-2.411,-2.3927,-2.4024,-2.4537,-2.507,-2.5211,-2.5817,-2.6959,-2.7741,-2.8302,-2.8814,-3.0165,-3.1641,-3.2979,-3.4148,-3.5099,-3.5769,-3.6616,-3.7749,-3.9137,-3.9001,-3.9015,-4.0007,-4.0451,-4.032,-3.9929,-4.0221,-4.0631,-4.0823,-4.1319,-4.1568,-4.145,-4.1885,-4.2036,-4.1771,-4.1858,-4.1866,-4.1952,-4.2187,-4.2472,-4.2721,-4.3317,-4.3905,-4.4637,-4.5663,-4.6875,-4.7111,-4.6755,-4.6409,-4.6108,-4.5108,-4.4599,-4.4364,-4.456,-4.4782,-4.5033,-4.5713,-4.654,-4.6483,-4.6254,-4.6058,-4.6137,-4.5763,-4.5745,-4.5928,-4.6105,-4.6166,-4.613,-4.5998,-4.5902,-4.569,-4.5671,-4.5703,-4.575,-4.5761,-4.5791,-3.0551,-3.024,-3.084,-3.0859,-3.0459,-3.0998,-3.0821,-3.0254,-3.015,-3.0107,-3.0178,-3.0608,-3.058,-3.0304,-3.0342,-2.9862,-2.9079,-2.869,-2.8127,-2.7365,-2.7122,-2.7251,-2.7299,-2.638,-2.5326,-2.4388,-2.4292,-2.4388,-2.4565,-2.4192,-2.3943,-2.4005,-2.4047,-2.4051,-2.4216,-2.4345,-2.4399,-2.4399,-2.4323,-2.412,-2.3998,-2.4171,-2.4691,-2.5567,-2.5433,-2.6098,-2.7433,-2.8353,-2.8913,-2.9132,-3.0316,-3.1326,-3.2022,-3.3424,-3.4524,-3.5211,-3.6649,-3.7872,-3.8987,-3.9298,-3.9497,-3.9547,-4.0189,-4.0385,-3.9524,-3.985,-4.0387,-4.0731,-4.1635,-4.2137,-4.1918,-4.2414,-4.2617,-4.2129,-4.1945,-4.1987,-4.215,-4.2228,-4.246,-4.2606,-4.2691,-4.2936,-4.3891,-4.4808,-4.5767,-4.636,-4.6176,-4.5987,-4.5793,-4.4967,-4.424,-4.4181,-4.4345,-4.4812,-4.5148,-4.614,-4.6967,-4.739,-4.7029,-4.6678,-4.6221,-4.5681,-4.54,-4.5547,-4.5599,-4.562,-4.5657,-4.562,-4.562,-4.562,-4.562,-4.564,-4.5712,-4.5783,-4.5976,-3.0893,-3.082,-3.134,-3.1511,-3.1361,-3.1211,-3.0828,-3.0418,-3.0284,-2.9876,-2.9644,-3.0256,-3.0196,-2.9629,-2.9349,-2.9209,-2.9095,-2.8473,-2.7976,-2.7639,-2.75,-2.6839,-2.6287,-2.596,-2.5252,-2.4372,-2.4533,-2.4665,-2.4677,-2.4654,-2.4505,-2.4314,-2.4382,-2.4458,-2.436,-2.4399,-2.4777,-2.5131,-2.4836,-2.4716,-2.482,-2.5016,-2.5427,-2.5773,-2.5893,-2.6639,-2.7863,-2.9098,-3.0141,-3.0959,-3.1254,-3.2109,-3.3038,-3.3745,-3.4748,-3.6244,-3.6809,-3.7579,-3.8575,-3.8877,-3.8852,-3.8823,-3.9473,-3.9642,-3.9338,-3.9867,-4.0288,-4.072,-4.1639,-4.234,-4.2306,-4.2758,-4.2731,-4.2197,-4.2041,-4.2192,-4.265,-4.2931,-4.3077,-4.3239,-4.335,-4.3346,-4.33,-4.3909,-4.4719,-4.5073,-4.5205,-4.5168,-4.5219,-4.4699,-4.3933,-4.3947,-4.4153,-4.4786,-4.5471,-4.6531,-4.7413,-4.8194,-4.8011,-4.7454,-4.6663,-4.5709,-4.5553,-4.5549,-4.5494,-4.5457,-4.5568,-4.5603,-4.5586,-4.5568,-4.5586,-4.5622,-4.5873,-4.6025,-4.6373,-3.0486,-3.046,-3.1055,-3.1168,-3.0956,-3.0878,-3.0517,-2.9973,-2.9725,-2.9352,-2.9026,-2.9536,-2.9565,-2.8999,-2.8897,-2.8821,-2.8703,-2.8055,-2.7621,-2.729,-2.7001,-2.6343,-2.5601,-2.5562,-2.5298,-2.4761,-2.4849,-2.5113,-2.5233,-2.5256,-2.5017,-2.4724,-2.4791,-2.4727,-2.4401,-2.4501,-2.4829,-2.5267,-2.4951,-2.4843,-2.5192,-2.5311,-2.5799,-2.6059,-2.6408,-2.713,-2.8779,-3.0174,-3.1232,-3.1655,-3.1705,-3.2136,-3.3171,-3.3791,-3.4863,-3.6654,-3.7155,-3.7851,-3.8427,-3.8689,-3.8592,-3.8404,-3.8762,-3.9023,-3.9199,-3.9773,-4.0374,-4.0588,-4.2063,-4.2705,-4.2544,-4.2836,-4.289,-4.2597,-4.2491,-4.2686,-4.3215,-4.3326,-4.3507,-4.365,-4.3737,-4.3548,-4.2793,-4.3526,-4.4147,-4.4663,-4.5071,-4.5094,-4.5059,-4.4345,-4.3864,-4.3904,-4.4082,-4.4661,-4.5554,-4.661,-4.755,-4.8356,-4.8477,-4.8003,-4.6833,-4.5734,-4.5507,-4.54,-4.5341,-4.5362,-4.5457,-4.555,-4.5513,-4.5513,-4.5531,-4.5627,-4.5839,-4.6434,-4.6799,-2.9797,-2.9757,-3.0567,-3.0432,-2.9961,-3.0227,-2.9928,-2.91,-2.879,-2.85,-2.8344,-2.8678,-2.8792,-2.8425,-2.8612,-2.8601,-2.7985,-2.7685,-2.7227,-2.6726,-2.6294,-2.5649,-2.5361,-2.5342,-2.5331,-2.5078,-2.5136,-2.5506,-2.5789,-2.5873,-2.554,-2.5172,-2.515,-2.4897,-2.4573,-2.4577,-2.483,-2.5269,-2.5114,-2.5176,-2.5451,-2.5633,-2.6046,-2.6657,-2.7277,-2.8099,-2.9782,-3.112,-3.2006,-3.2081,-3.1586,-3.1902,-3.2651,-3.3473,-3.4706,-3.6093,-3.7322,-3.8091,-3.8441,-3.8788,-3.8888,-3.8402,-3.8509,-3.8825,-3.9177,-3.9891,-4.0464,-4.0882,-4.2826,-4.3335,-4.2962,-4.3012,-4.3085,-4.3032,-4.3162,-4.338,-4.3679,-4.3805,-4.393,-4.4151,-4.4106,-4.3624,-4.3322,-4.3451,-4.4047,-4.3927,-4.4297,-4.4358,-4.4361,-4.4054,-4.3833,-4.3901,-4.4195,-4.4573,-4.5587,-4.6679,-4.756,-4.838,-4.8483,-4.8056,-4.6689,-4.5789,-4.543,-4.5233,-4.5194,-4.5262,-4.5419,-4.5476,-4.5438,-4.5476,-4.5495,-4.5553,-4.5726,-4.6666,-4.7261,-3.0319,-3.0375,-3.1021,-3.0992,-3.0466,-3.0069,-2.936,-2.8571,-2.8422,-2.7943,-2.7621,-2.8164,-2.8235,-2.7971,-2.7819,-2.7868,-2.7982,-2.7419,-2.6968,-2.6609,-2.5469,-2.5099,-2.5052,-2.5051,-2.5061,-2.5021,-2.501,-2.5505,-2.6161,-2.6301,-2.5973,-2.548,-2.5475,-2.5308,-2.4617,-2.4997,-2.5549,-2.5905,-2.5863,-2.5851,-2.6194,-2.6389,-2.6725,-2.7259,-2.8553,-2.937,-2.9856,-3.1329,-3.2301,-3.2307,-3.2217,-3.2332,-3.2919,-3.3347,-3.4541,-3.6151,-3.7236,-3.7886,-3.8225,-3.8681,-3.902,-3.8629,-3.8591,-3.8877,-3.9817,-4.0219,-4.0942,-4.1831,-4.3305,-4.3905,-4.3633,-4.3629,-4.3585,-4.3412,-4.349,-4.4011,-4.5007,-4.5326,-4.5329,-4.5432,-4.5024,-4.4425,-4.3656,-4.2983,-4.3202,-4.3264,-4.3379,-4.3459,-4.3592,-4.3704,-4.3743,-4.3797,-4.4301,-4.4831,-4.6108,-4.7093,-4.7916,-4.8494,-4.8579,-4.79,-4.6584,-4.6006,-4.5735,-4.5366,-4.5014,-4.5154,-4.5301,-4.5341,-4.5301,-4.5361,-4.5458,-4.5611,-4.5956,-4.6896,-4.7566,-2.9439,-2.9596,-2.9797,-2.9722,-2.9388,-2.8958,-2.8505,-2.7981,-2.7764,-2.7417,-2.7016,-2.7399,-2.7366,-2.7126,-2.6917,-2.7009,-2.7139,-2.7033,-2.6621,-2.6247,-2.5553,-2.5194,-2.4848,-2.4904,-2.5027,-2.5268,-2.5566,-2.6106,-2.6554,-2.6634,-2.624,-2.5585,-2.5681,-2.5241,-2.4714,-2.5141,-2.5576,-2.5951,-2.6066,-2.6194,-2.6588,-2.6867,-2.7292,-2.8045,-2.95,-3.0419,-3.0366,-3.1858,-3.2509,-3.2561,-3.2559,-3.288,-3.3369,-3.3779,-3.484,-3.6225,-3.7201,-3.7608,-3.7956,-3.8417,-3.8728,-3.8681,-3.8653,-3.9265,-4.0087,-4.0629,-4.1293,-4.2219,-4.3348,-4.4231,-4.4103,-4.4371,-4.4214,-4.4195,-4.4227,-4.4956,-4.5927,-4.595,-4.5773,-4.5773,-4.5036,-4.433,-4.3625,-4.2987,-4.2992,-4.3346,-4.361,-4.3671,-4.3821,-4.3919,-4.3668,-4.3798,-4.438,-4.5229,-4.6605,-4.761,-4.8345,-4.8746,-4.8813,-4.7758,-4.6327,-4.6148,-4.6145,-4.5545,-4.487,-4.4991,-4.5109,-4.5132,-4.5154,-4.5237,-4.5356,-4.5626,-4.5991,-4.6565,-4.7253,-2.817,-2.8457,-2.8105,-2.7973,-2.7842,-2.7789,-2.7616,-2.7348,-2.7053,-2.6888,-2.6645,-2.6533,-2.6534,-2.6238,-2.6251,-2.6074,-2.6058,-2.6245,-2.6233,-2.5822,-2.5697,-2.5324,-2.4987,-2.5027,-2.523,-2.5753,-2.5994,-2.6428,-2.6699,-2.6798,-2.6367,-2.5684,-2.5527,-2.5253,-2.4794,-2.5078,-2.5533,-2.5934,-2.6225,-2.6453,-2.6765,-2.7013,-2.745,-2.8348,-2.9852,-3.0695,-3.0985,-3.2104,-3.2867,-3.2655,-3.288,-3.3349,-3.3847,-3.4295,-3.5072,-3.6336,-3.7092,-3.7566,-3.7916,-3.8317,-3.8641,-3.8698,-3.8939,-3.9518,-4.0338,-4.1039,-4.1697,-4.2589,-4.3529,-4.4405,-4.4303,-4.4485,-4.4782,-4.4927,-4.5153,-4.5804,-4.6265,-4.5771,-4.5695,-4.5688,-4.4993,-4.4139,-4.3602,-4.306,-4.3256,-4.3409,-4.3638,-4.379,-4.3888,-4.3912,-4.3552,-4.3759,-4.4364,-4.5563,-4.6977,-4.7204,-4.8052,-4.8329,-4.8566,-4.7427,-4.6102,-4.597,-4.5782,-4.516,-4.4719,-4.4821,-4.4895,-4.4943,-4.4991,-4.508,-4.5243,-4.5461,-4.5808,-4.6214,-4.6972,-2.8039,-2.8105,-2.8039,-2.7762,-2.7377,-2.7297,-2.704,-2.6726,-2.6589,-2.6589,-2.6533,-2.6352,-2.6288,-2.6193,-2.6005,-2.5853,-2.5847,-2.5873,-2.5717,-2.5419,-2.5326,-2.5121,-2.5106,-2.5222,-2.5474,-2.5746,-2.5936,-2.6217,-2.6532,-2.6644,-2.6302,-2.5895,-2.5633,-2.5285,-2.5144,-2.5472,-2.5771,-2.6051,-2.6537,-2.6962,-2.7128,-2.7264,-2.7524,-2.8272,-2.9761,-3.0636,-3.1141,-3.2043,-3.2846,-3.3028,-3.3344,-3.3791,-3.4202,-3.4407,-3.5181,-3.6225,-3.6929,-3.7496,-3.8044,-3.8649,-3.9313,-3.9695,-3.9677,-3.9998,-4.0763,-4.1341,-4.202,-4.3107,-4.4002,-4.467,-4.4094,-4.444,-4.4591,-4.4774,-4.5019,-4.5311,-4.5552,-4.5534,-4.5454,-4.5507,-4.4698,-4.4094,-4.3756,-4.3337,-4.3161,-4.3084,-4.3005,-4.3086,-4.3131,-4.3228,-4.3217,-4.3663,-4.4363,-4.5823,-4.7345,-4.7111,-4.726,-4.7425,-4.7435,-4.6805,-4.5856,-4.5648,-4.5331,-4.4777,-4.4542,-4.4578,-4.4659,-4.4738,-4.4821,-4.4895,-4.5105,-4.5289,-4.5681,-4.6126,-4.7095,-2.7288,-2.7562,-2.7101,-2.6947,-2.6918,-2.6609,-2.6452,-2.6188,-2.6188,-2.6176,-2.6362,-2.6593,-2.6646,-2.6537,-2.6834,-2.6578,-2.5877,-2.5505,-2.5362,-2.529,-2.5385,-2.5248,-2.5131,-2.531,-2.5408,-2.5605,-2.5743,-2.6057,-2.6373,-2.6396,-2.6146,-2.5812,-2.5559,-2.5413,-2.5236,-2.5633,-2.5898,-2.6218,-2.6701,-2.7177,-2.7357,-2.7441,-2.7838,-2.8549,-2.967,-3.0582,-3.1109,-3.2068,-3.2797,-3.3056,-3.3398,-3.3856,-3.4241,-3.4643,-3.5144,-3.6163,-3.6772,-3.7317,-3.7991,-3.8575,-3.9205,-3.9692,-3.9964,-4.0525,-4.1084,-4.1564,-4.2245,-4.3327,-4.4219,-4.4715,-4.4536,-4.4644,-4.4872,-4.506,-4.5035,-4.5005,-4.504,-4.4882,-4.4997,-4.5098,-4.4671,-4.4316,-4.4258,-4.3784,-4.3172,-4.2803,-4.2555,-4.2471,-4.2499,-4.2656,-4.2883,-4.3387,-4.4088,-4.5349,-4.6724,-4.6834,-4.6613,-4.6686,-4.6615,-4.5985,-4.5563,-4.5354,-4.4969,-4.4483,-4.4381,-4.4401,-4.4458,-4.4524,-4.4632,-4.4738,-4.4921,-4.5133,-4.5532,-4.6149,-4.6982,-2.6437,-2.6831,-2.614,-2.6156,-2.6367,-2.6107,-2.591,-2.591,-2.584,-2.5984,-2.6193,-2.6797,-2.6883,-2.6797,-2.6866,-2.6764,-2.5728,-2.5117,-2.4853,-2.4919,-2.5321,-2.5308,-2.5112,-2.527,-2.5508,-2.5497,-2.5924,-2.6067,-2.6157,-2.6157,-2.599,-2.5728,-2.5644,-2.5456,-2.5232,-2.567,-2.5939,-2.6208,-2.6625,-2.7051,-2.7347,-2.782,-2.8279,-2.8664,-2.9852,-3.0644,-3.1223,-3.2052,-3.2723,-3.2982,-3.3313,-3.3725,-3.423,-3.4634,-3.5223,-3.6138,-3.647,-3.6943,-3.7625,-3.8292,-3.8943,-3.9421,-4.0231,-4.0783,-4.1307,-4.1738,-4.2459,-4.3399,-4.4064,-4.4519,-4.4657,-4.4944,-4.5093,-4.5096,-4.4956,-4.4809,-4.4598,-4.4495,-4.4624,-4.4657,-4.4572,-4.4617,-4.4615,-4.4551,-4.3988,-4.3237,-4.2912,-4.2537,-4.2565,-4.2544,-4.2735,-4.3113,-4.3778,-4.4856,-4.5833,-4.6446,-4.6238,-4.6091,-4.609,-4.5735,-4.535,-4.5058,-4.4606,-4.4221,-4.4214,-4.4237,-4.4285,-4.4344,-4.444,-4.4578,-4.4738,-4.4909,-4.5149,-4.5659,-4.6404,-2.5865,-2.5856,-2.5865,-2.5865,-2.5798,-2.5807,-2.5923,-2.5865,-2.5737,-2.6039,-2.6492,-2.6457,-2.6649,-2.6803,-2.5969,-2.5205,-2.4664,-2.4281,-2.4163,-2.4328,-2.4641,-2.4889,-2.4725,-2.5156,-2.5562,-2.5735,-2.6225,-2.6245,-2.6111,-2.6012,-2.5939,-2.5866,-2.5676,-2.5487,-2.528,-2.5664,-2.5836,-2.5849,-2.6525,-2.7094,-2.7526,-2.7914,-2.8549,-2.9371,-3.0034,-3.0668,-3.1472,-3.2101,-3.255,-3.281,-3.3313,-3.381,-3.4147,-3.4743,-3.5304,-3.5884,-3.6298,-3.6786,-3.7471,-3.8217,-3.8797,-3.9292,-4.0036,-4.0539,-4.1221,-4.1916,-4.2601,-4.3113,-4.3772,-4.4196,-4.448,-4.4703,-4.4616,-4.4783,-4.4941,-4.4292,-4.3807,-4.4699,-4.4776,-4.4971,-4.5174,-4.508,-4.4991,-4.4964,-4.4804,-4.4021,-4.3286,-4.2912,-4.2614,-4.2629,-4.2588,-4.291,-4.3536,-4.4602,-4.5257,-4.5801,-4.5993,-4.5718,-4.5542,-4.5469,-4.5071,-4.4692,-4.4352,-4.4042,-4.4055,-4.4036,-4.4085,-4.4147,-4.4285,-4.4486,-4.472,-4.47,-4.4651,-4.5285,-4.6202,-2.5804,-2.5934,-2.5576,-2.5587,-2.5649,-2.5409,-2.5516,-2.5745,-2.5492,-2.5777,-2.6423,-2.6546,-2.696,-2.7112,-2.5837,-2.5071,-2.4869,-2.4459,-2.4349,-2.4534,-2.4848,-2.5281,-2.5891,-2.5859,-2.5902,-2.616,-2.6563,-2.6432,-2.6138,-2.6095,-2.631,-2.6223,-2.5923,-2.5915,-2.5559,-2.5779,-2.6183,-2.6506,-2.694,-2.7305,-2.762,-2.8008,-2.8477,-2.9024,-2.9943,-3.0668,-3.1205,-3.2038,-3.2463,-3.2723,-3.3142,-3.3654,-3.4147,-3.466,-3.5072,-3.6138,-3.6312,-3.6707,-3.7211,-3.8052,-3.8649,-3.9162,-3.9824,-4.0539,-4.1205,-4.1851,-4.2539,-4.2945,-4.3476,-4.3889,-4.4236,-4.4536,-4.4678,-4.4814,-4.4819,-4.4472,-4.4077,-4.4725,-4.5238,-4.5499,-4.5711,-4.5719,-4.5614,-4.5498,-4.5427,-4.4938,-4.4096,-4.3393,-4.3007,-4.2772,-4.2731,-4.2706,-4.348,-4.4343,-4.4821,-4.5352,-4.5772,-4.5602,-4.521,-4.5023,-4.4653,-4.4303,-4.3999,-4.3883,-4.3851,-4.3883,-4.3915,-4.4098,-4.4326,-4.4557,-4.4757,-4.4993,-4.5284,-4.6053,-4.6785,-2.557,-2.5797,-2.5345,-2.5252,-2.533,-2.4926,-2.5043,-2.537,-2.5136,-2.547,-2.6158,-2.6588,-2.7028,-2.7031,-2.5744,-2.5022,-2.5115,-2.4865,-2.474,-2.4883,-2.5374,-2.576,-2.5895,-2.5939,-2.6168,-2.6303,-2.6607,-2.6411,-2.6184,-2.6109,-2.6367,-2.6214,-2.5999,-2.5872,-2.5889,-2.5951,-2.6228,-2.6866,-2.7105,-2.7441,-2.7715,-2.8113,-2.8488,-2.9035,-2.976,-3.0578,-3.0937,-3.1673,-3.2288,-3.2636,-3.2982,-3.3484,-3.4063,-3.4481,-3.5072,-3.5898,-3.6246,-3.6628,-3.7226,-3.7901,-3.8501,-3.9162,-3.9809,-4.0662,-4.1153,-4.1736,-4.2174,-4.2618,-4.3129,-4.3595,-4.4023,-4.431,-4.4444,-4.4531,-4.4593,-4.4492,-4.452,-4.5047,-4.5396,-4.5517,-4.5882,-4.6547,-4.6443,-4.6166,-4.5944,-4.5739,-4.4971,-4.4,-4.3424,-4.2987,-4.2785,-4.2703,-4.3436,-4.4082,-4.4252,-4.4729,-4.5205,-4.5425,-4.5022,-4.4563,-4.4158,-4.3934,-4.3708,-4.3652,-4.38,-4.4122,-4.4391,-4.4387,-4.4433,-4.486,-4.5316,-4.5771,-4.6262,-4.6968,-4.7184,-2.5077,-2.4604,-2.521,-2.4966,-2.4214,-2.4665,-2.4698,-2.472,-2.4637,-2.5036,-2.5777,-2.6199,-2.6157,-2.5855,-2.557,-2.4902,-2.4178,-2.4376,-2.4232,-2.4366,-2.4703,-2.5221,-2.5488,-2.5797,-2.6034,-2.5733,-2.6302,-2.641,-2.6108,-2.64,-2.5861,-2.5117,-2.5925,-2.5507,-2.5518,-2.6072,-2.6414,-2.6927,-2.7146,-2.7536,-2.7914,-2.8301,-2.8768,-2.9508,-3.0045,-3.0578,-3.1217,-3.1572,-3.2025,-3.2487,-3.2822,-3.3398,-3.3894,-3.4397,-3.5059,-3.5817,-3.6232,-3.6628,-3.7226,-3.7901,-3.8723,-3.9451,-4.0091,-4.073,-4.1086,-4.1406,-4.1785,-4.2158,-4.268,-4.3174,-4.3595,-4.3914,-4.4131,-4.433,-4.4414,-4.4354,-4.456,-4.514,-4.5439,-4.5552,-4.5899,-4.6365,-4.6888,-4.6567,-4.648,-4.6292,-4.5606,-4.4652,-4.365,-4.3125,-4.2795,-4.2843,-4.3462,-4.3782,-4.363,-4.416,-4.5144,-4.5129,-4.4711,-4.4163,-4.365,-4.3484,-4.3649,-4.392,-4.4193,-4.4536,-4.4967,-4.523,-4.5454,-4.5562,-4.5898,-4.6551,-4.6997,-4.7519,-4.7462,-2.4902,-2.4493,-2.5004,-2.4948,-2.4358,-2.4236,-2.4548,-2.5004,-2.4854,-2.4908,-2.5268,-2.5535,-2.57,-2.5648,-2.5443,-2.5135,-2.4777,-2.5145,-2.474,-2.4659,-2.4898,-2.5459,-2.5654,-2.5741,-2.5868,-2.6094,-2.6566,-2.6562,-2.6182,-2.6587,-2.6333,-2.6087,-2.6206,-2.6497,-2.6654,-2.6689,-2.6993,-2.7002,-2.7241,-2.7631,-2.7998,-2.829,-2.8768,-2.9324,-3.0045,-3.0397,-3.0847,-3.1395,-3.1937,-3.2388,-3.2736,-3.3313,-3.3979,-3.4397,-3.5059,-3.5898,-3.6312,-3.6693,-3.7303,-3.7976,-3.8723,-3.9681,-4.0316,-4.073,-4.0882,-4.1189,-4.1522,-4.19,-4.2349,-4.2851,-4.3129,-4.3535,-4.3848,-4.4097,-4.4211,-4.4192,-4.4492,-4.5043,-4.5224,-4.5141,-4.5374,-4.5811,-4.6383,-4.6852,-4.6829,-4.6784,-4.6079,-4.5312,-4.4268,-4.3382,-4.3107,-4.2884,-4.3472,-4.3862,-4.3713,-4.4424,-4.5243,-4.4849,-4.4398,-4.3961,-4.3579,-4.3796,-4.3997,-4.4291,-4.4729,-4.5223,-4.5751,-4.6274,-4.6428,-4.6304,-4.6778,-4.7513,-4.789,-4.8116,-4.7854,-2.4535,-2.418,-2.4367,-2.4551,-2.4549,-2.4064,-2.4379,-2.5082,-2.4682,-2.4661,-2.4898,-2.5091,-2.5409,-2.5669,-2.5586,-2.5336,-2.5277,-2.5524,-2.5326,-2.5284,-2.543,-2.5952,-2.6203,-2.6345,-2.632,-2.6631,-2.6647,-2.6536,-2.6124,-2.6934,-2.6732,-2.6533,-2.6702,-2.7093,-2.7147,-2.7672,-2.7661,-2.7326,-2.7441,-2.7631,-2.7904,-2.8196,-2.8757,-2.922,-2.9852,-3.0397,-3.0949,-3.1484,-3.1937,-3.23,-3.2723,-3.3398,-3.3979,-3.4564,-3.5154,-3.5898,-3.647,-3.6786,-3.738,-3.8202,-3.8797,-3.9625,-4.0191,-4.0455,-4.0715,-4.0987,-4.1339,-4.1507,-4.2077,-4.2539,-4.2759,-4.3218,-4.3638,-4.3855,-4.4158,-4.4219,-4.434,-4.473,-4.4716,-4.4692,-4.5099,-4.5593,-4.5799,-4.6389,-4.6835,-4.6722,-4.6168,-4.5579,-4.4973,-4.4161,-4.3596,-4.3411,-4.3463,-4.3706,-4.3971,-4.4393,-4.4726,-4.453,-4.4116,-4.3991,-4.381,-4.4059,-4.4442,-4.4835,-4.535,-4.5993,-4.6489,-4.6984,-4.6979,-4.6891,-4.7534,-4.8215,-4.8178,-4.8315,-4.8236,-2.3927,-2.3387,-2.3256,-2.369,-2.4365,-2.4157,-2.421,-2.4374,-2.4054,-2.4313,-2.4856,-2.5063,-2.5446,-2.5757,-2.5658,-2.5519,-2.5352,-2.5643,-2.5347,-2.5041,-2.5586,-2.6078,-2.6199,-2.623,-2.6441,-2.6277,-2.6414,-2.6386,-2.6111,-2.6582,-2.6725,-2.6985,-2.7308,-2.7485,-2.6835,-2.7374,-2.7376,-2.7115,-2.7441,-2.7641,-2.7915,-2.8314,-2.8773,-2.9516,-2.9976,-3.0456,-3.105,-3.1318,-3.1862,-3.23,-3.2736,-3.3326,-3.4076,-3.4559,-3.5139,-3.5884,-3.6287,-3.667,-3.707,-3.8337,-3.9031,-3.9481,-3.998,-4.0331,-4.0539,-4.0882,-4.1153,-4.1339,-4.1785,-4.2222,-4.2585,-4.2896,-4.3279,-4.3654,-4.3889,-4.3954,-4.4091,-4.398,-4.3889,-4.394,-4.4852,-4.5626,-4.5579,-4.587,-4.656,-4.6621,-4.615,-4.5766,-4.5383,-4.4938,-4.4296,-4.3911,-4.3763,-4.3924,-4.4132,-4.4093,-4.4173,-4.4032,-4.409,-4.4147,-4.4334,-4.4605,-4.5028,-4.5412,-4.6111,-4.683,-4.7236,-4.7624,-4.75,-4.748,-4.8136,-4.8651,-4.8595,-4.8389,-4.8107,-2.3785,-2.3652,-2.3549,-2.3963,-2.4339,-2.4074,-2.4119,-2.4506,-2.4266,-2.4285,-2.4751,-2.4948,-2.5098,-2.5331,-2.5461,-2.53,-2.5228,-2.5285,-2.5037,-2.4705,-2.53,-2.5332,-2.5534,-2.5868,-2.6191,-2.6441,-2.6443,-2.6609,-2.6837,-2.6879,-2.7076,-2.7483,-2.7793,-2.8088,-2.8006,-2.8071,-2.7798,-2.7893,-2.7946,-2.8041,-2.8529,-2.8635,-2.8983,-2.9818,-3.0086,-3.0503,-3.1085,-3.1241,-3.1685,-3.23,-3.2649,-3.3154,-3.3997,-3.4607,-3.5322,-3.5954,-3.6385,-3.7004,-3.7381,-3.8052,-3.8723,-3.9265,-3.9854,-4.0207,-4.0416,-4.0677,-4.095,-4.1221,-4.1538,-4.1964,-4.2222,-4.2492,-4.2805,-4.3113,-4.3333,-4.3256,-4.327,-4.3023,-4.2942,-4.3082,-4.3649,-4.4973,-4.5484,-4.5716,-4.6323,-4.6684,-4.6415,-4.6069,-4.573,-4.5472,-4.5027,-4.4511,-4.4296,-4.4328,-4.4402,-4.442,-4.4615,-4.4768,-4.4809,-4.4928,-4.5095,-4.524,-4.5715,-4.6208,-4.6943,-4.7624,-4.7761,-4.7837,-4.7931,-4.8102,-4.844,-4.8439,-4.8143,-4.7844,-4.7556,-2.3887,-2.3887,-2.3809,-2.3958,-2.4177,-2.4017,-2.4157,-2.4384,-2.4177,-2.4237,-2.4593,-2.4682,-2.4903,-2.5132,-2.504,-2.4958,-2.4938,-2.4764,-2.4661,-2.4344,-2.4682,-2.4999,-2.5245,-2.5601,-2.6331,-2.663,-2.6827,-2.6982,-2.7074,-2.7326,-2.7505,-2.7589,-2.7925,-2.8258,-2.8445,-2.8477,-2.8258,-2.8196,-2.8124,-2.8209,-2.8518,-2.8688,-2.8983,-2.9642,-3.0063,-3.0434,-3.0874,-3.1241,-3.1673,-3.2201,-3.2624,-3.2957,-3.3879,-3.4731,-3.5328,-3.5831,-3.6479,-3.7042,-3.7402,-3.7749,-3.8427,-3.8958,-3.9625,-3.9996,-4.0277,-4.0608,-4.0814,-4.1086,-4.1339,-4.1654,-4.1916,-4.2109,-4.2508,-4.2883,-4.3015,-4.302,-4.309,-4.2948,-4.2871,-4.2935,-4.3337,-4.4492,-4.5422,-4.5745,-4.6119,-4.6429,-4.6649,-4.634,-4.6021,-4.5879,-4.5648,-4.5169,-4.4876,-4.4947,-4.4918,-4.4814,-4.5048,-4.5407,-4.5513,-4.5562,-4.582,-4.5965,-4.6513,-4.6971,-4.7434,-4.7806,-4.7919,-4.8014,-4.7977,-4.8017,-4.8153,-4.8012,-4.7628,-4.7499,-4.7363,-2.4029,-2.4058,-2.3879,-2.3779,-2.3789,-2.391,-2.3959,-2.3809,-2.3789,-2.4068,-2.4555,-2.4376,-2.4675,-2.5228,-2.4755,-2.4444,-2.4513,-2.4179,-2.4109,-2.4162,-2.4704,-2.5048,-2.5574,-2.6133,-2.6472,-2.6812,-2.6924,-2.6853,-2.689,-2.7177,-2.7357,-2.7547,-2.7547,-2.8094,-2.8502,-2.8744,-2.8564,-2.8459,-2.8312,-2.8419,-2.8496,-2.8526,-2.8918,-2.9421,-2.9833,-3.04,-3.0898,-3.1365,-3.1849,-3.2251,-3.2562,-3.3079,-3.3781,-3.4705,-3.5152,-3.5831,-3.6615,-3.7037,-3.7346,-3.7796,-3.824,-3.8913,-3.9559,-3.9843,-4.0137,-4.0401,-4.0677,-4.0882,-4.1205,-4.139,-4.1654,-4.2045,-4.2445,-4.268,-4.2929,-4.3136,-4.3317,-4.3356,-4.3327,-4.3524,-4.3936,-4.4707,-4.5286,-4.5717,-4.5837,-4.6105,-4.635,-4.6394,-4.6194,-4.6324,-4.6076,-4.5797,-4.5612,-4.5595,-4.5535,-4.5515,-4.576,-4.6194,-4.6055,-4.6106,-4.64,-4.6654,-4.698,-4.7347,-4.7725,-4.7929,-4.7929,-4.7929,-4.7929,-4.797,-4.801,-4.7779,-4.7456,-4.7572,-4.7537,-2.3493,-2.3905,-2.3453,-2.3229,-2.3229,-2.3329,-2.3338,-2.3338,-2.3348,-2.3745,-2.4685,-2.4106,-2.4396,-2.4944,-2.4331,-2.4122,-2.4142,-2.4213,-2.4323,-2.4575,-2.4856,-2.5309,-2.5641,-2.5963,-2.632,-2.6607,-2.6688,-2.6794,-2.6699,-2.689,-2.7177,-2.7357,-2.7504,-2.8041,-2.8453,-2.8899,-2.8918,-2.8903,-2.8722,-2.8578,-2.8539,-2.8582,-2.9018,-2.9507,-2.967,-3.0247,-3.1019,-3.1125,-3.1579,-3.2325,-3.2463,-3.2884,-3.3679,-3.5141,-3.6254,-3.7596,-3.7813,-3.781,-3.777,-3.8473,-3.8974,-3.899,-3.958,-3.9768,-3.9949,-4.0152,-4.0501,-4.073,-4.1018,-4.1288,-4.1538,-4.1931,-4.2254,-4.2555,-4.2805,-4.3096,-4.3306,-4.3313,-4.3306,-4.3558,-4.3968,-4.4524,-4.511,-4.5372,-4.5546,-4.5803,-4.5955,-4.6105,-4.6253,-4.635,-4.6376,-4.6083,-4.6059,-4.5988,-4.6333,-4.6436,-4.6659,-4.6888,-4.6717,-4.668,-4.6988,-4.7241,-4.7464,-4.756,-4.7601,-4.7674,-4.7783,-4.7728,-4.7588,-4.7806,-4.7847,-4.7561,-4.7387,-4.7545,-4.7606,-2.34,-2.3792,-2.3407,-2.3126,-2.2913,-2.3072,-2.3054,-2.285,-2.3054,-2.3683,-2.415,-2.39,-2.4124,-2.4586,-2.4287,-2.4078,-2.4098,-2.4286,-2.4395,-2.4313,-2.4842,-2.5056,-2.5407,-2.5729,-2.6074,-2.633,-2.64,-2.6592,-2.6613,-2.6805,-2.7081,-2.7272,-2.7567,-2.8105,-2.8668,-2.9138,-2.9471,-2.9371,-2.9281,-2.8994,-2.8804,-2.8668,-2.9041,-2.9417,-2.9467,-3.0247,-3.1066,-3.1087,-3.1854,-3.2619,-3.2707,-3.2997,-3.3858,-3.5115,-3.6751,-3.7908,-3.8071,-3.7993,-3.8045,-3.8352,-3.8902,-3.9232,-3.9408,-3.9506,-3.9826,-4.0107,-4.0283,-4.047,-4.0898,-4.1236,-4.1488,-4.1752,-4.2061,-4.2381,-4.268,-4.299,-4.3054,-4.3155,-4.3273,-4.3421,-4.3861,-4.4292,-4.4719,-4.4947,-4.5177,-4.5441,-4.5701,-4.5854,-4.6005,-4.6154,-4.6253,-4.6222,-4.624,-4.6275,-4.6684,-4.6934,-4.6981,-4.7044,-4.7147,-4.718,-4.7572,-4.7554,-4.7482,-4.7355,-4.7253,-4.7422,-4.7567,-4.7301,-4.7197,-4.7446,-4.7717,-4.762,-4.7534,-4.7711,-4.7682,-2.3597,-2.3588,-2.3655,-2.3271,-2.2879,-2.3084,-2.2917,-2.2447,-2.3,-2.3438,-2.3616,-2.3613,-2.4034,-2.4414,-2.4287,-2.4156,-2.4084,-2.419,-2.4287,-2.4121,-2.4818,-2.509,-2.5303,-2.5594,-2.5915,-2.6177,-2.6373,-2.6493,-2.6587,-2.6855,-2.7017,-2.7314,-2.7665,-2.8282,-2.916,-2.9341,-2.9621,-2.9905,-2.9656,-2.9384,-2.8675,-2.8492,-2.8448,-2.878,-2.9365,-3.013,-3.1054,-3.1819,-3.2678,-3.3032,-3.3281,-3.337,-3.4366,-3.5083,-3.6737,-3.7858,-3.8283,-3.8239,-3.8311,-3.8459,-3.8851,-3.8967,-3.8982,-3.9352,-3.9802,-4.0055,-4.0197,-4.0347,-4.0693,-4.1049,-4.1303,-4.1702,-4.2012,-4.2318,-4.2555,-4.2929,-4.3152,-4.3337,-4.3497,-4.3664,-4.387,-4.4345,-4.4567,-4.4852,-4.4978,-4.5177,-4.5389,-4.5598,-4.5701,-4.5854,-4.6055,-4.6204,-4.6154,-4.6253,-4.6542,-4.6731,-4.6888,-4.7053,-4.7232,-4.732,-4.7425,-4.7407,-4.7345,-4.7281,-4.7258,-4.7283,-4.7301,-4.712,-4.712,-4.7416,-4.7615,-4.7657,-4.7741,-4.7765,-4.7752,-2.2657,-2.2857,-2.3176,-2.324,-2.3217,-2.2844,-2.2632,-2.2465,-2.2931,-2.3613,-2.4164,-2.4002,-2.3965,-2.4382,-2.4059,-2.3879,-2.3721,-2.4061,-2.425,-2.4584,-2.5083,-2.5363,-2.5412,-2.5771,-2.5888,-2.5947,-2.6182,-2.6635,-2.6721,-2.6891,-2.718,-2.7717,-2.7966,-2.8523,-2.9349,-2.9542,-2.9854,-3.0145,-3.0141,-2.9743,-2.9095,-2.8528,-2.8421,-2.8913,-2.9547,-3.0079,-3.0861,-3.1588,-3.2484,-3.3138,-3.3171,-3.3994,-3.5431,-3.6207,-3.729,-3.8472,-3.8836,-3.8677,-3.8449,-3.8588,-3.903,-3.9164,-3.924,-3.9784,-4.0053,-4.0133,-4.0197,-4.0307,-4.057,-4.0913,-4.1283,-4.1683,-4.2011,-4.2254,-4.2429,-4.2867,-4.3251,-4.3492,-4.3687,-4.3881,-4.4056,-4.427,-4.448,-4.4631,-4.4814,-4.4961,-4.5177,-4.5336,-4.5441,-4.5598,-4.5905,-4.6005,-4.5972,-4.6073,-4.6398,-4.659,-4.6731,-4.6934,-4.7116,-4.7205,-4.7276,-4.7276,-4.7232,-4.7284,-4.7273,-4.7209,-4.7173,-4.7263,-4.7299,-4.7432,-4.7493,-4.7554,-4.7554,-4.7597,-4.7657,-2.1812,-2.2307,-2.2779,-2.3108,-2.3062,-2.2699,-2.2505,-2.2531,-2.285,-2.3501,-2.4156,-2.4066,-2.4066,-2.4262,-2.3923,-2.3601,-2.3474,-2.3791,-2.4175,-2.4617,-2.5254,-2.5662,-2.5857,-2.6053,-2.6152,-2.6191,-2.6419,-2.6675,-2.6723,-2.7144,-2.7477,-2.7749,-2.7992,-2.8572,-2.9394,-2.9761,-3.0113,-3.028,-3.046,-3.0216,-2.9613,-2.9128,-2.8732,-2.9203,-2.944,-3.0061,-3.1095,-3.1877,-3.2828,-3.3769,-3.4136,-3.4868,-3.6038,-3.6779,-3.7449,-3.8113,-3.8533,-3.8778,-3.8459,-3.8616,-3.9187,-3.9219,-3.931,-3.9743,-4.0206,-4.0248,-4.0213,-4.042,-4.0739,-4.1117,-4.145,-4.185,-4.2246,-4.2524,-4.243,-4.2555,-4.3052,-4.3432,-4.3687,-4.3881,-4.3998,-4.4097,-4.431,-4.4423,-4.4592,-4.4814,-4.5015,-4.5177,-4.523,-4.5353,-4.5649,-4.5821,-4.577,-4.5972,-4.635,-4.6447,-4.6495,-4.6749,-4.6998,-4.707,-4.7116,-4.716,-4.716,-4.7196,-4.7132,-4.6952,-4.6952,-4.7096,-4.7273,-4.7396,-4.7414,-4.7389,-4.745,-4.7468,-4.7468,-2.119,-2.1778,-2.2446,-2.2702,-2.2609,-2.2472,-2.2329,-2.233,-2.2681,-2.3011,-2.3393,-2.3674,-2.3737,-2.3836,-2.3728,-2.3628,-2.3592,-2.3511,-2.3872,-2.4786,-2.5457,-2.5819,-2.6232,-2.6536,-2.6319,-2.6323,-2.6413,-2.6339,-2.6153,-2.6713,-2.7208,-2.7635,-2.8191,-2.8835,-2.9505,-3.0055,-3.0305,-3.037,-3.0467,-3.0546,-3.0117,-2.972,-2.9408,-2.9246,-2.9332,-3.019,-3.1456,-3.252,-3.3458,-3.4348,-3.5098,-3.566,-3.6363,-3.7033,-3.751,-3.8091,-3.8276,-3.8306,-3.8128,-3.8242,-3.8769,-3.9172,-3.9357,-3.9722,-4.01,-4.017,-4.0214,-4.0395,-4.0785,-4.1242,-4.156,-4.2113,-4.2461,-4.2568,-4.2462,-4.2445,-4.2929,-4.3355,-4.3611,-4.3822,-4.3864,-4.3981,-4.4155,-4.4253,-4.4423,-4.4703,-4.4869,-4.5032,-4.514,-4.53,-4.5459,-4.5615,-4.5667,-4.5905,-4.6253,-4.6301,-4.6253,-4.6607,-4.6842,-4.6888,-4.6934,-4.7025,-4.7053,-4.7062,-4.6963,-4.69,-4.6829,-4.69,-4.7104,-4.7291,-4.7327,-4.732,-4.7338,-4.7338,-4.732,-2.0797,-2.1543,-2.1795,-2.2093,-2.2398,-2.2299,-2.2181,-2.2139,-2.2181,-2.2325,-2.2426,-2.2526,-2.2728,-2.332,-2.292,-2.2719,-2.2728,-2.2863,-2.4007,-2.5051,-2.5228,-2.5923,-2.6429,-2.6416,-2.6134,-2.6068,-2.6104,-2.6097,-2.6061,-2.6408,-2.6685,-2.7033,-2.7673,-2.8289,-2.9011,-2.9589,-3.0057,-3.0211,-3.0469,-3.049,-3.0686,-3.0213,-2.9807,-2.9677,-2.9677,-3.0585,-3.1563,-3.2276,-3.3491,-3.4626,-3.5555,-3.6109,-3.6636,-3.7166,-3.7709,-3.7936,-3.8033,-3.789,-3.7836,-3.8103,-3.8575,-3.8684,-3.9021,-3.9582,-3.9851,-3.9817,-3.9847,-3.9953,-4.0384,-4.11,-4.1554,-4.2333,-4.2746,-4.262,-4.2526,-4.2699,-4.2978,-4.3267,-4.3492,-4.3568,-4.3628,-4.3864,-4.4097,-4.4212,-4.4327,-4.4553,-4.4793,-4.494,-4.5032,-4.5194,-4.5353,-4.5406,-4.5528,-4.5718,-4.5972,-4.6005,-4.6055,-4.6398,-4.6702,-4.6842,-4.6934,-4.6998,-4.7007,-4.7035,-4.6989,-4.6981,-4.691,-4.6847,-4.6937,-4.7169,-4.7187,-4.7223,-4.7267,-4.7249,-4.7205]}]]